| time (UTC) | temp F | wind direction | speed MPH | gust MPH | rain 1hr in | rain 24hr in | rain mn in | humidity % | barometer mb |
| 20260508115444 | 49 | 99 | 0.0 | 0.0 | 0.00 | 0.53 | 0.00 | 97 | 1019.0 |
| 20260508115346 | 49 | 101 | 0.0 | 0.0 | 0.00 | 0.53 | 0.00 | 97 | 1019.0 |
| 20260508115243 | 49 | 101 | 0.0 | 0.0 | 0.00 | 0.53 | 0.00 | 97 | 1019.0 |
| 20260508115144 | 49 | 102 | 0.0 | 0.0 | 0.00 | 0.53 | 0.00 | 97 | 1019.0 |
| 20260508115044 | 49 | 5 | 0.0 | 0.0 | 0.00 | 0.53 | 0.00 | 97 | 1018.9 |
| 20260508114944 | 49 | 327 | 0.0 | 0.0 | 0.00 | 0.53 | 0.00 | 97 | 1018.9 |
| 20260508114844 | 49 | 313 | 0.0 | 0.0 | 0.00 | 0.53 | 0.00 | 97 | 1019.0 |
| 20260508114748 | 49 | 313 | 0.0 | 0.0 | 0.00 | 0.53 | 0.00 | 97 | 1018.8 |
| 20260508114707 | 49 | 313 | 0.0 | 0.0 | 0.00 | 0.53 | 0.00 | 97 | 1018.8 |
| 20260508114634 | 48 | 313 | 0.0 | 0.0 | 0.00 | 0.53 | 0.00 | 97 | 1018.5 |
| 20260508114545 | 49 | 313 | 0.0 | 0.0 | 0.00 | 0.53 | 0.00 | 97 | 1018.7 |
| 20260508114443 | 48 | 313 | 0.0 | 0.0 | 0.00 | 0.53 | 0.00 | 97 | 1018.8 |
| 20260508114342 | 48 | 313 | 0.0 | 0.0 | 0.00 | 0.53 | 0.00 | 97 | 1018.8 |
| 20260508114242 | 48 | 313 | 0.0 | 0.0 | 0.00 | 0.53 | 0.00 | 97 | 1018.7 |
| 20260508114200 | 48 | 313 | 0.0 | 0.0 | 0.00 | 0.53 | 0.00 | 97 | 1018.7 |
| 20260508114039 | 48 | 313 | 0.0 | 0.0 | 0.00 | 0.53 | 0.00 | 97 | 1018.7 |
| 20260508113942 | 48 | 277 | 0.0 | 0.0 | 0.00 | 0.53 | 0.00 | 97 | 1018.7 |
| 20260508113840 | 48 | 277 | 0.0 | 0.0 | 0.00 | 0.53 | 0.00 | 97 | 1018.6 |
| 20260508113800 | 48 | 275 | 0.0 | 0.0 | 0.00 | 0.53 | 0.00 | 97 | 1018.7 |
| 20260508113639 | 48 | 269 | 0.0 | 0.0 | 0.00 | 0.53 | 0.00 | 97 | 1018.6 |
| 20260508113540 | 48 | 269 | 0.0 | 0.0 | 0.00 | 0.53 | 0.00 | 97 | 1018.6 |
| 20260508113439 | 48 | 266 | 0.0 | 0.0 | 0.00 | 0.53 | 0.00 | 97 | 1018.6 |
| 20260508113340 | 48 | 265 | 0.0 | 0.0 | 0.00 | 0.53 | 0.00 | 97 | 1018.6 |
| 20260508113244 | 48 | 265 | 0.0 | 0.0 | 0.00 | 0.53 | 0.00 | 97 | 1018.6 |
| 20260508113144 | 47 | 265 | 0.0 | 0.0 | 0.00 | 0.53 | 0.00 | 97 | 1018.6 |
| 20260508113045 | 47 | 265 | 0.0 | 0.0 | 0.00 | 0.53 | 0.00 | 97 | 1018.6 |
| 20260508113005 | 47 | 265 | 0.0 | 0.0 | 0.00 | 0.53 | 0.00 | 97 | 1018.3 |
| 20260508112946 | 47 | 265 | 0.0 | 0.0 | 0.00 | 0.53 | 0.00 | 97 | 1018.6 |
| 20260508112905 | 47 | 265 | 0.0 | 0.0 | 0.00 | 0.53 | 0.00 | 97 | 1018.6 |
| 20260508112744 | 47 | 265 | 0.0 | 0.0 | 0.00 | 0.53 | 0.00 | 97 | 1018.5 |
| 20260508112644 | 47 | 265 | 0.0 | 0.0 | 0.00 | 0.53 | 0.00 | 97 | 1018.6 |
| 20260508112548 | 47 | 265 | 0.0 | 0.0 | 0.00 | 0.53 | 0.00 | 97 | 1018.5 |
| 20260508112508 | 47 | 265 | 0.0 | 0.0 | 0.00 | 0.53 | 0.00 | 97 | 1018.5 |
| 20260508112406 | 47 | 265 | 0.0 | 0.0 | 0.00 | 0.53 | 0.00 | 96 | 1018.5 |
| 20260508112246 | 47 | 265 | 0.0 | 0.0 | 0.00 | 0.53 | 0.00 | 96 | 1018.5 |
| 20260508112145 | 47 | 265 | 0.0 | 0.0 | 0.00 | 0.53 | 0.00 | 96 | 1018.5 |
| 20260508112044 | 47 | 265 | 0.0 | 0.0 | 0.00 | 0.53 | 0.00 | 96 | 1018.5 |
| 20260508111943 | 47 | 265 | 0.0 | 0.0 | 0.00 | 0.53 | 0.00 | 96 | 1018.4 |
| 20260508111902 | 47 | 265 | 0.0 | 0.0 | 0.00 | 0.53 | 0.00 | 97 | 1018.4 |
| 20260508111743 | 47 | 265 | 0.0 | 0.0 | 0.00 | 0.53 | 0.00 | 96 | 1018.4 |
| 20260508111643 | 47 | 265 | 0.0 | 0.0 | 0.00 | 0.53 | 0.00 | 96 | 1018.4 |
| 20260508111603 | 47 | 265 | 0.0 | 0.0 | 0.00 | 0.53 | 0.00 | 96 | 1018.3 |
| 20260508111502 | 46 | 265 | 0.0 | 0.0 | 0.00 | 0.53 | 0.00 | 96 | 1018.1 |
| 20260508111443 | 47 | 265 | 0.0 | 0.0 | 0.00 | 0.53 | 0.00 | 96 | 1018.3 |
| 20260508111341 | 47 | 265 | 0.0 | 0.0 | 0.00 | 0.53 | 0.00 | 96 | 1018.3 |
| 20260508111302 | 47 | 265 | 0.0 | 0.0 | 0.00 | 0.53 | 0.00 | 96 | 1018.3 |
| 20260508111202 | 47 | 265 | 0.0 | 0.0 | 0.00 | 0.53 | 0.00 | 96 | 1018.3 |
| 20260508111100 | 46 | 265 | 0.0 | 0.0 | 0.00 | 0.53 | 0.00 | 96 | 1018.3 |
| 20260508111003 | 46 | 265 | 0.0 | 0.0 | 0.00 | 0.53 | 0.00 | 96 | 1018.3 |
| 20260508110842 | 46 | 265 | 0.0 | 0.0 | 0.00 | 0.53 | 0.00 | 96 | 1018.3 |
| 20260508110800 | 46 | 265 | 0.0 | 0.0 | 0.00 | 0.53 | 0.00 | 96 | 1018.3 |
| 20260508110721 | 46 | 265 | 0.0 | 0.0 | 0.00 | 0.53 | 0.00 | 96 | 1018.2 |
| 20260508110621 | 46 | 265 | 0.0 | 0.0 | 0.00 | 0.53 | 0.00 | 96 | 1018.3 |
| 20260508110520 | 46 | 265 | 0.0 | 0.0 | 0.00 | 0.53 | 0.00 | 96 | 1018.2 |
| 20260508110354 | 46 | 264 | 0.0 | 0.0 | 0.00 | 0.53 | 0.00 | 96 | 1018.2 |
| 20260508110258 | 46 | 322 | 0.0 | 0.0 | 0.00 | 0.53 | 0.00 | 96 | 1018.2 |
| 20260508110228 | 46 | 322 | 0.0 | 0.0 | 0.00 | 0.53 | 0.00 | 96 | 1018.2 |
| 20260508110008 | 46 | 322 | 0.0 | 0.0 | 0.00 | 0.53 | 0.00 | 96 | 1017.8 |
| 20260508105954 | 46 | 322 | 0.0 | 0.0 | 0.00 | 0.53 | 0.00 | 96 | 1018.1 |
| 20260508105854 | 46 | 322 | 0.0 | 0.0 | 0.00 | 0.53 | 0.00 | 96 | 1018.1 |
| 20260508105752 | 46 | 321 | 0.0 | 0.0 | 0.00 | 0.53 | 0.00 | 96 | 1018.1 |
| 20260508105651 | 47 | 321 | 0.0 | 0.0 | 0.00 | 0.53 | 0.00 | 96 | 1018.1 |
| 20260508105549 | 46 | 321 | 0.0 | 0.0 | 0.00 | 0.53 | 0.00 | 96 | 1018.1 |
| 20260508105512 | 47 | 321 | 0.0 | 0.0 | 0.00 | 0.53 | 0.00 | 96 | 1018.0 |
| 20260508105350 | 46 | 321 | 0.0 | 0.0 | 0.00 | 0.53 | 0.00 | 96 | 1018.0 |
| 20260508105250 | 47 | 321 | 0.0 | 0.0 | 0.00 | 0.53 | 0.00 | 96 | 1018.1 |
| 20260508105151 | 47 | 321 | 0.0 | 0.0 | 0.00 | 0.53 | 0.00 | 96 | 1018.0 |
| 20260508105111 | 47 | 344 | 0.0 | 0.0 | 0.00 | 0.53 | 0.00 | 96 | 1018.0 |
| 20260508104951 | 47 | 344 | 0.0 | 0.0 | 0.00 | 0.53 | 0.00 | 96 | 1017.9 |
| 20260508104852 | 47 | 344 | 0.0 | 0.0 | 0.00 | 0.53 | 0.00 | 96 | 1017.9 |
| 20260508104756 | 47 | 344 | 0.0 | 0.0 | 0.00 | 0.53 | 0.00 | 96 | 1017.9 |
| 20260508104657 | 47 | 344 | 0.0 | 0.0 | 0.00 | 0.53 | 0.00 | 96 | 1017.8 |
| 20260508104631 | 46 | 344 | 0.0 | 0.0 | 0.00 | 0.53 | 0.00 | 96 | 1017.5 |
| 20260508104556 | 47 | 344 | 0.0 | 0.0 | 0.00 | 0.53 | 0.00 | 96 | 1017.8 |
| 20260508104514 | 47 | 344 | 0.0 | 0.0 | 0.00 | 0.53 | 0.00 | 96 | 1017.7 |
| 20260508104351 | 47 | 344 | 0.0 | 0.0 | 0.00 | 0.53 | 0.00 | 96 | 1017.7 |
| 20260508104252 | 47 | 344 | 0.0 | 0.0 | 0.00 | 0.53 | 0.00 | 96 | 1017.6 |
| 20260508104213 | 47 | 344 | 0.0 | 0.0 | 0.00 | 0.53 | 0.00 | 96 | 1017.5 |
| 20260508104112 | 47 | 344 | 0.0 | 0.0 | 0.00 | 0.53 | 0.00 | 96 | 1017.5 |
| 20260508103956 | 47 | 344 | 0.0 | 0.0 | 0.00 | 0.53 | 0.00 | 96 | 1017.5 |
| 20260508103856 | 47 | 344 | 0.0 | 0.0 | 0.00 | 0.53 | 0.00 | 96 | 1017.7 |
| 20260508103757 | 47 | 344 | 0.0 | 0.0 | 0.00 | 0.53 | 0.00 | 96 | 1017.6 |
| 20260508103657 | 47 | 344 | 0.0 | 0.0 | 0.00 | 0.53 | 0.00 | 96 | 1017.6 |
| 20260508103559 | 47 | 344 | 0.0 | 0.0 | 0.00 | 0.53 | 0.00 | 96 | 1017.6 |
| 20260508103520 | 47 | 344 | 0.0 | 0.0 | 0.00 | 0.53 | 0.00 | 96 | 1017.6 |
| 20260508103418 | 47 | 344 | 0.0 | 0.0 | 0.00 | 0.53 | 0.00 | 96 | 1017.6 |
| 20260508103242 | 47 | 344 | 0.0 | 0.0 | 0.00 | 0.53 | 0.00 | 96 | 1017.5 |
| 20260508103141 | 47 | 344 | 0.0 | 0.0 | 0.00 | 0.53 | 0.00 | 96 | 1017.5 |
| 20260508103042 | 47 | 344 | 0.0 | 0.0 | 0.00 | 0.53 | 0.00 | 96 | 1017.5 |
| 20260508103027 | 46 | 344 | 0.0 | 0.0 | 0.00 | 0.53 | 0.00 | 96 | 1017.2 |
| 20260508103003 | 47 | 344 | 0.0 | 0.0 | 0.00 | 0.53 | 0.00 | 96 | 1017.5 |
| 20260508102858 | 47 | 344 | 0.0 | 0.0 | 0.00 | 0.53 | 0.00 | 96 | 1017.4 |
| 20260508102758 | 47 | 344 | 0.0 | 0.0 | 0.00 | 0.53 | 0.00 | 96 | 1017.4 |
| 20260508102716 | 47 | 349 | 0.0 | 0.0 | 0.00 | 0.53 | 0.00 | 96 | 1017.4 |
| 20260508102555 | 47 | 349 | 0.0 | 0.0 | 0.00 | 0.53 | 0.00 | 96 | 1017.4 |
| 20260508102500 | 47 | 349 | 0.0 | 0.0 | 0.00 | 0.53 | 0.00 | 96 | 1017.3 |
| 20260508102355 | 47 | 349 | 0.0 | 0.0 | 0.00 | 0.53 | 0.00 | 96 | 1017.4 |
| 20260508102315 | 47 | 349 | 0.0 | 0.0 | 0.00 | 0.53 | 0.00 | 96 | 1017.3 |
| 20260508102213 | 47 | 349 | 0.0 | 0.0 | 0.00 | 0.53 | 0.00 | 96 | 1017.3 |
| 20260508102050 | 47 | 349 | 0.0 | 0.0 | 0.00 | 0.53 | 0.00 | 96 | 1017.3 |
| 20260508101950 | 47 | 349 | 0.0 | 0.0 | 0.00 | 0.53 | 0.00 | 96 | 1017.3 |
| 20260508101851 | 47 | 349 | 0.0 | 0.0 | 0.00 | 0.54 | 0.00 | 96 | 1017.3 |
| 20260508101749 | 47 | 349 | 0.0 | 0.0 | 0.00 | 0.54 | 0.00 | 96 | 1017.2 |
| 20260508101652 | 47 | 349 | 0.0 | 0.0 | 0.00 | 0.54 | 0.00 | 96 | 1017.2 |
| 20260508101550 | 47 | 349 | 0.0 | 0.0 | 0.00 | 0.54 | 0.00 | 96 | 1017.2 |
| 20260508101503 | 47 | 349 | 0.0 | 0.0 | 0.00 | 0.54 | 0.00 | 96 | 1016.9 |
| 20260508101448 | 47 | 349 | 0.0 | 0.0 | 0.00 | 0.54 | 0.00 | 96 | 1017.2 |
| 20260508101349 | 47 | 349 | 0.0 | 0.0 | 0.00 | 0.54 | 0.00 | 96 | 1017.2 |
| 20260508101251 | 47 | 349 | 0.0 | 0.0 | 0.00 | 0.54 | 0.00 | 96 | 1017.2 |
| 20260508101149 | 47 | 349 | 0.0 | 0.0 | 0.00 | 0.54 | 0.00 | 96 | 1017.2 |
| 20260508101107 | 47 | 349 | 0.0 | 0.0 | 0.00 | 0.54 | 0.00 | 96 | 1017.2 |
| 20260508100948 | 47 | 349 | 0.0 | 0.0 | 0.00 | 0.54 | 0.00 | 96 | 1017.2 |
| 20260508100848 | 47 | 349 | 0.0 | 0.0 | 0.00 | 0.54 | 0.00 | 96 | 1017.2 |
| 20260508100749 | 47 | 349 | 0.0 | 0.0 | 0.00 | 0.54 | 0.00 | 96 | 1017.3 |
| 20260508100647 | 47 | 349 | 0.0 | 0.0 | 0.00 | 0.54 | 0.00 | 96 | 1017.3 |
| 20260508100547 | 47 | 349 | 0.0 | 0.0 | 0.00 | 0.54 | 0.00 | 96 | 1017.3 |
| 20260508100504 | 47 | 349 | 0.0 | 0.0 | 0.00 | 0.54 | 0.00 | 96 | 1017.3 |
| 20260508100403 | 47 | 349 | 0.0 | 0.0 | 0.00 | 0.54 | 0.00 | 96 | 1017.3 |
| 20260508100326 | 48 | 349 | 0.0 | 0.0 | 0.00 | 0.54 | 0.00 | 96 | 1017.3 |
| 20260508100229 | 48 | 349 | 0.0 | 0.0 | 0.00 | 0.54 | 0.00 | 96 | 1017.3 |
| 20260508100018 | 47 | 349 | 0.0 | 0.0 | 0.00 | 0.54 | 0.00 | 96 | 1017.0 |
| 20260508095955 | 48 | 349 | 0.0 | 0.0 | 0.00 | 0.54 | 0.00 | 96 | 1017.3 |
| 20260508095856 | 48 | 349 | 0.0 | 0.0 | 0.00 | 0.54 | 0.00 | 96 | 1017.3 |
| 20260508095757 | 48 | 349 | 0.0 | 0.0 | 0.00 | 0.54 | 0.00 | 96 | 1017.2 |
| 20260508095658 | 48 | 349 | 0.0 | 0.0 | 0.00 | 0.54 | 0.00 | 96 | 1017.2 |
| 20260508095543 | 48 | 349 | 0.0 | 0.0 | 0.00 | 0.54 | 0.00 | 96 | 1017.2 |
| 20260508095445 | 48 | 349 | 0.0 | 0.0 | 0.00 | 0.54 | 0.00 | 96 | 1017.2 |
| 20260508095346 | 48 | 349 | 0.0 | 0.0 | 0.00 | 0.54 | 0.00 | 96 | 1017.1 |
| 20260508095247 | 48 | 349 | 0.0 | 0.0 | 0.00 | 0.54 | 0.00 | 96 | 1017.1 |
| 20260508095148 | 48 | 349 | 0.0 | 0.0 | 0.00 | 0.54 | 0.00 | 96 | 1017.2 |
| 20260508095049 | 48 | 349 | 0.0 | 0.0 | 0.00 | 0.54 | 0.00 | 96 | 1017.2 |
| 20260508094954 | 48 | 349 | 0.0 | 0.0 | 0.00 | 0.54 | 0.00 | 96 | 1017.1 |
| 20260508094855 | 48 | 349 | 0.0 | 0.0 | 0.00 | 0.54 | 0.00 | 96 | 1017.2 |
| 20260508094753 | 48 | 349 | 0.0 | 0.0 | 0.00 | 0.54 | 0.00 | 96 | 1017.1 |
| 20260508094714 | 48 | 349 | 0.0 | 0.0 | 0.00 | 0.54 | 0.00 | 96 | 1017.2 |
| 20260508094553 | 48 | 349 | 0.0 | 0.0 | 0.00 | 0.54 | 0.00 | 96 | 1017.2 |
| 20260508094512 | 47 | 349 | 0.0 | 0.0 | 0.00 | 0.54 | 0.00 | 96 | 1016.9 |
| 20260508094454 | 48 | 349 | 0.0 | 0.0 | 0.00 | 0.54 | 0.00 | 96 | 1017.2 |
| 20260508094355 | 48 | 349 | 0.0 | 0.0 | 0.00 | 0.54 | 0.00 | 96 | 1017.3 |
| 20260508094240 | 48 | 349 | 0.0 | 0.0 | 0.00 | 0.54 | 0.00 | 96 | 1017.2 |
| 20260508094142 | 48 | 349 | 0.0 | 0.0 | 0.00 | 0.54 | 0.00 | 96 | 1017.2 |
| 20260508094043 | 48 | 349 | 0.0 | 0.0 | 0.00 | 0.54 | 0.00 | 96 | 1017.2 |
| 20260508093944 | 48 | 349 | 0.0 | 0.0 | 0.00 | 0.54 | 0.00 | 96 | 1017.1 |
| 20260508093845 | 48 | 349 | 0.0 | 0.0 | 0.00 | 0.54 | 0.00 | 96 | 1017.1 |
| 20260508093745 | 48 | 349 | 0.0 | 0.0 | 0.00 | 0.54 | 0.00 | 96 | 1017.1 |
| 20260508093645 | 48 | 349 | 0.0 | 0.0 | 0.00 | 0.54 | 0.00 | 96 | 1017.1 |
| 20260508093550 | 48 | 349 | 0.0 | 0.0 | 0.00 | 0.54 | 0.00 | 96 | 1017.1 |
| 20260508093451 | 48 | 349 | 0.0 | 0.0 | 0.00 | 0.54 | 0.00 | 96 | 1017.1 |
| 20260508093352 | 48 | 349 | 0.0 | 0.0 | 0.00 | 0.54 | 0.00 | 96 | 1017.1 |
| 20260508093253 | 48 | 349 | 0.0 | 0.0 | 0.00 | 0.54 | 0.00 | 96 | 1017.1 |
| 20260508093155 | 48 | 349 | 0.0 | 0.0 | 0.00 | 0.54 | 0.00 | 96 | 1017.1 |
| 20260508093124 | 47 | 349 | 0.0 | 0.0 | 0.00 | 0.54 | 0.00 | 96 | 1016.8 |
| 20260508093056 | 48 | 349 | 0.0 | 0.0 | 0.00 | 0.54 | 0.00 | 96 | 1017.2 |
| 20260508093016 | 48 | 349 | 0.0 | 0.0 | 0.00 | 0.54 | 0.00 | 96 | 1017.1 |
| 20260508092858 | 48 | 349 | 0.0 | 0.0 | 0.00 | 0.54 | 0.00 | 96 | 1017.1 |
| 20260508092758 | 48 | 349 | 0.0 | 0.0 | 0.00 | 0.54 | 0.00 | 96 | 1017.1 |
| 20260508092659 | 48 | 349 | 0.0 | 0.0 | 0.00 | 0.54 | 0.00 | 96 | 1017.1 |
| 20260508092558 | 48 | 349 | 0.0 | 0.0 | 0.00 | 0.54 | 0.00 | 96 | 1017.0 |
| 20260508092458 | 48 | 349 | 0.0 | 0.0 | 0.00 | 0.54 | 0.00 | 96 | 1017.1 |
| 20260508092359 | 48 | 349 | 0.0 | 0.0 | 0.00 | 0.54 | 0.00 | 96 | 1017.0 |
| 20260508092243 | 48 | 349 | 0.0 | 0.0 | 0.00 | 0.54 | 0.00 | 96 | 1017.0 |
| 20260508092145 | 48 | 349 | 0.0 | 0.0 | 0.00 | 0.54 | 0.00 | 96 | 1017.0 |
| 20260508092046 | 48 | 349 | 0.0 | 0.0 | 0.00 | 0.54 | 0.00 | 96 | 1017.0 |
| 20260508092006 | 48 | 349 | 0.0 | 0.0 | 0.00 | 0.54 | 0.00 | 96 | 1016.9 |
| 20260508091839 | 48 | 349 | 0.0 | 0.0 | 0.00 | 0.56 | 0.00 | 96 | 1016.9 |
| 20260508091741 | 48 | 349 | 0.0 | 0.0 | 0.00 | 0.56 | 0.00 | 96 | 1017.0 |
| 20260508091641 | 48 | 349 | 0.0 | 0.0 | 0.00 | 0.56 | 0.00 | 96 | 1016.9 |
| 20260508091544 | 48 | 349 | 0.0 | 0.0 | 0.00 | 0.56 | 0.00 | 96 | 1017.0 |
| 20260508091527 | 48 | 349 | 0.0 | 0.0 | 0.00 | 0.56 | 0.00 | 96 | 1016.6 |
| 20260508091444 | 48 | 349 | 0.0 | 0.0 | 0.00 | 0.56 | 0.00 | 96 | 1016.9 |
| 20260508091345 | 48 | 349 | 0.0 | 0.0 | 0.00 | 0.56 | 0.00 | 96 | 1016.9 |
| 20260508091306 | 48 | 349 | 0.0 | 0.0 | 0.00 | 0.56 | 0.00 | 96 | 1016.9 |
| 20260508091146 | 48 | 349 | 0.0 | 0.0 | 0.00 | 0.56 | 0.00 | 96 | 1016.9 |
| 20260508091047 | 48 | 349 | 0.0 | 0.0 | 0.00 | 0.56 | 0.00 | 96 | 1016.9 |
| 20260508090948 | 48 | 349 | 0.0 | 0.0 | 0.00 | 0.56 | 0.00 | 96 | 1016.9 |
| 20260508090853 | 48 | 349 | 0.0 | 0.0 | 0.00 | 0.56 | 0.00 | 96 | 1016.9 |
| 20260508090754 | 48 | 349 | 0.0 | 0.0 | 0.00 | 0.56 | 0.00 | 96 | 1016.9 |
| 20260508090655 | 48 | 349 | 0.0 | 0.0 | 0.00 | 0.56 | 0.00 | 96 | 1016.8 |
| 20260508090556 | 48 | 349 | 0.0 | 0.0 | 0.00 | 0.56 | 0.00 | 96 | 1016.8 |
| 20260508090458 | 48 | 349 | 0.0 | 0.0 | 0.00 | 0.56 | 0.00 | 96 | 1016.8 |
| 20260508090359 | 48 | 349 | 0.0 | 0.0 | 0.00 | 0.56 | 0.00 | 96 | 1016.8 |
| 20260508090257 | 48 | 349 | 0.0 | 0.0 | 0.00 | 0.56 | 0.00 | 96 | 1016.9 |
| 20260508090225 | 48 | 349 | 0.0 | 0.0 | 0.00 | 0.56 | 0.00 | 96 | 1016.9 |
| 20260508090037 | 48 | 349 | 0.0 | 0.0 | 0.00 | 0.56 | 0.00 | 96 | 1016.5 |
| 20260508085952 | 48 | 349 | 0.0 | 0.0 | 0.00 | 0.56 | 0.00 | 96 | 1016.9 |
| 20260508085852 | 48 | 349 | 0.0 | 0.0 | 0.00 | 0.56 | 0.00 | 96 | 1016.8 |
| 20260508085807 | 48 | 349 | 0.0 | 0.0 | 0.00 | 0.56 | 0.00 | 96 | 1016.8 |
| 20260508085645 | 48 | 349 | 0.0 | 0.0 | 0.00 | 0.56 | 0.00 | 96 | 1016.8 |
| 20260508085549 | 48 | 349 | 0.0 | 0.0 | 0.00 | 0.56 | 0.00 | 96 | 1016.8 |
| 20260508085449 | 48 | 349 | 0.0 | 0.0 | 0.00 | 0.56 | 0.00 | 96 | 1016.8 |
| 20260508085348 | 48 | 349 | 0.0 | 0.0 | 0.00 | 0.56 | 0.00 | 96 | 1016.7 |
| 20260508085248 | 48 | 349 | 0.0 | 0.0 | 0.00 | 0.56 | 0.00 | 96 | 1016.7 |
| 20260508085148 | 49 | 349 | 0.0 | 0.0 | 0.00 | 0.56 | 0.00 | 96 | 1016.7 |
| 20260508085046 | 49 | 349 | 0.0 | 0.0 | 0.00 | 0.56 | 0.00 | 96 | 1016.8 |
| 20260508084947 | 49 | 349 | 0.0 | 0.0 | 0.00 | 0.56 | 0.00 | 96 | 1016.7 |
| 20260508084852 | 49 | 349 | 0.0 | 0.0 | 0.00 | 0.56 | 0.00 | 96 | 1016.7 |
| 20260508084751 | 49 | 349 | 0.0 | 0.0 | 0.00 | 0.56 | 0.00 | 96 | 1016.7 |
| 20260508084652 | 49 | 349 | 0.0 | 0.0 | 0.00 | 0.56 | 0.00 | 96 | 1016.7 |
| 20260508084611 | 49 | 349 | 0.0 | 0.0 | 0.00 | 0.56 | 0.00 | 96 | 1016.7 |
| 20260508084521 | 48 | 349 | 0.0 | 0.0 | 0.00 | 0.56 | 0.00 | 96 | 1016.3 |
| 20260508084450 | 49 | 349 | 0.0 | 0.0 | 0.00 | 0.56 | 0.00 | 96 | 1016.7 |
| 20260508084350 | 49 | 349 | 0.0 | 0.0 | 0.00 | 0.56 | 0.00 | 96 | 1016.7 |
| 20260508084251 | 49 | 349 | 0.0 | 0.0 | 0.00 | 0.56 | 0.00 | 96 | 1016.7 |
| 20260508084155 | 49 | 349 | 0.0 | 0.0 | 0.00 | 0.56 | 0.00 | 96 | 1016.7 |
| 20260508084054 | 49 | 349 | 0.0 | 0.0 | 0.00 | 0.56 | 0.00 | 96 | 1016.7 |
| 20260508083955 | 49 | 349 | 0.0 | 0.0 | 0.00 | 0.56 | 0.00 | 96 | 1016.7 |
| 20260508083854 | 49 | 349 | 0.0 | 0.0 | 0.00 | 0.56 | 0.00 | 96 | 1016.7 |
| 20260508083753 | 49 | 349 | 0.0 | 0.0 | 0.00 | 0.56 | 0.00 | 96 | 1016.6 |
| 20260508083653 | 49 | 349 | 0.0 | 0.0 | 0.00 | 0.56 | 0.00 | 96 | 1016.7 |
| 20260508083558 | 49 | 349 | 0.0 | 0.0 | 0.00 | 0.56 | 0.00 | 96 | 1016.7 |
| 20260508083459 | 49 | 349 | 0.0 | 0.0 | 0.00 | 0.56 | 0.00 | 96 | 1016.7 |
| 20260508083419 | 49 | 349 | 0.0 | 0.0 | 0.00 | 0.56 | 0.00 | 96 | 1016.6 |
| 20260508083257 | 49 | 349 | 0.0 | 0.0 | 0.00 | 0.56 | 0.00 | 96 | 1016.6 |
| 20260508083159 | 49 | 349 | 0.0 | 0.0 | 0.00 | 0.56 | 0.00 | 96 | 1016.7 |
| 20260508083127 | 49 | 349 | 0.0 | 0.0 | 0.00 | 0.56 | 0.00 | 96 | 1016.2 |
| 20260508083057 | 49 | 349 | 0.0 | 0.0 | 0.00 | 0.56 | 0.00 | 96 | 1016.6 |
| 20260508082957 | 49 | 349 | 0.0 | 0.0 | 0.00 | 0.56 | 0.00 | 96 | 1016.6 |
| 20260508082901 | 49 | 349 | 0.0 | 0.0 | 0.00 | 0.56 | 0.00 | 96 | 1016.6 |
| 20260508082801 | 49 | 349 | 0.0 | 0.0 | 0.00 | 0.56 | 0.00 | 96 | 1016.6 |
| 20260508082701 | 49 | 349 | 0.0 | 0.0 | 0.00 | 0.56 | 0.00 | 96 | 1016.6 |
| 20260508082540 | 49 | 349 | 0.0 | 0.0 | 0.00 | 0.56 | 0.00 | 96 | 1016.6 |
| 20260508082440 | 49 | 349 | 0.0 | 0.0 | 0.00 | 0.56 | 0.00 | 96 | 1016.6 |
| 20260508082340 | 49 | 349 | 0.0 | 0.0 | 0.00 | 0.56 | 0.00 | 96 | 1016.6 |
| 20260508082240 | 49 | 349 | 0.0 | 0.0 | 0.00 | 0.56 | 0.00 | 96 | 1016.7 |
| 20260508082141 | 49 | 349 | 0.0 | 0.0 | 0.00 | 0.56 | 0.00 | 96 | 1016.6 |
| 20260508082046 | 49 | 349 | 0.0 | 0.0 | 0.00 | 0.56 | 0.00 | 96 | 1016.6 |
| 20260508081947 | 49 | 349 | 0.0 | 0.0 | 0.00 | 0.56 | 0.00 | 96 | 1016.6 |
| 20260508081848 | 49 | 349 | 0.0 | 0.0 | 0.00 | 0.61 | 0.00 | 96 | 1016.6 |
| 20260508081807 | 49 | 349 | 0.0 | 0.0 | 0.00 | 0.61 | 0.00 | 96 | 1016.6 |
| 20260508081646 | 49 | 349 | 0.0 | 0.0 | 0.00 | 0.61 | 0.00 | 96 | 1016.5 |
| 20260508081547 | 49 | 349 | 0.0 | 0.0 | 0.00 | 0.61 | 0.00 | 96 | 1016.4 |
| 20260508081523 | 49 | 349 | 0.0 | 0.0 | 0.00 | 0.61 | 0.00 | 96 | 1016.0 |
| 20260508081448 | 49 | 349 | 0.0 | 0.0 | 0.00 | 0.61 | 0.00 | 96 | 1016.4 |
| 20260508081353 | 49 | 349 | 0.0 | 0.0 | 0.00 | 0.61 | 0.00 | 96 | 1016.4 |
| 20260508081252 | 49 | 349 | 0.0 | 0.0 | 0.00 | 0.61 | 0.00 | 96 | 1016.4 |
| 20260508081152 | 49 | 349 | 0.0 | 0.0 | 0.00 | 0.61 | 0.00 | 96 | 1016.4 |
| 20260508081052 | 49 | 349 | 0.0 | 0.0 | 0.00 | 0.61 | 0.00 | 96 | 1016.4 |
| 20260508080952 | 49 | 349 | 0.0 | 0.0 | 0.00 | 0.61 | 0.00 | 96 | 1016.4 |
| 20260508080852 | 49 | 349 | 0.0 | 0.0 | 0.00 | 0.61 | 0.00 | 96 | 1016.4 |
| 20260508080812 | 49 | 349 | 0.0 | 0.0 | 0.00 | 0.61 | 0.00 | 96 | 1016.4 |
| 20260508080655 | 49 | 349 | 0.0 | 0.0 | 0.00 | 0.61 | 0.00 | 96 | 1016.4 |
| 20260508080556 | 49 | 349 | 0.0 | 0.0 | 0.00 | 0.61 | 0.00 | 96 | 1016.3 |
| 20260508080455 | 49 | 349 | 0.0 | 0.0 | 0.00 | 0.61 | 0.00 | 96 | 1016.3 |
| 20260508080355 | 49 | 349 | 0.0 | 0.0 | 0.00 | 0.61 | 0.00 | 96 | 1016.2 |
| 20260508080251 | 49 | 349 | 0.0 | 0.0 | 0.00 | 0.61 | 0.00 | 96 | 1016.2 |
| 20260508080222 | 49 | 349 | 0.0 | 0.0 | 0.00 | 0.61 | 0.00 | 96 | 1016.2 |
| 20260508080010 | 49 | 349 | 0.0 | 0.0 | 0.00 | 0.61 | 0.00 | 96 | 1016.2 |
| 20260508075911 | 49 | 349 | 0.0 | 0.0 | 0.00 | 0.61 | 0.00 | 96 | 1016.2 |
| 20260508075750 | 49 | 349 | 0.0 | 0.0 | 0.00 | 0.61 | 0.00 | 96 | 1016.2 |
| 20260508075651 | 50 | 349 | 0.0 | 0.0 | 0.00 | 0.61 | 0.00 | 96 | 1016.2 |
| 20260508075610 | 50 | 349 | 0.0 | 0.0 | 0.00 | 0.61 | 0.00 | 96 | 1016.2 |
| 20260508075449 | 50 | 349 | 0.0 | 0.0 | 0.00 | 0.61 | 0.00 | 96 | 1016.2 |
| 20260508075344 | 50 | 349 | 0.0 | 0.0 | 0.00 | 0.61 | 0.00 | 96 | 1016.3 |
| 20260508075249 | 50 | 349 | 0.0 | 0.0 | 0.00 | 0.61 | 0.00 | 96 | 1016.2 |
| 20260508075148 | 50 | 349 | 0.0 | 0.0 | 0.00 | 0.61 | 0.00 | 96 | 1016.2 |
| 20260508075047 | 50 | 349 | 0.0 | 0.0 | 0.00 | 0.61 | 0.00 | 96 | 1016.2 |
| 20260508074948 | 50 | 349 | 0.0 | 0.0 | 0.00 | 0.61 | 0.00 | 96 | 1016.2 |
| 20260508074848 | 50 | 349 | 0.0 | 0.0 | 0.00 | 0.61 | 0.00 | 96 | 1016.3 |
| 20260508074808 | 50 | 349 | 0.0 | 0.0 | 0.00 | 0.61 | 0.00 | 96 | 1016.4 |
| 20260508074704 | 50 | 349 | 0.0 | 0.0 | 0.00 | 0.61 | 0.00 | 96 | 1016.3 |
| 20260508074603 | 49 | 349 | 0.0 | 0.0 | 0.00 | 0.61 | 0.00 | 96 | 1015.8 |
| 20260508074542 | 50 | 349 | 0.0 | 0.0 | 0.00 | 0.61 | 0.00 | 96 | 1016.3 |
| 20260508074447 | 50 | 349 | 0.0 | 0.0 | 0.00 | 0.61 | 0.00 | 96 | 1016.3 |
| 20260508074348 | 50 | 349 | 0.0 | 0.0 | 0.00 | 0.61 | 0.00 | 96 | 1016.3 |
| 20260508074247 | 50 | 349 | 0.0 | 0.0 | 0.00 | 0.61 | 0.00 | 96 | 1016.2 |
| 20260508074147 | 50 | 349 | 0.0 | 0.0 | 0.00 | 0.61 | 0.00 | 96 | 1016.2 |
| 20260508074047 | 50 | 349 | 0.0 | 0.0 | 0.00 | 0.61 | 0.00 | 96 | 1016.2 |
| 20260508073948 | 50 | 349 | 0.0 | 0.0 | 0.00 | 0.61 | 0.00 | 96 | 1016.2 |
| 20260508073850 | 50 | 349 | 0.0 | 0.0 | 0.00 | 0.61 | 0.00 | 96 | 1016.2 |
| 20260508073751 | 50 | 349 | 0.0 | 0.0 | 0.00 | 0.61 | 0.00 | 96 | 1016.2 |
| 20260508073648 | 50 | 349 | 0.0 | 0.0 | 0.00 | 0.61 | 0.00 | 96 | 1016.2 |
| 20260508073601 | 50 | 349 | 0.0 | 0.0 | 0.00 | 0.61 | 0.00 | 96 | 1016.3 |
| 20260508073440 | 50 | 349 | 0.0 | 0.0 | 0.00 | 0.61 | 0.00 | 96 | 1016.2 |
| 20260508073339 | 50 | 349 | 0.0 | 0.0 | 0.00 | 0.61 | 0.00 | 96 | 1016.2 |
| 20260508073239 | 50 | 349 | 0.0 | 0.0 | 0.00 | 0.61 | 0.00 | 96 | 1016.1 |
| 20260508073139 | 50 | 349 | 0.0 | 0.0 | 0.00 | 0.61 | 0.00 | 96 | 1016.0 |
| 20260508073103 | 50 | 349 | 0.0 | 0.0 | 0.00 | 0.61 | 0.00 | 96 | 1016.1 |
| 20260508073027 | 50 | 349 | 0.0 | 0.0 | 0.00 | 0.61 | 0.00 | 96 | 1015.6 |
| 20260508072943 | 50 | 349 | 0.0 | 0.0 | 0.00 | 0.61 | 0.00 | 96 | 1016.0 |
| 20260508072844 | 50 | 349 | 0.0 | 0.0 | 0.00 | 0.61 | 0.00 | 96 | 1016.1 |
| 20260508072745 | 50 | 349 | 0.0 | 0.0 | 0.00 | 0.61 | 0.00 | 96 | 1016.0 |
| 20260508072646 | 50 | 349 | 0.0 | 0.0 | 0.00 | 0.61 | 0.00 | 96 | 1016.1 |
| 20260508072547 | 50 | 349 | 0.0 | 0.0 | 0.00 | 0.61 | 0.00 | 96 | 1016.0 |
| 20260508072447 | 50 | 349 | 0.0 | 0.0 | 0.00 | 0.61 | 0.00 | 96 | 1016.0 |
| 20260508072352 | 50 | 349 | 0.0 | 0.0 | 0.00 | 0.61 | 0.00 | 96 | 1016.0 |
| 20260508072253 | 50 | 349 | 0.0 | 0.0 | 0.00 | 0.61 | 0.00 | 96 | 1016.0 |
| 20260508072154 | 50 | 349 | 0.0 | 0.0 | 0.00 | 0.61 | 0.00 | 96 | 1016.1 |
| 20260508072048 | 50 | 349 | 0.0 | 0.0 | 0.00 | 0.61 | 0.00 | 96 | 1016.2 |
| 20260508071948 | 50 | 349 | 0.0 | 0.0 | 0.00 | 0.61 | 0.00 | 96 | 1016.2 |
| 20260508071848 | 50 | 349 | 0.0 | 0.0 | 0.00 | 0.69 | 0.61 | 96 | 1016.2 |
| 20260508071752 | 50 | 349 | 0.0 | 0.0 | 0.00 | 0.69 | 0.61 | 96 | 1016.2 |
| 20260508071654 | 50 | 349 | 0.0 | 0.0 | 0.00 | 0.69 | 0.61 | 96 | 1016.2 |
| 20260508071554 | 51 | 349 | 0.0 | 0.0 | 0.00 | 0.69 | 0.61 | 96 | 1016.1 |
| 20260508071511 | 50 | 349 | 0.0 | 0.0 | 0.00 | 0.69 | 0.61 | 96 | 1015.7 |
| 20260508071455 | 51 | 349 | 0.0 | 0.0 | 0.00 | 0.69 | 0.61 | 96 | 1016.2 |
| 20260508071356 | 51 | 349 | 0.0 | 0.0 | 0.00 | 0.69 | 0.61 | 96 | 1016.1 |
| 20260508071257 | 51 | 349 | 0.0 | 0.0 | 0.00 | 0.69 | 0.61 | 96 | 1016.1 |
| 20260508071156 | 51 | 349 | 0.0 | 0.0 | 0.00 | 0.69 | 0.61 | 96 | 1016.0 |
| 20260508071041 | 51 | 349 | 0.0 | 0.0 | 0.00 | 0.69 | 0.61 | 96 | 1016.0 |
| 20260508070942 | 51 | 349 | 0.0 | 0.0 | 0.00 | 0.69 | 0.61 | 96 | 1016.0 |
| 20260508070843 | 51 | 349 | 0.0 | 0.0 | 0.00 | 0.69 | 0.61 | 96 | 1016.0 |
| 20260508070742 | 51 | 349 | 0.0 | 0.0 | 0.00 | 0.69 | 0.61 | 96 | 1016.0 |
| 20260508070643 | 51 | 349 | 0.0 | 0.0 | 0.00 | 0.69 | 0.61 | 96 | 1016.1 |
| 20260508070544 | 51 | 349 | 0.0 | 0.0 | 0.00 | 0.69 | 0.61 | 96 | 1016.0 |
| 20260508070448 | 51 | 349 | 0.0 | 0.0 | 0.00 | 0.69 | 0.61 | 96 | 1016.0 |
| 20260508070348 | 51 | 349 | 0.0 | 0.0 | 0.00 | 0.69 | 0.61 | 96 | 1016.0 |
| 20260508070312 | 51 | 349 | 0.0 | 0.0 | 0.00 | 0.69 | 0.61 | 96 | 1016.0 |
| 20260508070217 | 51 | 349 | 0.0 | 0.0 | 0.00 | 0.69 | 0.61 | 96 | 1016.0 |
| 20260508070002 | 50 | 349 | 0.0 | 0.0 | 0.00 | 0.69 | 0.61 | 96 | 1015.6 |
| 20260508065944 | 51 | 349 | 0.0 | 0.0 | 0.00 | 0.69 | 0.61 | 96 | 1016.0 |
| 20260508065844 | 51 | 349 | 0.0 | 0.0 | 0.00 | 0.69 | 0.61 | 96 | 1016.0 |
| 20260508065748 | 51 | 349 | 0.0 | 0.0 | 0.00 | 0.69 | 0.61 | 96 | 1015.9 |
| 20260508065649 | 51 | 349 | 0.0 | 0.0 | 0.00 | 0.69 | 0.61 | 96 | 1016.0 |
| 20260508065549 | 51 | 349 | 0.0 | 0.0 | 0.00 | 0.69 | 0.61 | 96 | 1016.0 |
| 20260508065447 | 51 | 349 | 0.0 | 0.0 | 0.00 | 0.69 | 0.61 | 96 | 1016.1 |
| 20260508065343 | 51 | 349 | 0.0 | 0.0 | 0.00 | 0.69 | 0.61 | 96 | 1016.0 |
| 20260508065244 | 51 | 349 | 0.0 | 0.0 | 0.00 | 0.69 | 0.61 | 96 | 1016.0 |
| 20260508065149 | 51 | 349 | 0.0 | 0.0 | 0.00 | 0.69 | 0.61 | 96 | 1016.0 |
| 20260508065108 | 51 | 349 | 0.0 | 0.0 | 0.00 | 0.69 | 0.61 | 96 | 1016.0 |
| 20260508064945 | 51 | 349 | 0.0 | 0.0 | 0.00 | 0.69 | 0.61 | 96 | 1016.0 |
| 20260508064845 | 51 | 349 | 0.0 | 0.0 | 0.00 | 0.69 | 0.61 | 96 | 1015.9 |
| 20260508064745 | 51 | 349 | 0.0 | 0.0 | 0.00 | 0.69 | 0.61 | 96 | 1016.0 |
| 20260508064645 | 51 | 349 | 0.0 | 0.0 | 0.00 | 0.69 | 0.61 | 96 | 1015.9 |
| 20260508064547 | 51 | 349 | 0.0 | 0.0 | 0.00 | 0.69 | 0.61 | 96 | 1015.9 |
| 20260508064508 | 51 | 349 | 0.0 | 0.0 | 0.00 | 0.69 | 0.61 | 96 | 1015.4 |
| 20260508064448 | 51 | 349 | 0.0 | 0.0 | 0.00 | 0.69 | 0.61 | 96 | 1015.9 |
| 20260508064352 | 51 | 349 | 0.0 | 0.0 | 0.00 | 0.69 | 0.61 | 96 | 1015.8 |
| 20260508064250 | 51 | 349 | 0.0 | 0.0 | 0.00 | 0.69 | 0.61 | 96 | 1015.9 |
| 20260508064149 | 51 | 349 | 0.0 | 0.0 | 0.00 | 0.69 | 0.61 | 96 | 1015.8 |
| 20260508064050 | 51 | 349 | 0.0 | 0.0 | 0.00 | 0.69 | 0.61 | 96 | 1015.9 |
| 20260508063951 | 51 | 349 | 0.0 | 0.0 | 0.00 | 0.69 | 0.61 | 96 | 1015.9 |
| 20260508063849 | 51 | 349 | 0.0 | 0.0 | 0.00 | 0.69 | 0.61 | 96 | 1015.9 |
| 20260508063810 | 51 | 349 | 0.0 | 0.0 | 0.00 | 0.69 | 0.61 | 96 | 1015.9 |
| 20260508063651 | 51 | 349 | 0.0 | 0.0 | 0.00 | 0.69 | 0.61 | 96 | 1015.9 |
| 20260508063552 | 51 | 349 | 0.0 | 0.0 | 0.00 | 0.69 | 0.61 | 96 | 1015.9 |
| 20260508063513 | 51 | 349 | 0.0 | 0.0 | 0.00 | 0.69 | 0.61 | 96 | 1015.9 |
| 20260508063351 | 51 | 349 | 0.0 | 0.0 | 0.00 | 0.69 | 0.61 | 96 | 1015.9 |
| 20260508063252 | 51 | 349 | 0.0 | 0.0 | 0.00 | 0.69 | 0.61 | 96 | 1015.8 |
| 20260508063151 | 51 | 349 | 0.0 | 0.0 | 0.00 | 0.69 | 0.61 | 96 | 1015.9 |
| 20260508063110 | 51 | 349 | 0.0 | 0.0 | 0.00 | 0.69 | 0.61 | 96 | 1015.4 |
| 20260508063052 | 51 | 349 | 0.0 | 0.0 | 0.00 | 0.69 | 0.61 | 96 | 1015.9 |
| 20260508063009 | 51 | 349 | 0.0 | 0.0 | 0.00 | 0.69 | 0.61 | 96 | 1015.9 |
| 20260508062852 | 51 | 349 | 0.0 | 0.0 | 0.00 | 0.69 | 0.61 | 96 | 1016.0 |
| 20260508062751 | 52 | 349 | 0.0 | 0.0 | 0.00 | 0.69 | 0.61 | 96 | 1016.0 |
| 20260508062651 | 52 | 349 | 0.0 | 0.0 | 0.00 | 0.69 | 0.61 | 96 | 1016.0 |
| 20260508062547 | 52 | 349 | 0.0 | 0.0 | 0.00 | 0.69 | 0.61 | 96 | 1016.0 |
| 20260508062446 | 52 | 349 | 0.0 | 0.0 | 0.00 | 0.69 | 0.61 | 96 | 1016.0 |
| 20260508062345 | 52 | 349 | 0.0 | 0.0 | 0.00 | 0.69 | 0.61 | 96 | 1016.0 |
| 20260508062247 | 52 | 349 | 0.0 | 0.0 | 0.00 | 0.69 | 0.61 | 96 | 1016.0 |
| 20260508062151 | 52 | 349 | 0.0 | 0.0 | 0.00 | 0.69 | 0.61 | 96 | 1016.0 |
| 20260508062051 | 52 | 349 | 0.0 | 0.0 | 0.00 | 0.69 | 0.61 | 96 | 1016.0 |
| 20260508062013 | 52 | 349 | 0.0 | 0.0 | 0.00 | 0.69 | 0.61 | 96 | 1015.9 |
| 20260508061851 | 52 | 349 | 0.0 | 0.0 | 0.00 | 0.90 | 0.61 | 96 | 1016.0 |
| 20260508061751 | 52 | 349 | 0.0 | 0.0 | 0.00 | 0.90 | 0.61 | 96 | 1016.0 |
| 20260508061649 | 52 | 349 | 0.0 | 0.0 | 0.00 | 0.90 | 0.61 | 96 | 1016.0 |
| 20260508061549 | 52 | 349 | 0.0 | 0.0 | 0.00 | 0.90 | 0.61 | 96 | 1016.0 |
| 20260508061516 | 51 | 349 | 0.0 | 0.0 | 0.00 | 0.90 | 0.61 | 96 | 1015.5 |
| 20260508061451 | 52 | 349 | 0.0 | 0.0 | 0.00 | 0.90 | 0.61 | 96 | 1016.0 |
| 20260508061411 | 52 | 349 | 0.0 | 0.0 | 0.00 | 0.90 | 0.61 | 96 | 1016.0 |
| 20260508061249 | 52 | 349 | 0.0 | 0.0 | 0.00 | 0.90 | 0.61 | 96 | 1016.0 |
| 20260508061148 | 52 | 349 | 0.0 | 0.0 | 0.00 | 0.90 | 0.61 | 96 | 1016.0 |
| 20260508061044 | 52 | 349 | 0.0 | 0.0 | 0.00 | 0.90 | 0.61 | 96 | 1016.0 |
| 20260508061001 | 52 | 349 | 0.0 | 0.0 | 0.00 | 0.90 | 0.61 | 96 | 1016.0 |
| 20260508060841 | 52 | 349 | 0.0 | 0.0 | 0.00 | 0.90 | 0.61 | 96 | 1016.0 |
| 20260508060759 | 52 | 349 | 0.0 | 0.0 | 0.00 | 0.90 | 0.61 | 96 | 1016.1 |
| 20260508060643 | 52 | 349 | 0.0 | 0.0 | 0.00 | 0.90 | 0.61 | 96 | 1016.1 |
| 20260508060604 | 52 | 349 | 0.0 | 0.0 | 0.00 | 0.90 | 0.61 | 96 | 1016.0 |
| 20260508060523 | 52 | 349 | 0.0 | 0.0 | 0.00 | 0.90 | 0.61 | 96 | 1016.0 |
| 20260508060356 | 52 | 349 | 0.0 | 0.0 | 0.00 | 0.90 | 0.61 | 96 | 1016.0 |
| 20260508060259 | 52 | 349 | 0.0 | 0.0 | 0.00 | 0.90 | 0.61 | 96 | 1016.0 |
| 20260508060226 | 52 | 349 | 0.0 | 0.0 | 0.00 | 0.90 | 0.61 | 96 | 1016.0 |
| 20260508060016 | 52 | 349 | 0.0 | 0.0 | 0.00 | 0.90 | 0.61 | 96 | 1016.0 |
| 20260508055856 | 52 | 349 | 0.0 | 0.0 | 0.00 | 0.90 | 0.61 | 96 | 1016.0 |
| 20260508055817 | 52 | 349 | 0.0 | 0.0 | 0.00 | 0.90 | 0.61 | 96 | 1016.0 |
| 20260508055716 | 52 | 349 | 0.0 | 0.0 | 0.00 | 0.90 | 0.61 | 96 | 1016.0 |
| 20260508055555 | 52 | 349 | 0.0 | 0.0 | 0.00 | 0.90 | 0.61 | 96 | 1016.0 |
| 20260508055455 | 52 | 349 | 0.0 | 0.0 | 0.00 | 0.90 | 0.61 | 96 | 1016.0 |
| 20260508055355 | 52 | 349 | 0.0 | 0.0 | 0.00 | 0.90 | 0.61 | 96 | 1016.0 |
| 20260508055315 | 52 | 349 | 0.0 | 0.0 | 0.00 | 0.90 | 0.61 | 96 | 1016.0 |
| 20260508055215 | 52 | 349 | 0.0 | 0.0 | 0.00 | 0.90 | 0.61 | 96 | 1016.0 |
| 20260508055057 | 52 | 349 | 0.0 | 0.0 | 0.00 | 0.90 | 0.61 | 96 | 1016.0 |
| 20260508054957 | 52 | 349 | 0.0 | 0.0 | 0.00 | 0.90 | 0.61 | 96 | 1016.0 |
| 20260508054855 | 52 | 349 | 0.0 | 0.0 | 0.00 | 0.90 | 0.61 | 96 | 1016.0 |
| 20260508054754 | 52 | 349 | 0.0 | 0.0 | 0.00 | 0.90 | 0.61 | 96 | 1016.0 |
| 20260508054650 | 52 | 349 | 0.0 | 0.0 | 0.00 | 0.90 | 0.61 | 96 | 1016.0 |
| 20260508054628 | 52 | 349 | 0.0 | 0.0 | 0.00 | 0.90 | 0.61 | 96 | 1015.6 |
| 20260508054608 | 52 | 349 | 0.0 | 0.0 | 0.00 | 0.90 | 0.61 | 96 | 1016.0 |
| 20260508054448 | 52 | 349 | 0.0 | 0.0 | 0.00 | 0.90 | 0.61 | 96 | 1016.0 |
| 20260508054352 | 52 | 349 | 0.0 | 0.0 | 0.00 | 0.90 | 0.61 | 96 | 1016.0 |
| 20260508054252 | 52 | 349 | 0.0 | 0.0 | 0.00 | 0.90 | 0.61 | 96 | 1016.1 |
| 20260508054151 | 52 | 349 | 0.0 | 0.0 | 0.00 | 0.90 | 0.61 | 96 | 1015.9 |
| 20260508054051 | 52 | 349 | 0.0 | 0.0 | 0.00 | 0.90 | 0.61 | 96 | 1015.9 |
| 20260508053948 | 52 | 349 | 0.0 | 0.0 | 0.00 | 0.90 | 0.61 | 96 | 1015.9 |
| 20260508053848 | 52 | 349 | 0.0 | 0.0 | 0.00 | 0.90 | 0.61 | 96 | 1015.9 |
| 20260508053805 | 52 | 349 | 0.0 | 0.0 | 0.00 | 0.90 | 0.61 | 96 | 1015.9 |
| 20260508053648 | 53 | 349 | 0.0 | 0.0 | 0.00 | 0.90 | 0.61 | 96 | 1015.9 |
| 20260508053546 | 53 | 349 | 0.0 | 0.0 | 0.00 | 0.90 | 0.61 | 96 | 1015.9 |
| 20260508053446 | 53 | 349 | 0.0 | 0.0 | 0.00 | 0.90 | 0.61 | 96 | 1015.9 |
| 20260508053407 | 53 | 349 | 0.0 | 0.0 | 0.00 | 0.90 | 0.61 | 96 | 1015.9 |
| 20260508053247 | 53 | 349 | 0.0 | 0.0 | 0.00 | 0.90 | 0.61 | 96 | 1015.9 |
| 20260508053144 | 53 | 349 | 0.0 | 0.0 | 0.00 | 0.90 | 0.61 | 96 | 1015.9 |
| 20260508053044 | 53 | 349 | 0.0 | 0.0 | 0.00 | 0.90 | 0.61 | 96 | 1015.8 |
| 20260508053028 | 52 | 349 | 0.0 | 0.0 | 0.00 | 0.90 | 0.61 | 96 | 1015.3 |
| 20260508053005 | 53 | 349 | 0.0 | 0.0 | 0.00 | 0.90 | 0.61 | 96 | 1015.8 |
| 20260508052848 | 53 | 349 | 0.0 | 0.0 | 0.00 | 0.90 | 0.61 | 96 | 1015.9 |
| 20260508052748 | 53 | 349 | 0.0 | 0.0 | 0.00 | 0.90 | 0.61 | 96 | 1015.9 |
| 20260508052646 | 53 | 349 | 0.0 | 0.0 | 0.00 | 0.90 | 0.61 | 96 | 1015.9 |
| 20260508052547 | 53 | 349 | 0.0 | 0.0 | 0.00 | 0.90 | 0.61 | 96 | 1016.0 |
| 20260508052447 | 53 | 349 | 0.0 | 0.0 | 0.00 | 0.90 | 0.61 | 96 | 1016.0 |
| 20260508052407 | 53 | 349 | 0.0 | 0.0 | 0.00 | 0.90 | 0.61 | 96 | 1015.9 |
| 20260508052240 | 53 | 349 | 0.0 | 0.0 | 0.00 | 0.90 | 0.61 | 96 | 1015.9 |
| 20260508052144 | 53 | 349 | 0.0 | 0.0 | 0.00 | 0.90 | 0.61 | 96 | 1015.9 |
| 20260508052040 | 53 | 349 | 0.0 | 0.0 | 0.00 | 0.90 | 0.61 | 96 | 1015.8 |
| 20260508051941 | 53 | 349 | 0.0 | 0.0 | 0.00 | 0.90 | 0.61 | 96 | 1015.8 |
| 20260508051842 | 53 | 349 | 0.0 | 0.0 | 0.00 | 0.90 | 0.61 | 96 | 1015.9 |
| 20260508051742 | 53 | 349 | 0.0 | 0.0 | 0.00 | 0.90 | 0.61 | 96 | 1015.9 |
| 20260508051642 | 53 | 349 | 0.0 | 0.0 | 0.00 | 0.90 | 0.61 | 96 | 1015.9 |
| 20260508051541 | 53 | 349 | 0.0 | 0.0 | 0.00 | 0.90 | 0.61 | 96 | 1015.8 |
| 20260508051516 | 52 | 349 | 0.0 | 0.0 | 0.00 | 0.90 | 0.61 | 96 | 1015.3 |
| 20260508051446 | 53 | 349 | 0.0 | 0.0 | 0.00 | 0.90 | 0.61 | 96 | 1015.8 |
| 20260508051345 | 53 | 349 | 0.0 | 0.0 | 0.00 | 0.90 | 0.61 | 96 | 1015.7 |
| 20260508051246 | 53 | 349 | 0.0 | 0.0 | 0.00 | 0.90 | 0.61 | 96 | 1015.8 |
| 20260508051145 | 53 | 349 | 0.0 | 0.0 | 0.00 | 0.90 | 0.61 | 96 | 1015.7 |
| 20260508051039 | 53 | 349 | 0.0 | 0.0 | 0.00 | 0.90 | 0.61 | 96 | 1015.7 |
| 20260508050940 | 53 | 349 | 0.0 | 0.0 | 0.00 | 0.90 | 0.61 | 96 | 1015.7 |
| 20260508050844 | 53 | 349 | 0.0 | 0.0 | 0.00 | 0.90 | 0.61 | 96 | 1015.7 |
| 20260508050744 | 53 | 349 | 0.0 | 0.0 | 0.00 | 0.90 | 0.61 | 96 | 1015.8 |
| 20260508050644 | 53 | 349 | 0.0 | 0.0 | 0.00 | 0.90 | 0.61 | 96 | 1015.8 |
| 20260508050545 | 53 | 349 | 0.0 | 0.0 | 0.00 | 0.90 | 0.61 | 96 | 1015.8 |
| 20260508050446 | 53 | 349 | 0.0 | 0.0 | 0.00 | 0.90 | 0.61 | 96 | 1015.9 |
| 20260508050345 | 53 | 349 | 0.0 | 0.0 | 0.00 | 0.90 | 0.61 | 96 | 1015.9 |
| 20260508050309 | 53 | 349 | 0.0 | 0.0 | 0.00 | 0.90 | 0.61 | 96 | 1015.9 |
| 20260508050241 | 53 | 349 | 0.0 | 0.0 | 0.00 | 0.90 | 0.61 | 96 | 1015.9 |
| 20260508050024 | 53 | 349 | 0.0 | 0.0 | 0.00 | 0.90 | 0.61 | 96 | 1015.4 |
| 20260508045941 | 53 | 349 | 0.0 | 0.0 | 0.00 | 0.90 | 0.61 | 96 | 1015.9 |
| 20260508045842 | 53 | 349 | 0.0 | 0.0 | 0.00 | 0.90 | 0.61 | 96 | 1015.8 |
| 20260508045741 | 53 | 349 | 0.0 | 0.0 | 0.00 | 0.90 | 0.61 | 96 | 1015.8 |
| 20260508045640 | 53 | 349 | 0.0 | 0.0 | 0.00 | 0.90 | 0.61 | 96 | 1015.8 |
| 20260508045601 | 53 | 349 | 0.0 | 0.0 | 0.00 | 0.90 | 0.61 | 96 | 1015.8 |
| 20260508045445 | 53 | 349 | 0.0 | 0.0 | 0.00 | 0.90 | 0.61 | 96 | 1015.8 |
| 20260508045345 | 53 | 349 | 0.0 | 0.0 | 0.00 | 0.90 | 0.61 | 96 | 1015.7 |
| 20260508045246 | 53 | 349 | 0.0 | 0.0 | 0.00 | 0.90 | 0.61 | 96 | 1015.6 |
| 20260508045206 | 53 | 349 | 0.0 | 0.0 | 0.00 | 0.90 | 0.61 | 96 | 1015.6 |
| 20260508045040 | 54 | 349 | 0.0 | 0.0 | 0.00 | 0.90 | 0.61 | 96 | 1015.6 |
| 20260508044940 | 54 | 349 | 0.0 | 0.0 | 0.00 | 0.90 | 0.61 | 96 | 1015.6 |
| 20260508044841 | 54 | 349 | 0.0 | 0.0 | 0.00 | 0.90 | 0.61 | 96 | 1015.6 |
| 20260508044746 | 54 | 349 | 0.0 | 0.0 | 0.00 | 0.90 | 0.61 | 96 | 1015.6 |
| 20260508044645 | 54 | 349 | 0.0 | 0.0 | 0.00 | 0.90 | 0.61 | 96 | 1015.6 |
| 20260508044613 | 53 | 349 | 0.0 | 0.0 | 0.00 | 0.90 | 0.61 | 96 | 1015.1 |
| 20260508044546 | 54 | 349 | 0.0 | 0.0 | 0.00 | 0.90 | 0.61 | 96 | 1015.6 |
| 20260508044447 | 54 | 349 | 0.0 | 0.0 | 0.00 | 0.90 | 0.61 | 96 | 1015.6 |
| 20260508044406 | 54 | 349 | 0.0 | 0.0 | 0.00 | 0.90 | 0.61 | 96 | 1015.6 |
| 20260508044240 | 54 | 349 | 0.0 | 0.0 | 0.00 | 0.90 | 0.61 | 96 | 1015.5 |
| 20260508044141 | 54 | 349 | 0.0 | 0.0 | 0.00 | 0.90 | 0.61 | 96 | 1015.5 |
| 20260508044045 | 54 | 349 | 0.0 | 0.0 | 0.00 | 0.90 | 0.61 | 96 | 1015.4 |
| 20260508043946 | 54 | 349 | 0.0 | 0.0 | 0.00 | 0.90 | 0.61 | 96 | 1015.5 |
| 20260508043847 | 54 | 349 | 0.0 | 0.0 | 0.00 | 0.90 | 0.61 | 96 | 1015.4 |
| 20260508043747 | 54 | 349 | 0.0 | 0.0 | 0.00 | 0.90 | 0.61 | 96 | 1015.4 |
| 20260508043708 | 54 | 349 | 0.0 | 0.0 | 0.00 | 0.90 | 0.61 | 96 | 1015.5 |
| 20260508043540 | 54 | 349 | 0.0 | 0.0 | 0.00 | 0.90 | 0.61 | 96 | 1015.4 |
| 20260508043445 | 54 | 349 | 0.0 | 0.0 | 0.00 | 0.90 | 0.61 | 96 | 1015.4 |
| 20260508043346 | 54 | 349 | 0.0 | 0.0 | 0.00 | 0.90 | 0.61 | 96 | 1015.4 |
| 20260508043247 | 54 | 349 | 0.0 | 0.0 | 0.00 | 0.90 | 0.61 | 96 | 1015.4 |
| 20260508043148 | 54 | 349 | 0.0 | 0.0 | 0.00 | 0.90 | 0.61 | 96 | 1015.5 |
| 20260508043104 | 54 | 349 | 0.0 | 0.0 | 0.00 | 0.90 | 0.61 | 96 | 1014.9 |
| 20260508043046 | 54 | 349 | 0.0 | 0.0 | 0.00 | 0.90 | 0.61 | 96 | 1015.4 |
| 20260508043006 | 54 | 349 | 0.0 | 0.0 | 0.00 | 0.90 | 0.61 | 96 | 1015.4 |
| 20260508042840 | 54 | 349 | 0.0 | 0.0 | 0.00 | 0.90 | 0.61 | 96 | 1015.4 |
| 20260508042742 | 54 | 349 | 0.0 | 0.0 | 0.00 | 0.90 | 0.61 | 96 | 1015.4 |
| 20260508042640 | 54 | 349 | 0.0 | 0.0 | 0.00 | 0.90 | 0.61 | 96 | 1015.4 |
| 20260508042541 | 54 | 349 | 0.0 | 0.0 | 0.00 | 0.90 | 0.61 | 96 | 1015.4 |
| 20260508042502 | 54 | 349 | 0.0 | 0.0 | 0.00 | 0.90 | 0.61 | 96 | 1015.5 |
| 20260508042341 | 54 | 349 | 0.0 | 0.0 | 0.00 | 0.90 | 0.61 | 96 | 1015.5 |
| 20260508042242 | 54 | 349 | 0.0 | 0.0 | 0.00 | 0.90 | 0.61 | 96 | 1015.6 |
| 20260508042140 | 54 | 349 | 0.0 | 0.0 | 0.00 | 0.90 | 0.61 | 96 | 1015.6 |
| 20260508042046 | 54 | 349 | 0.0 | 0.0 | 0.00 | 0.90 | 0.61 | 96 | 1015.5 |
| 20260508041947 | 54 | 349 | 0.0 | 0.0 | 0.00 | 0.90 | 0.61 | 96 | 1015.4 |
| 20260508041847 | 54 | 349 | 0.0 | 0.0 | 0.00 | 1.05 | 0.61 | 96 | 1015.3 |
| 20260508041747 | 54 | 349 | 0.0 | 0.0 | 0.00 | 1.05 | 0.61 | 96 | 1015.3 |
| 20260508041706 | 54 | 349 | 0.0 | 0.0 | 0.00 | 1.05 | 0.61 | 96 | 1015.3 |
| 20260508041540 | 54 | 349 | 0.0 | 0.0 | 0.00 | 1.05 | 0.61 | 96 | 1015.4 |
| 20260508041517 | 54 | 349 | 0.0 | 0.0 | 0.00 | 1.05 | 0.61 | 96 | 1014.9 |
| 20260508041444 | 54 | 349 | 0.0 | 0.0 | 0.00 | 1.05 | 0.61 | 96 | 1015.4 |
| 20260508041403 | 54 | 349 | 0.0 | 0.0 | 0.00 | 1.05 | 0.61 | 96 | 1015.4 |
| 20260508041243 | 54 | 349 | 0.0 | 0.0 | 0.00 | 1.05 | 0.61 | 96 | 1015.4 |
| 20260508041142 | 54 | 349 | 0.0 | 0.0 | 0.00 | 1.05 | 0.61 | 96 | 1015.4 |
| 20260508041042 | 54 | 349 | 0.0 | 0.0 | 0.00 | 1.05 | 0.61 | 96 | 1015.4 |
| 20260508040942 | 54 | 349 | 0.0 | 0.0 | 0.00 | 1.05 | 0.61 | 96 | 1015.3 |
| 20260508040857 | 54 | 349 | 0.0 | 0.0 | 0.00 | 1.05 | 0.61 | 96 | 1015.3 |
| 20260508040757 | 54 | 349 | 0.0 | 0.0 | 0.00 | 1.05 | 0.61 | 96 | 1015.3 |
| 20260508040642 | 54 | 349 | 0.0 | 0.0 | 0.00 | 1.05 | 0.61 | 96 | 1015.3 |
| 20260508040543 | 54 | 349 | 0.0 | 0.0 | 0.00 | 1.05 | 0.61 | 96 | 1015.3 |
| 20260508040444 | 54 | 349 | 0.0 | 0.0 | 0.00 | 1.05 | 0.61 | 96 | 1015.4 |
| 20260508040404 | 54 | 349 | 0.0 | 0.0 | 0.00 | 1.05 | 0.61 | 96 | 1015.4 |
| 20260508040303 | 54 | 349 | 0.0 | 0.0 | 0.00 | 1.05 | 0.61 | 96 | 1015.3 |
| 20260508040226 | 54 | 349 | 0.0 | 0.0 | 0.00 | 1.05 | 0.61 | 96 | 1015.3 |
| 20260508040039 | 54 | 349 | 0.0 | 0.0 | 0.00 | 1.05 | 0.61 | 96 | 1014.8 |
| 20260508040017 | 55 | 349 | 0.0 | 0.0 | 0.00 | 1.05 | 0.61 | 96 | 1015.3 |
| 20260508035850 | 55 | 349 | 0.0 | 0.0 | 0.00 | 1.05 | 0.61 | 96 | 1015.3 |
| 20260508035810 | 55 | 349 | 0.0 | 0.0 | 0.00 | 1.05 | 0.61 | 96 | 1015.3 |
| 20260508035650 | 55 | 349 | 0.0 | 0.0 | 0.00 | 1.05 | 0.61 | 96 | 1015.4 |
| 20260508035550 | 55 | 349 | 0.0 | 0.0 | 0.00 | 1.05 | 0.61 | 96 | 1015.3 |
| 20260508035451 | 55 | 349 | 0.0 | 0.0 | 0.00 | 1.05 | 0.61 | 96 | 1015.3 |
| 20260508035352 | 55 | 349 | 0.0 | 0.0 | 0.00 | 1.05 | 0.61 | 96 | 1015.3 |
| 20260508035257 | 55 | 349 | 0.0 | 0.0 | 0.00 | 1.05 | 0.61 | 96 | 1015.3 |
| 20260508035218 | 55 | 349 | 0.0 | 0.0 | 0.00 | 1.05 | 0.61 | 96 | 1015.2 |
| 20260508035057 | 55 | 349 | 0.0 | 0.0 | 0.00 | 1.05 | 0.61 | 96 | 1015.3 |
| 20260508034957 | 55 | 349 | 0.0 | 0.0 | 0.00 | 1.05 | 0.61 | 96 | 1015.3 |
| 20260508034857 | 55 | 349 | 0.0 | 0.0 | 0.00 | 1.05 | 0.61 | 96 | 1015.3 |
| 20260508034757 | 55 | 349 | 0.0 | 0.0 | 0.00 | 1.05 | 0.61 | 96 | 1015.2 |
| 20260508034719 | 55 | 349 | 0.0 | 0.0 | 0.00 | 1.05 | 0.61 | 96 | 1015.2 |
| 20260508034628 | 54 | 349 | 0.0 | 0.0 | 0.00 | 1.05 | 0.61 | 96 | 1014.6 |
| 20260508034543 | 55 | 349 | 0.0 | 0.0 | 0.00 | 1.05 | 0.61 | 96 | 1015.2 |
| 20260508034504 | 55 | 349 | 0.0 | 0.0 | 0.00 | 1.05 | 0.61 | 96 | 1015.2 |
| 20260508034344 | 55 | 349 | 0.0 | 0.0 | 0.00 | 1.05 | 0.61 | 96 | 1015.2 |
| 20260508034243 | 55 | 349 | 0.0 | 0.0 | 0.00 | 1.05 | 0.61 | 96 | 1015.2 |
| 20260508034144 | 55 | 349 | 0.0 | 0.0 | 0.00 | 1.05 | 0.61 | 96 | 1015.2 |
| 20260508034103 | 55 | 349 | 0.0 | 0.0 | 0.00 | 1.05 | 0.61 | 96 | 1015.2 |
| 20260508033941 | 55 | 349 | 0.0 | 0.0 | 0.00 | 1.05 | 0.61 | 96 | 1015.2 |
| 20260508033842 | 55 | 349 | 0.0 | 0.0 | 0.00 | 1.05 | 0.61 | 96 | 1015.3 |
| 20260508033805 | 55 | 349 | 0.0 | 0.0 | 0.00 | 1.05 | 0.61 | 96 | 1015.2 |
| 20260508033643 | 55 | 349 | 0.0 | 0.0 | 0.00 | 1.05 | 0.61 | 96 | 1015.2 |
| 20260508033543 | 55 | 349 | 0.0 | 0.0 | 0.00 | 1.05 | 0.61 | 96 | 1015.3 |
| 20260508033444 | 55 | 349 | 0.0 | 0.0 | 0.00 | 1.05 | 0.61 | 96 | 1015.3 |
| 20260508033405 | 55 | 349 | 0.0 | 0.0 | 0.00 | 1.05 | 0.61 | 96 | 1015.4 |
| 20260508033241 | 55 | 349 | 0.0 | 0.0 | 0.00 | 1.05 | 0.61 | 96 | 1015.4 |
| 20260508033140 | 55 | 349 | 0.0 | 0.0 | 0.00 | 1.05 | 0.61 | 96 | 1015.4 |
| 20260508033041 | 55 | 349 | 0.0 | 0.0 | 0.00 | 1.05 | 0.61 | 96 | 1015.4 |
| 20260508033011 | 54 | 349 | 0.0 | 0.0 | 0.00 | 1.05 | 0.61 | 96 | 1014.8 |
| 20260508032945 | 55 | 349 | 0.0 | 0.0 | 0.00 | 1.05 | 0.61 | 96 | 1015.3 |
| 20260508032845 | 55 | 349 | 0.0 | 0.0 | 0.00 | 1.05 | 0.61 | 96 | 1015.3 |
| 20260508032745 | 55 | 349 | 0.0 | 0.0 | 0.00 | 1.05 | 0.61 | 96 | 1015.3 |
| 20260508032645 | 55 | 349 | 0.0 | 0.0 | 0.00 | 1.05 | 0.61 | 96 | 1015.3 |
| 20260508032544 | 55 | 349 | 0.0 | 0.0 | 0.00 | 1.05 | 0.61 | 96 | 1015.3 |
| 20260508032505 | 55 | 349 | 0.0 | 0.0 | 0.00 | 1.05 | 0.61 | 96 | 1015.4 |
| 20260508032344 | 55 | 349 | 0.0 | 0.0 | 0.00 | 1.05 | 0.61 | 96 | 1015.4 |
| 20260508032247 | 55 | 349 | 0.0 | 0.0 | 0.00 | 1.05 | 0.61 | 96 | 1015.3 |
| 20260508032143 | 55 | 349 | 0.0 | 0.0 | 0.00 | 1.05 | 0.61 | 96 | 1015.3 |
| 20260508032043 | 55 | 349 | 0.0 | 0.0 | 0.00 | 1.05 | 0.61 | 96 | 1015.3 |
| 20260508032002 | 55 | 349 | 0.0 | 0.0 | 0.00 | 1.05 | 0.61 | 96 | 1015.3 |
| 20260508031922 | 55 | 349 | 0.0 | 0.0 | 0.00 | 1.19 | 0.61 | 96 | 1015.3 |
| 20260508031818 | 55 | 349 | 0.0 | 0.0 | 0.00 | 1.19 | 0.61 | 96 | 1015.3 |
| 20260508031657 | 55 | 349 | 0.0 | 0.0 | 0.00 | 1.19 | 0.61 | 96 | 1015.3 |
| 20260508031604 | 55 | 349 | 0.0 | 0.0 | 0.00 | 1.19 | 0.61 | 96 | 1014.7 |
| 20260508031542 | 55 | 349 | 0.0 | 0.0 | 0.00 | 1.19 | 0.61 | 96 | 1015.3 |
| 20260508031443 | 55 | 349 | 0.0 | 0.0 | 0.00 | 1.19 | 0.61 | 96 | 1015.3 |
| 20260508031343 | 55 | 349 | 0.0 | 0.0 | 0.00 | 1.19 | 0.61 | 96 | 1015.2 |
| 20260508031242 | 55 | 349 | 0.0 | 0.0 | 0.00 | 1.19 | 0.61 | 96 | 1015.2 |
| 20260508031141 | 55 | 349 | 0.0 | 0.0 | 0.00 | 1.19 | 0.61 | 96 | 1015.2 |
| 20260508031102 | 55 | 349 | 0.0 | 0.0 | 0.00 | 1.19 | 0.61 | 96 | 1015.2 |
| 20260508030958 | 55 | 349 | 0.0 | 0.0 | 0.00 | 1.19 | 0.61 | 96 | 1015.2 |
| 20260508030901 | 55 | 349 | 0.0 | 0.0 | 0.00 | 1.19 | 0.61 | 96 | 1015.2 |
| 20260508030821 | 55 | 349 | 0.0 | 0.0 | 0.00 | 1.19 | 0.61 | 96 | 1015.1 |
| 20260508030659 | 55 | 349 | 0.0 | 0.0 | 0.00 | 1.19 | 0.61 | 96 | 1015.1 |
| 20260508030559 | 55 | 349 | 0.0 | 0.0 | 0.00 | 1.19 | 0.61 | 96 | 1015.1 |
| 20260508030458 | 55 | 349 | 0.0 | 0.0 | 0.00 | 1.19 | 0.61 | 96 | 1015.1 |
| 20260508030359 | 55 | 349 | 0.0 | 0.0 | 0.00 | 1.19 | 0.61 | 96 | 1015.1 |
| 20260508030255 | 55 | 349 | 0.0 | 0.0 | 0.00 | 1.19 | 0.61 | 96 | 1015.1 |
| 20260508030227 | 55 | 349 | 0.0 | 0.0 | 0.00 | 1.19 | 0.61 | 96 | 1015.1 |
| 20260508030007 | 55 | 349 | 0.0 | 0.0 | 0.00 | 1.19 | 0.61 | 96 | 1014.4 |
| 20260508025953 | 55 | 349 | 0.0 | 0.0 | 0.00 | 1.19 | 0.61 | 96 | 1015.0 |
| 20260508025853 | 55 | 349 | 0.0 | 0.0 | 0.00 | 1.19 | 0.61 | 96 | 1015.1 |
| 20260508025813 | 55 | 349 | 0.0 | 0.0 | 0.00 | 1.19 | 0.61 | 96 | 1015.1 |
| 20260508025653 | 55 | 349 | 0.0 | 0.0 | 0.00 | 1.19 | 0.61 | 96 | 1015.1 |
| 20260508025553 | 55 | 349 | 0.0 | 0.0 | 0.00 | 1.19 | 0.61 | 96 | 1015.1 |
| 20260508025457 | 55 | 349 | 0.0 | 0.0 | 0.00 | 1.19 | 0.61 | 96 | 1015.1 |
| 20260508025416 | 55 | 349 | 0.0 | 0.0 | 0.00 | 1.19 | 0.61 | 96 | 1015.1 |
| 20260508025254 | 56 | 349 | 0.0 | 0.0 | 0.00 | 1.19 | 0.61 | 96 | 1015.1 |
| 20260508025156 | 55 | 349 | 0.0 | 0.0 | 0.00 | 1.19 | 0.61 | 96 | 1015.0 |
| 20260508025050 | 56 | 349 | 0.0 | 0.0 | 0.00 | 1.19 | 0.61 | 96 | 1015.0 |
| 20260508024951 | 56 | 349 | 0.0 | 0.0 | 0.00 | 1.19 | 0.61 | 96 | 1015.0 |
| 20260508024849 | 56 | 349 | 0.0 | 0.0 | 0.00 | 1.19 | 0.61 | 96 | 1015.0 |
| 20260508024755 | 56 | 349 | 0.0 | 0.0 | 0.00 | 1.19 | 0.61 | 96 | 1015.0 |
| 20260508024715 | 56 | 349 | 0.0 | 0.0 | 0.00 | 1.19 | 0.61 | 96 | 1014.9 |
| 20260508024607 | 55 | 349 | 0.0 | 0.0 | 0.00 | 1.19 | 0.61 | 96 | 1014.4 |
| 20260508024550 | 56 | 349 | 0.0 | 0.0 | 0.00 | 1.19 | 0.61 | 96 | 1015.0 |
| 20260508024450 | 56 | 349 | 0.0 | 0.0 | 0.00 | 1.19 | 0.61 | 96 | 1014.9 |
| 20260508024349 | 56 | 349 | 0.0 | 0.0 | 0.00 | 1.19 | 0.61 | 96 | 1015.0 |
| 20260508024249 | 56 | 349 | 0.0 | 0.0 | 0.00 | 1.19 | 0.61 | 96 | 1014.9 |
| 20260508024150 | 56 | 349 | 0.0 | 0.0 | 0.00 | 1.19 | 0.61 | 96 | 1015.0 |
| 20260508024054 | 56 | 349 | 0.0 | 0.0 | 0.00 | 1.19 | 0.61 | 96 | 1015.0 |
| 20260508023954 | 56 | 349 | 0.0 | 0.0 | 0.00 | 1.19 | 0.61 | 96 | 1015.0 |
| 20260508023854 | 56 | 349 | 0.0 | 0.0 | 0.00 | 1.19 | 0.61 | 96 | 1015.0 |
| 20260508023815 | 56 | 349 | 0.0 | 0.0 | 0.00 | 1.19 | 0.61 | 96 | 1015.0 |
| 20260508023654 | 56 | 349 | 0.0 | 0.0 | 0.00 | 1.19 | 0.61 | 96 | 1015.0 |
| 20260508023611 | 56 | 349 | 0.0 | 0.0 | 0.00 | 1.19 | 0.61 | 96 | 1015.0 |
| 20260508023507 | 56 | 349 | 0.0 | 0.0 | 0.00 | 1.19 | 0.61 | 96 | 1014.9 |
| 20260508023407 | 56 | 349 | 0.0 | 0.0 | 0.00 | 1.19 | 0.61 | 96 | 1014.9 |
| 20260508023246 | 56 | 349 | 0.0 | 0.0 | 0.00 | 1.19 | 0.61 | 96 | 1014.9 |
| 20260508023143 | 56 | 349 | 0.0 | 0.0 | 0.00 | 1.19 | 0.61 | 96 | 1014.9 |
| 20260508023117 | 55 | 349 | 0.0 | 0.0 | 0.00 | 1.19 | 0.61 | 96 | 1014.3 |
| 20260508023104 | 56 | 349 | 0.0 | 0.0 | 0.00 | 1.19 | 0.61 | 96 | 1014.9 |
| 20260508022942 | 56 | 349 | 0.0 | 0.0 | 0.00 | 1.19 | 0.61 | 96 | 1014.8 |
| 20260508022841 | 56 | 349 | 0.0 | 0.0 | 0.00 | 1.19 | 0.61 | 96 | 1014.8 |
| 20260508022802 | 56 | 349 | 0.0 | 0.0 | 0.00 | 1.19 | 0.61 | 96 | 1014.8 |
| 20260508022658 | 56 | 349 | 0.0 | 0.0 | 0.00 | 1.19 | 0.61 | 95 | 1014.8 |
| 20260508022557 | 56 | 349 | 0.0 | 0.0 | 0.00 | 1.19 | 0.61 | 96 | 1014.7 |
| 20260508022501 | 56 | 349 | 0.0 | 0.0 | 0.00 | 1.19 | 0.61 | 95 | 1014.7 |
| 20260508022359 | 56 | 349 | 0.0 | 0.0 | 0.00 | 1.19 | 0.61 | 95 | 1014.7 |
| 20260508022259 | 56 | 349 | 0.0 | 0.0 | 0.00 | 1.19 | 0.61 | 95 | 1014.6 |
| 20260508022200 | 56 | 349 | 0.0 | 0.0 | 0.00 | 1.19 | 0.61 | 95 | 1014.7 |
| 20260508022121 | 56 | 349 | 0.0 | 0.0 | 0.00 | 1.19 | 0.61 | 96 | 1014.6 |
| 20260508022021 | 56 | 349 | 0.0 | 0.0 | 0.00 | 1.19 | 0.61 | 95 | 1014.6 |
| 20260508021855 | 56 | 349 | 0.0 | 0.0 | 0.00 | 1.30 | 0.61 | 96 | 1014.6 |
| 20260508021740 | 56 | 349 | 0.0 | 0.0 | 0.00 | 1.30 | 0.61 | 96 | 1014.6 |
| 20260508021701 | 56 | 349 | 0.0 | 0.0 | 0.00 | 1.30 | 0.61 | 96 | 1014.6 |
| 20260508021622 | 56 | 349 | 0.0 | 0.0 | 0.00 | 1.30 | 0.61 | 96 | 1014.5 |
| 20260508021552 | 55 | 349 | 0.0 | 0.0 | 0.00 | 1.30 | 0.61 | 96 | 1014.0 |
| 20260508021521 | 56 | 349 | 0.0 | 0.0 | 0.00 | 1.30 | 0.61 | 96 | 1014.5 |
| 20260508021419 | 56 | 349 | 0.0 | 0.0 | 0.00 | 1.30 | 0.61 | 96 | 1014.4 |
| 20260508021258 | 56 | 349 | 0.0 | 0.0 | 0.00 | 1.30 | 0.61 | 96 | 1014.3 |
| 20260508021157 | 56 | 349 | 0.0 | 0.0 | 0.00 | 1.30 | 0.61 | 95 | 1014.3 |
| 20260508021056 | 56 | 349 | 0.0 | 0.0 | 0.00 | 1.30 | 0.61 | 95 | 1014.3 |
| 20260508021011 | 56 | 349 | 0.0 | 0.0 | 0.00 | 1.30 | 0.61 | 95 | 1014.2 |
| 20260508020854 | 56 | 349 | 0.0 | 0.0 | 0.00 | 1.30 | 0.61 | 95 | 1014.2 |
| 20260508020810 | 56 | 349 | 0.0 | 0.0 | 0.00 | 1.30 | 0.61 | 95 | 1014.3 |
| 20260508020649 | 56 | 349 | 0.0 | 0.0 | 0.00 | 1.30 | 0.61 | 95 | 1014.3 |
| 20260508020548 | 56 | 349 | 0.0 | 0.0 | 0.00 | 1.30 | 0.61 | 95 | 1014.3 |
| 20260508020506 | 56 | 349 | 0.0 | 0.0 | 0.00 | 1.30 | 0.61 | 95 | 1014.3 |
| 20260508020345 | 56 | 349 | 0.0 | 0.0 | 0.00 | 1.30 | 0.61 | 95 | 1014.3 |
| 20260508020246 | 56 | 349 | 0.0 | 0.0 | 0.00 | 1.30 | 0.61 | 95 | 1014.3 |
| 20260508020218 | 56 | 349 | 0.0 | 0.0 | 0.00 | 1.30 | 0.61 | 95 | 1014.3 |
| 20260508020018 | 56 | 349 | 0.0 | 0.0 | 0.00 | 1.30 | 0.61 | 95 | 1013.7 |
| 20260508015946 | 56 | 349 | 0.0 | 0.0 | 0.00 | 1.30 | 0.61 | 95 | 1014.3 |
| 20260508015845 | 56 | 349 | 0.0 | 0.0 | 0.00 | 1.30 | 0.61 | 95 | 1014.2 |
| 20260508015746 | 56 | 349 | 0.0 | 0.0 | 0.00 | 1.30 | 0.61 | 95 | 1014.3 |
| 20260508015706 | 56 | 349 | 0.0 | 0.0 | 0.00 | 1.30 | 0.61 | 95 | 1014.3 |
| 20260508015543 | 56 | 349 | 0.0 | 0.0 | 0.00 | 1.30 | 0.61 | 95 | 1014.2 |
| 20260508015503 | 56 | 349 | 0.0 | 0.0 | 0.00 | 1.30 | 0.61 | 95 | 1014.2 |
| 20260508015345 | 56 | 349 | 0.0 | 0.0 | 0.00 | 1.30 | 0.61 | 95 | 1014.1 |
| 20260508015247 | 57 | 349 | 0.0 | 0.0 | 0.00 | 1.30 | 0.61 | 96 | 1014.2 |
| 20260508015148 | 57 | 349 | 0.0 | 0.0 | 0.00 | 1.30 | 0.61 | 96 | 1014.2 |
| 20260508015108 | 57 | 349 | 0.0 | 0.0 | 0.00 | 1.30 | 0.61 | 96 | 1014.2 |
| 20260508015007 | 57 | 349 | 0.0 | 0.0 | 0.00 | 1.30 | 0.61 | 96 | 1014.2 |
| 20260508014847 | 57 | 349 | 0.0 | 0.0 | 0.00 | 1.30 | 0.61 | 96 | 1014.2 |
| 20260508014747 | 57 | 349 | 0.0 | 0.0 | 0.00 | 1.30 | 0.61 | 96 | 1014.2 |
| 20260508014651 | 57 | 349 | 0.0 | 0.0 | 0.00 | 1.30 | 0.61 | 95 | 1014.2 |
| 20260508014551 | 57 | 349 | 0.0 | 0.0 | 0.00 | 1.30 | 0.61 | 96 | 1014.2 |
| 20260508014547 | 56 | 349 | 0.0 | 0.0 | 0.00 | 1.30 | 0.61 | 96 | 1013.6 |
| 20260508014512 | 57 | 349 | 0.0 | 0.0 | 0.00 | 1.30 | 0.61 | 95 | 1014.2 |
| 20260508014350 | 57 | 349 | 0.0 | 0.0 | 0.00 | 1.30 | 0.61 | 96 | 1014.2 |
| 20260508014250 | 57 | 349 | 0.0 | 0.0 | 0.00 | 1.30 | 0.61 | 96 | 1014.1 |
| 20260508014146 | 57 | 349 | 0.0 | 0.0 | 0.00 | 1.30 | 0.61 | 95 | 1014.1 |
| 20260508014046 | 57 | 349 | 0.0 | 0.0 | 0.00 | 1.30 | 0.61 | 95 | 1014.0 |
| 20260508013950 | 57 | 349 | 0.0 | 0.0 | 0.00 | 1.30 | 0.61 | 95 | 1014.0 |
| 20260508013850 | 57 | 349 | 0.0 | 0.0 | 0.00 | 1.30 | 0.61 | 95 | 1014.0 |
| 20260508013747 | 57 | 349 | 0.0 | 0.0 | 0.00 | 1.30 | 0.61 | 95 | 1013.9 |
| 20260508013650 | 57 | 349 | 0.0 | 0.0 | 0.00 | 1.30 | 0.61 | 95 | 1014.0 |
| 20260508013550 | 57 | 349 | 0.0 | 0.0 | 0.00 | 1.30 | 0.61 | 95 | 1014.0 |
| 20260508013451 | 57 | 349 | 0.0 | 0.0 | 0.00 | 1.30 | 0.61 | 95 | 1014.0 |
| 20260508013409 | 57 | 349 | 0.0 | 0.0 | 0.00 | 1.30 | 0.61 | 95 | 1013.9 |
| 20260508013251 | 57 | 349 | 0.0 | 0.0 | 0.00 | 1.30 | 0.61 | 95 | 1013.9 |
| 20260508013204 | 57 | 349 | 0.0 | 0.0 | 0.00 | 1.30 | 0.61 | 95 | 1013.8 |
| 20260508013123 | 56 | 349 | 0.0 | 0.0 | 0.00 | 1.30 | 0.61 | 95 | 1013.2 |
| 20260508013042 | 57 | 349 | 0.0 | 0.0 | 0.00 | 1.30 | 0.61 | 95 | 1013.8 |
| 20260508013002 | 57 | 349 | 0.0 | 0.0 | 0.00 | 1.30 | 0.61 | 95 | 1013.7 |
| 20260508012921 | 57 | 349 | 0.0 | 0.0 | 0.00 | 1.30 | 0.61 | 96 | 1013.8 |
| 20260508012759 | 57 | 349 | 0.0 | 0.0 | 0.00 | 1.30 | 0.61 | 95 | 1013.7 |
| 20260508012658 | 57 | 349 | 0.0 | 0.0 | 0.00 | 1.30 | 0.61 | 95 | 1013.8 |
| 20260508012558 | 57 | 349 | 0.0 | 0.0 | 0.00 | 1.30 | 0.61 | 95 | 1013.8 |
| 20260508012500 | 57 | 349 | 0.0 | 0.0 | 0.00 | 1.30 | 0.61 | 95 | 1013.9 |
| 20260508012418 | 57 | 349 | 0.0 | 0.0 | 0.00 | 1.30 | 0.61 | 95 | 1013.8 |
| 20260508012257 | 57 | 349 | 0.0 | 0.0 | 0.00 | 1.30 | 0.61 | 95 | 1013.8 |
| 20260508012157 | 57 | 349 | 0.0 | 0.0 | 0.00 | 1.30 | 0.61 | 95 | 1013.8 |
| 20260508012058 | 57 | 349 | 0.0 | 0.0 | 0.00 | 1.30 | 0.61 | 95 | 1013.9 |
| 20260508011956 | 57 | 349 | 0.0 | 0.0 | 0.00 | 1.30 | 0.61 | 95 | 1013.9 |
| 20260508011852 | 57 | 349 | 0.0 | 0.0 | 0.00 | 1.31 | 0.61 | 95 | 1013.9 |
| 20260508011756 | 57 | 349 | 0.0 | 0.0 | 0.00 | 1.31 | 0.61 | 95 | 1013.9 |
| 20260508011718 | 57 | 349 | 0.0 | 0.0 | 0.00 | 1.31 | 0.61 | 95 | 1013.8 |
| 20260508011556 | 57 | 349 | 0.0 | 0.0 | 0.00 | 1.31 | 0.61 | 95 | 1013.7 |
| 20260508011543 | 56 | 349 | 0.0 | 0.0 | 0.00 | 1.31 | 0.61 | 95 | 1013.1 |
| 20260508011454 | 57 | 349 | 0.0 | 0.0 | 0.00 | 1.31 | 0.61 | 95 | 1013.7 |
| 20260508011355 | 57 | 349 | 0.0 | 0.0 | 0.00 | 1.31 | 0.61 | 95 | 1013.7 |
| 20260508011255 | 57 | 349 | 0.0 | 0.0 | 0.00 | 1.31 | 0.61 | 95 | 1013.6 |
| 20260508011151 | 57 | 349 | 0.0 | 0.0 | 0.00 | 1.31 | 0.61 | 95 | 1013.5 |
| 20260508011057 | 57 | 349 | 0.0 | 0.0 | 0.00 | 1.31 | 0.61 | 95 | 1013.6 |
| 20260508010957 | 57 | 349 | 0.0 | 0.0 | 0.00 | 1.31 | 0.61 | 95 | 1013.6 |
| 20260508010857 | 57 | 349 | 0.0 | 0.0 | 0.00 | 1.31 | 0.61 | 95 | 1013.6 |
| 20260508010757 | 57 | 349 | 0.0 | 0.0 | 0.00 | 1.31 | 0.61 | 95 | 1013.5 |
| 20260508010655 | 57 | 349 | 0.0 | 0.0 | 0.00 | 1.31 | 0.61 | 95 | 1013.4 |
| 20260508010554 | 57 | 349 | 0.0 | 0.0 | 0.00 | 1.31 | 0.61 | 95 | 1013.4 |
| 20260508010453 | 57 | 349 | 0.0 | 0.0 | 0.00 | 1.31 | 0.61 | 95 | 1013.4 |
| 20260508010355 | 57 | 349 | 0.0 | 0.0 | 0.00 | 1.31 | 0.61 | 95 | 1013.4 |
| 20260508010254 | 57 | 349 | 0.0 | 0.0 | 0.00 | 1.31 | 0.61 | 95 | 1013.3 |
| 20260508010221 | 57 | 349 | 0.0 | 0.0 | 0.00 | 1.31 | 0.61 | 95 | 1013.3 |
| 20260508010009 | 57 | 349 | 0.0 | 0.0 | 0.00 | 1.31 | 0.61 | 95 | 1013.3 |
| 20260508005848 | 57 | 349 | 0.0 | 0.0 | 0.00 | 1.31 | 0.61 | 95 | 1013.3 |
| 20260508005753 | 57 | 349 | 0.0 | 0.0 | 0.00 | 1.31 | 0.61 | 95 | 1013.3 |
| 20260508005655 | 57 | 349 | 0.0 | 0.0 | 0.00 | 1.31 | 0.61 | 95 | 1013.3 |
| 20260508005555 | 57 | 349 | 0.0 | 0.0 | 0.00 | 1.31 | 0.61 | 95 | 1013.3 |
| 20260508005453 | 57 | 349 | 0.0 | 0.0 | 0.00 | 1.31 | 0.61 | 95 | 1013.2 |
| 20260508005354 | 57 | 349 | 0.0 | 0.0 | 0.00 | 1.31 | 0.61 | 95 | 1013.1 |
| 20260508005252 | 57 | 349 | 0.0 | 0.0 | 0.00 | 1.31 | 0.61 | 95 | 1013.1 |
| 20260508005212 | 57 | 349 | 0.0 | 0.0 | 0.00 | 1.31 | 0.61 | 95 | 1013.1 |
| 20260508005056 | 57 | 349 | 0.0 | 0.0 | 0.00 | 1.31 | 0.61 | 95 | 1013.1 |
| 20260508004957 | 57 | 349 | 0.0 | 0.0 | 0.00 | 1.31 | 0.61 | 95 | 1013.0 |
| 20260508004855 | 57 | 349 | 0.0 | 0.0 | 0.00 | 1.31 | 0.61 | 95 | 1012.9 |
| 20260508004756 | 57 | 349 | 0.0 | 0.0 | 0.00 | 1.31 | 0.61 | 95 | 1012.9 |
| 20260508004656 | 57 | 349 | 0.0 | 0.0 | 0.00 | 1.31 | 0.61 | 95 | 1012.9 |
| 20260508004613 | 56 | 349 | 0.0 | 0.0 | 0.00 | 1.31 | 0.61 | 95 | 1012.2 |
| 20260508004556 | 57 | 349 | 0.0 | 0.0 | 0.00 | 1.31 | 0.61 | 95 | 1012.9 |
| 20260508004456 | 57 | 348 | 0.0 | 0.0 | 0.00 | 1.31 | 0.61 | 95 | 1012.9 |
| 20260508004341 | 57 | 348 | 0.0 | 0.0 | 0.00 | 1.31 | 0.61 | 95 | 1012.8 |
| 20260508004301 | 57 | 348 | 0.0 | 0.0 | 0.00 | 1.31 | 0.61 | 95 | 1012.8 |
| 20260508004221 | 57 | 348 | 0.0 | 0.0 | 0.00 | 1.31 | 0.61 | 95 | 1012.7 |
| 20260508004118 | 57 | 344 | 0.0 | 0.0 | 0.00 | 1.31 | 0.61 | 95 | 1012.7 |
| 20260508003952 | 57 | 346 | 0.0 | 0.0 | 0.00 | 1.31 | 0.61 | 95 | 1012.7 |
| 20260508003851 | 57 | 348 | 0.0 | 0.0 | 0.00 | 1.31 | 0.61 | 95 | 1012.7 |
| 20260508003813 | 57 | 350 | 0.0 | 0.0 | 0.00 | 1.31 | 0.61 | 95 | 1012.7 |
| 20260508003653 | 57 | 350 | 0.0 | 0.0 | 0.00 | 1.31 | 0.61 | 95 | 1012.7 |
| 20260508003556 | 57 | 338 | 0.0 | 0.0 | 0.00 | 1.31 | 0.61 | 95 | 1012.7 |
| 20260508003457 | 57 | 345 | 0.0 | 0.0 | 0.00 | 1.31 | 0.61 | 95 | 1012.7 |
| 20260508003358 | 57 | 342 | 0.0 | 0.0 | 0.00 | 1.31 | 0.61 | 95 | 1012.6 |
| 20260508003258 | 57 | 349 | 0.0 | 0.0 | 0.00 | 1.31 | 0.61 | 95 | 1012.6 |
| 20260508003157 | 57 | 342 | 0.0 | 0.0 | 0.00 | 1.31 | 0.61 | 95 | 1012.6 |
| 20260508003055 | 57 | 355 | 0.0 | 0.0 | 0.00 | 1.31 | 0.61 | 95 | 1012.6 |
| 20260508003051 | 56 | 351 | 0.0 | 0.0 | 0.00 | 1.31 | 0.61 | 95 | 1012.0 |
| 20260508003013 | 57 | 355 | 0.0 | 0.0 | 0.00 | 1.31 | 0.61 | 95 | 1012.6 |
| 20260508002856 | 57 | 355 | 0.0 | 0.0 | 0.00 | 1.31 | 0.61 | 95 | 1012.6 |
| 20260508002814 | 57 | 17 | 0.0 | 0.0 | 0.00 | 1.31 | 0.61 | 95 | 1012.5 |
| 20260508002653 | 57 | 5 | 0.0 | 0.0 | 0.00 | 1.31 | 0.61 | 95 | 1012.4 |
| 20260508002549 | 57 | 340 | 0.0 | 0.0 | 0.00 | 1.31 | 0.61 | 95 | 1012.5 |
| 20260508002451 | 57 | 351 | 0.0 | 0.0 | 0.00 | 1.31 | 0.61 | 95 | 1012.5 |
| 20260508002351 | 57 | 341 | 0.0 | 0.0 | 0.00 | 1.31 | 0.61 | 95 | 1012.6 |
| 20260508002249 | 57 | 333 | 0.0 | 0.0 | 0.00 | 1.31 | 0.61 | 95 | 1012.6 |
| 20260508002154 | 57 | 331 | 0.0 | 0.0 | 0.00 | 1.31 | 0.61 | 95 | 1012.5 |
| 20260508002054 | 57 | 350 | 0.0 | 0.0 | 0.00 | 1.31 | 0.61 | 95 | 1012.5 |
| 20260508002014 | 57 | 350 | 0.0 | 0.0 | 0.00 | 1.31 | 0.61 | 95 | 1012.4 |
| 20260508001853 | 57 | 351 | 0.0 | 0.0 | 0.00 | 1.31 | 0.61 | 95 | 1012.5 |
| 20260508001753 | 57 | 360 | 0.0 | 0.0 | 0.00 | 1.31 | 0.61 | 95 | 1012.5 |
| 20260508001652 | 57 | 345 | 0.0 | 0.0 | 0.00 | 1.31 | 0.61 | 95 | 1012.5 |
| 20260508001553 | 57 | 349 | 0.0 | 0.0 | 0.00 | 1.31 | 0.61 | 95 | 1012.5 |
| 20260508001514 | 56 | 355 | 0.0 | 0.0 | 0.00 | 1.31 | 0.61 | 95 | 1011.7 |
| 20260508001452 | 57 | 355 | 0.0 | 0.0 | 0.00 | 1.31 | 0.61 | 95 | 1012.4 |
| 20260508001352 | 57 | 309 | 0.0 | 0.0 | 0.00 | 1.31 | 0.61 | 95 | 1012.3 |
| 20260508001252 | 57 | 355 | 0.0 | 0.0 | 0.00 | 1.31 | 0.61 | 95 | 1012.3 |
| 20260508001153 | 57 | 360 | 0.0 | 0.0 | 0.00 | 1.31 | 0.61 | 95 | 1012.3 |
| 20260508001052 | 57 | 5 | 0.0 | 0.0 | 0.00 | 1.31 | 0.61 | 95 | 1012.2 |
| 20260508000952 | 57 | 355 | 0.0 | 0.0 | 0.00 | 1.31 | 0.61 | 95 | 1012.3 |
| 20260508000853 | 57 | 347 | 0.0 | 0.0 | 0.00 | 1.31 | 0.61 | 95 | 1012.4 |
| 20260508000815 | 57 | 5 | 0.0 | 0.0 | 0.00 | 1.31 | 0.61 | 95 | 1012.4 |
| 20260508000651 | 57 | 355 | 0.0 | 0.0 | 0.00 | 1.31 | 0.61 | 95 | 1012.4 |
| 20260508000551 | 57 | 355 | 0.0 | 0.0 | 0.00 | 1.31 | 0.61 | 95 | 1012.4 |
| 20260508000451 | 57 | 344 | 0.0 | 0.0 | 0.01 | 1.31 | 0.61 | 94 | 1012.4 |
| 20260508000412 | 57 | 339 | 0.0 | 0.0 | 0.01 | 1.31 | 0.61 | 94 | 1012.3 |
| 20260508000250 | 57 | 348 | 0.0 | 0.0 | 0.01 | 1.31 | 0.61 | 95 | 1012.1 |
| 20260508000219 | 57 | 348 | 0.0 | 0.0 | 0.01 | 1.31 | 0.61 | 95 | 1012.1 |
| 20260507235944 | 57 | 360 | 0.0 | 0.0 | 0.01 | 1.31 | 0.61 | 95 | 1011.8 |
| 20260507235844 | 57 | 355 | 0.0 | 0.0 | 0.01 | 1.31 | 0.61 | 95 | 1011.7 |
| 20260507235741 | 57 | 355 | 0.0 | 0.0 | 0.01 | 1.31 | 0.61 | 95 | 1011.7 |
| 20260507235641 | 57 | 9 | 0.0 | 0.0 | 0.02 | 1.31 | 0.61 | 95 | 1011.6 |
| 20260507235540 | 57 | 348 | 0.0 | 0.0 | 0.02 | 1.31 | 0.61 | 95 | 1011.7 |
| 20260507235443 | 57 | 5 | 0.0 | 0.0 | 0.02 | 1.31 | 0.61 | 95 | 1011.6 |
| 20260507235345 | 57 | 11 | 0.0 | 0.0 | 0.03 | 1.31 | 0.61 | 95 | 1011.6 |
| 20260507235247 | 57 | 33 | 0.0 | 0.0 | 0.03 | 1.31 | 0.61 | 94 | 1011.6 |
| 20260507235148 | 57 | 5 | 0.0 | 0.0 | 0.03 | 1.31 | 0.61 | 95 | 1011.5 |
| 20260507235047 | 57 | 342 | 0.0 | 0.0 | 0.03 | 1.31 | 0.61 | 95 | 1011.4 |
| 20260507234948 | 57 | 27 | 0.0 | 0.0 | 0.04 | 1.31 | 0.61 | 95 | 1011.4 |
| 20260507234849 | 57 | 360 | 0.0 | 0.0 | 0.04 | 1.31 | 0.61 | 94 | 1011.4 |
| 20260507234816 | 57 | 27 | 0.0 | 0.0 | 0.04 | 1.31 | 0.61 | 94 | 1011.5 |
| 20260507234655 | 57 | 343 | 0.0 | 0.0 | 0.05 | 1.31 | 0.61 | 94 | 1011.5 |
| 20260507234556 | 57 | 34 | 0.0 | 0.0 | 0.05 | 1.31 | 0.61 | 94 | 1011.6 |
| 20260507234528 | 57 | 5 | 0.0 | 0.0 | 0.05 | 1.31 | 0.61 | 94 | 1010.9 |
| 20260507234455 | 57 | 17 | 0.0 | 0.0 | 0.05 | 1.31 | 0.61 | 94 | 1011.7 |
| 20260507234359 | 57 | 5 | 0.0 | 0.0 | 0.05 | 1.31 | 0.61 | 95 | 1011.6 |
| 20260507234319 | 57 | 46 | 0.0 | 0.0 | 0.05 | 1.31 | 0.61 | 95 | 1011.6 |
| 20260507234159 | 57 | 355 | 0.0 | 0.0 | 0.06 | 1.31 | 0.61 | 95 | 1011.6 |
| 20260507234044 | 57 | 350 | 0.0 | 0.0 | 0.06 | 1.31 | 0.61 | 95 | 1011.5 |
| 20260507233943 | 57 | 5 | 0.0 | 0.0 | 0.06 | 1.31 | 0.61 | 95 | 1011.6 |
| 20260507233846 | 57 | 355 | 0.0 | 0.0 | 0.07 | 1.31 | 0.61 | 95 | 1011.6 |
| 20260507233746 | 57 | 355 | 0.0 | 0.0 | 0.07 | 1.31 | 0.61 | 95 | 1011.6 |
| 20260507233648 | 58 | 5 | 0.0 | 0.0 | 0.07 | 1.31 | 0.61 | 95 | 1011.7 |
| 20260507233547 | 57 | 344 | 0.0 | 0.0 | 0.08 | 1.31 | 0.61 | 95 | 1011.6 |
| 20260507233452 | 57 | 334 | 0.0 | 0.0 | 0.08 | 1.31 | 0.61 | 95 | 1011.6 |
| 20260507233353 | 57 | 29 | 0.0 | 0.0 | 0.08 | 1.31 | 0.61 | 95 | 1011.6 |
| 20260507233254 | 58 | 5 | 0.0 | 0.0 | 0.08 | 1.31 | 0.61 | 95 | 1011.5 |
| 20260507233156 | 58 | 355 | 0.0 | 0.0 | 0.08 | 1.31 | 0.61 | 95 | 1011.6 |
| 20260507233127 | 57 | 11 | 0.0 | 0.0 | 0.09 | 1.31 | 0.61 | 95 | 1010.9 |
| 20260507233057 | 58 | 355 | 0.0 | 0.0 | 0.09 | 1.31 | 0.61 | 95 | 1011.6 |
| 20260507233019 | 58 | 360 | 0.0 | 0.0 | 0.09 | 1.31 | 0.61 | 95 | 1011.7 |
| 20260507232839 | 58 | 5 | 0.0 | 0.0 | 0.10 | 1.31 | 0.61 | 95 | 1011.7 |
| 20260507232804 | 58 | 360 | 0.0 | 0.0 | 0.10 | 1.31 | 0.61 | 95 | 1011.6 |
| 20260507232643 | 58 | 5 | 0.0 | 0.0 | 0.10 | 1.31 | 0.61 | 95 | 1011.7 |
| 20260507232543 | 58 | 5 | 0.0 | 0.0 | 0.11 | 1.31 | 0.61 | 95 | 1011.7 |
| 20260507232445 | 58 | 5 | 0.0 | 0.0 | 0.11 | 1.31 | 0.61 | 95 | 1011.7 |
| 20260507232345 | 58 | 5 | 0.0 | 0.0 | 0.12 | 1.31 | 0.61 | 95 | 1011.7 |
| 20260507232246 | 58 | 5 | 0.0 | 0.0 | 0.12 | 1.31 | 0.61 | 95 | 1011.7 |
| 20260507232147 | 58 | 5 | 0.0 | 0.0 | 0.13 | 1.31 | 0.61 | 95 | 1011.7 |
| 20260507232051 | 58 | 5 | 0.0 | 0.0 | 0.14 | 1.31 | 0.61 | 95 | 1011.7 |
| 20260507231951 | 58 | 5 | 0.0 | 0.0 | 0.15 | 1.31 | 0.61 | 95 | 1011.6 |
| 20260507231853 | 58 | 5 | 0.0 | 0.0 | 0.16 | 1.31 | 0.61 | 95 | 1011.6 |
| 20260507231754 | 58 | 282 | 0.0 | 0.0 | 0.16 | 1.31 | 0.61 | 95 | 1011.4 |
| 20260507231653 | 58 | 281 | 0.0 | 0.0 | 0.17 | 1.31 | 0.61 | 95 | 1011.4 |
| 20260507231613 | 58 | 281 | 0.0 | 0.0 | 0.17 | 1.31 | 0.61 | 95 | 1011.4 |
| 20260507231516 | 57 | 331 | 0.0 | 0.0 | 0.17 | 1.31 | 0.61 | 95 | 1010.6 |
| 20260507231452 | 58 | 327 | 0.0 | 0.0 | 0.17 | 1.31 | 0.61 | 95 | 1011.3 |
| 20260507231413 | 58 | 360 | 0.0 | 0.0 | 0.17 | 1.31 | 0.61 | 95 | 1011.1 |
| 20260507231257 | 58 | 355 | 0.0 | 0.0 | 0.17 | 1.31 | 0.61 | 95 | 1011.1 |
| 20260507231157 | 58 | 351 | 0.0 | 0.0 | 0.18 | 1.31 | 0.61 | 95 | 1011.1 |
| 20260507231056 | 58 | 355 | 0.0 | 0.0 | 0.18 | 1.31 | 0.61 | 95 | 1011.1 |
| 20260507230957 | 58 | 336 | 0.0 | 0.0 | 0.18 | 1.31 | 0.61 | 95 | 1011.0 |
| 20260507230918 | 58 | 13 | 0.0 | 0.0 | 0.19 | 1.31 | 0.61 | 95 | 1011.0 |
| 20260507230818 | 58 | 342 | 0.0 | 0.0 | 0.20 | 1.31 | 0.61 | 95 | 1011.1 |
| 20260507230719 | 58 | 355 | 0.0 | 0.0 | 0.20 | 1.31 | 0.61 | 95 | 1011.1 |
| 20260507230558 | 58 | 334 | 0.0 | 0.0 | 0.20 | 1.30 | 0.60 | 95 | 1011.0 |
| 20260507230519 | 58 | 340 | 0.0 | 0.0 | 0.21 | 1.30 | 0.60 | 95 | 1010.9 |
| 20260507230344 | 58 | 355 | 0.0 | 0.0 | 0.22 | 1.30 | 0.60 | 95 | 1010.8 |
| 20260507230244 | 58 | 5 | 0.0 | 0.0 | 0.24 | 1.30 | 0.60 | 95 | 1010.8 |
| 20260507230213 | 58 | 5 | 0.0 | 0.0 | 0.24 | 1.30 | 0.60 | 95 | 1010.7 |
| 20260507225940 | 58 | 335 | 0.0 | 0.0 | 0.25 | 1.30 | 0.60 | 95 | 1010.7 |
| 20260507225859 | 58 | 340 | 0.0 | 0.0 | 0.26 | 1.30 | 0.60 | 95 | 1010.8 |
| 20260507225803 | 58 | 348 | 0.0 | 0.0 | 0.25 | 1.29 | 0.59 | 94 | 1010.8 |
| 20260507225642 | 58 | 355 | 0.0 | 0.0 | 0.25 | 1.29 | 0.59 | 94 | 1010.9 |
| 20260507225542 | 58 | 355 | 0.0 | 0.0 | 0.26 | 1.29 | 0.59 | 95 | 1011.0 |
| 20260507225444 | 58 | 360 | 0.0 | 0.0 | 0.26 | 1.29 | 0.59 | 94 | 1011.0 |
| 20260507225343 | 58 | 346 | 0.0 | 0.0 | 0.26 | 1.28 | 0.58 | 94 | 1011.0 |
| 20260507225243 | 58 | 5 | 0.0 | 0.0 | 0.26 | 1.28 | 0.58 | 95 | 1011.1 |
| 20260507225144 | 58 | 355 | 0.0 | 0.0 | 0.26 | 1.28 | 0.58 | 94 | 1011.2 |
| 20260507225049 | 58 | 5 | 0.0 | 0.0 | 0.26 | 1.27 | 0.57 | 94 | 1011.3 |
| 20260507224950 | 58 | 355 | 0.0 | 0.0 | 0.26 | 1.27 | 0.57 | 94 | 1011.3 |
| 20260507224850 | 58 | 355 | 0.0 | 0.0 | 0.26 | 1.27 | 0.57 | 94 | 1011.2 |
| 20260507224809 | 58 | 9 | 0.0 | 0.0 | 0.26 | 1.27 | 0.57 | 94 | 1011.1 |
| 20260507224709 | 58 | 355 | 0.0 | 0.0 | 0.26 | 1.26 | 0.56 | 94 | 1011.3 |
| 20260507224547 | 58 | 355 | 0.0 | 0.0 | 0.26 | 1.26 | 0.56 | 94 | 1011.3 |
| 20260507224535 | 58 | 5 | 0.0 | 0.0 | 0.26 | 1.26 | 0.56 | 94 | 1010.6 |
| 20260507224446 | 58 | 339 | 0.0 | 0.0 | 0.26 | 1.26 | 0.56 | 94 | 1011.3 |
| 20260507224350 | 58 | 355 | 0.0 | 0.0 | 0.26 | 1.26 | 0.56 | 94 | 1011.3 |
| 20260507224249 | 58 | 360 | 0.0 | 0.0 | 0.26 | 1.26 | 0.56 | 94 | 1011.1 |
| 20260507224150 | 58 | 47 | 0.0 | 0.0 | 0.25 | 1.25 | 0.55 | 94 | 1011.1 |
| 20260507224051 | 58 | 342 | 0.0 | 0.0 | 0.25 | 1.25 | 0.55 | 94 | 1011.0 |
| 20260507223952 | 58 | 5 | 0.0 | 0.0 | 0.24 | 1.24 | 0.54 | 94 | 1011.1 |
| 20260507223852 | 58 | 5 | 0.0 | 0.0 | 0.24 | 1.24 | 0.54 | 94 | 1011.0 |
| 20260507223753 | 58 | 18 | 0.0 | 0.0 | 0.24 | 1.24 | 0.54 | 94 | 1011.0 |
| 20260507223655 | 58 | 355 | 0.0 | 0.0 | 0.24 | 1.24 | 0.54 | 94 | 1011.0 |
| 20260507223556 | 58 | 351 | 0.0 | 0.0 | 0.23 | 1.23 | 0.53 | 94 | 1011.1 |
| 20260507223457 | 58 | 5 | 0.0 | 0.0 | 0.23 | 1.23 | 0.53 | 94 | 1011.1 |
| 20260507223357 | 58 | 5 | 0.0 | 0.0 | 0.23 | 1.23 | 0.53 | 94 | 1011.1 |
| 20260507223258 | 58 | 14 | 0.0 | 0.0 | 0.23 | 1.23 | 0.53 | 94 | 1011.1 |
| 20260507223157 | 58 | 355 | 0.0 | 0.0 | 0.22 | 1.22 | 0.52 | 94 | 1011.2 |
| 20260507223102 | 59 | 13 | 0.0 | 0.0 | 0.22 | 1.22 | 0.52 | 94 | 1011.2 |
| 20260507223009 | 58 | 351 | 0.0 | 0.0 | 0.22 | 1.22 | 0.52 | 94 | 1010.5 |
| 20260507222942 | 59 | 5 | 0.0 | 0.0 | 0.21 | 1.21 | 0.51 | 94 | 1011.3 |
| 20260507222843 | 59 | 355 | 0.0 | 0.0 | 0.21 | 1.21 | 0.51 | 94 | 1011.2 |
| 20260507222744 | 59 | 342 | 0.0 | 0.0 | 0.21 | 1.21 | 0.51 | 94 | 1011.3 |
| 20260507222645 | 59 | 349 | 0.0 | 0.0 | 0.20 | 1.20 | 0.50 | 94 | 1011.2 |
| 20260507222545 | 59 | 360 | 0.0 | 0.0 | 0.20 | 1.20 | 0.50 | 94 | 1011.1 |
| 20260507222506 | 59 | 5 | 0.0 | 0.0 | 0.20 | 1.20 | 0.50 | 94 | 1011.2 |
| 20260507222350 | 59 | 346 | 0.0 | 0.0 | 0.19 | 1.19 | 0.49 | 94 | 1011.3 |
| 20260507222250 | 59 | 342 | 0.0 | 0.0 | 0.18 | 1.18 | 0.48 | 94 | 1011.3 |
| 20260507222152 | 59 | 325 | 0.0 | 0.0 | 0.18 | 1.18 | 0.48 | 94 | 1011.3 |
| 20260507222114 | 59 | 343 | 0.0 | 0.0 | 0.17 | 1.17 | 0.47 | 94 | 1011.1 |
| 20260507221953 | 59 | 5 | 0.0 | 0.0 | 0.16 | 1.16 | 0.46 | 94 | 1010.9 |
| 20260507221854 | 59 | 9 | 0.0 | 0.0 | 0.15 | 1.15 | 0.45 | 94 | 1010.7 |
| 20260507221756 | 59 | 5 | 0.0 | 0.0 | 0.14 | 1.14 | 0.44 | 94 | 1010.7 |
| 20260507221716 | 59 | 27 | 0.0 | 0.0 | 0.14 | 1.14 | 0.44 | 94 | 1010.9 |
| 20260507221559 | 59 | 331 | 0.0 | 0.0 | 0.14 | 1.14 | 0.44 | 94 | 1011.0 |
| 20260507221503 | 58 | 348 | 0.0 | 0.0 | 0.14 | 1.13 | 0.44 | 94 | 1010.1 |
| 20260507221440 | 59 | 355 | 0.0 | 0.0 | 0.14 | 1.14 | 0.44 | 93 | 1010.8 |
| 20260507221341 | 59 | 5 | 0.0 | 0.0 | 0.14 | 1.14 | 0.44 | 93 | 1010.5 |
| 20260507221203 | 59 | 355 | 0.0 | 0.0 | 0.13 | 1.13 | 0.43 | 93 | 1010.3 |
| 20260507221045 | 59 | 341 | 0.0 | 0.0 | 0.13 | 1.13 | 0.43 | 93 | 1010.4 |
| 20260507220951 | 59 | 351 | 0.0 | 0.0 | 0.12 | 1.12 | 0.42 | 93 | 1010.5 |
| 20260507220851 | 59 | 347 | 0.0 | 0.0 | 0.12 | 1.12 | 0.42 | 93 | 1010.1 |
| 20260507220752 | 59 | 355 | 0.0 | 0.0 | 0.11 | 1.11 | 0.41 | 93 | 1009.9 |
| 20260507220654 | 59 | 344 | 0.0 | 0.0 | 0.10 | 1.10 | 0.40 | 93 | 1009.8 |
| 20260507220555 | 59 | 355 | 0.0 | 0.0 | 0.09 | 1.09 | 0.39 | 93 | 1009.7 |
| 20260507220515 | 59 | 342 | 0.0 | 0.0 | 0.08 | 1.08 | 0.38 | 93 | 1009.6 |
| 20260507220356 | 59 | 355 | 0.0 | 0.0 | 0.06 | 1.06 | 0.36 | 92 | 1009.5 |
| 20260507220304 | 60 | 355 | 0.0 | 0.0 | 0.06 | 1.06 | 0.36 | 92 | 1009.6 |
| 20260507220231 | 60 | 355 | 0.0 | 0.0 | 0.06 | 1.06 | 0.36 | 92 | 1009.6 |
| 20260507215940 | 60 | 9 | 0.0 | 0.0 | 0.05 | 1.05 | 0.35 | 92 | 1010.1 |
| 20260507215841 | 60 | 360 | 0.0 | 0.0 | 0.05 | 1.05 | 0.35 | 92 | 1010.3 |
| 20260507215744 | 60 | 355 | 0.0 | 0.0 | 0.04 | 1.04 | 0.34 | 92 | 1010.4 |
| 20260507215709 | 60 | 9 | 0.0 | 0.0 | 0.04 | 1.04 | 0.34 | 92 | 1010.4 |
| 20260507215609 | 60 | 350 | 0.0 | 0.0 | 0.04 | 1.04 | 0.34 | 92 | 1010.2 |
| 20260507215449 | 60 | 11 | 0.0 | 0.0 | 0.03 | 1.03 | 0.33 | 92 | 1010.2 |
| 20260507215350 | 60 | 28 | 0.0 | 0.0 | 0.02 | 1.02 | 0.32 | 92 | 1010.0 |
| 20260507215251 | 60 | 30 | 0.0 | 0.0 | 0.02 | 1.02 | 0.32 | 92 | 1010.0 |
| 20260507215213 | 60 | 346 | 0.0 | 0.0 | 0.02 | 1.02 | 0.32 | 92 | 1009.8 |
| 20260507215053 | 61 | 5 | 0.0 | 0.0 | 0.01 | 1.01 | 0.31 | 92 | 1009.7 |
| 20260507214953 | 61 | 311 | 0.0 | 0.0 | 0.01 | 1.01 | 0.31 | 92 | 1009.5 |
| 20260507214839 | 61 | 341 | 0.0 | 0.0 | 0.01 | 1.01 | 0.31 | 91 | 1009.6 |
| 20260507214741 | 61 | 355 | 0.0 | 0.0 | 0.01 | 1.01 | 0.31 | 91 | 1009.5 |
| 20260507214643 | 61 | 355 | 0.0 | 0.0 | 0.00 | 1.00 | 0.30 | 91 | 1009.6 |
| 20260507214543 | 61 | 23 | 0.0 | 0.0 | 0.00 | 1.00 | 0.30 | 91 | 1009.6 |
| 20260507214517 | 60 | 360 | 0.0 | 0.0 | 0.00 | 1.00 | 0.30 | 91 | 1008.9 |
| 20260507214446 | 61 | 5 | 0.0 | 0.0 | 0.00 | 1.00 | 0.30 | 91 | 1009.7 |
| 20260507214406 | 61 | 360 | 0.0 | 0.0 | 0.00 | 1.00 | 0.30 | 92 | 1009.5 |
| 20260507214246 | 61 | 339 | 0.0 | 0.0 | 0.00 | 1.00 | 0.30 | 91 | 1009.5 |
| 20260507214151 | 61 | 355 | 0.0 | 0.0 | 0.00 | 1.00 | 0.30 | 91 | 1009.5 |
| 20260507214113 | 61 | 336 | 0.0 | 0.0 | 0.00 | 1.00 | 0.30 | 91 | 1009.5 |
| 20260507213953 | 61 | 26 | 0.0 | 0.0 | 0.00 | 1.00 | 0.30 | 91 | 1009.2 |
| 20260507213916 | 61 | 337 | 0.0 | 0.0 | 0.00 | 1.00 | 0.30 | 91 | 1009.1 |
| 20260507213755 | 61 | 342 | 0.0 | 0.0 | 0.00 | 1.00 | 0.30 | 91 | 1008.9 |
| 20260507213655 | 61 | 38 | 0.0 | 0.0 | 0.00 | 1.00 | 0.30 | 91 | 1008.7 |
| 20260507213554 | 62 | 338 | 0.0 | 0.0 | 0.00 | 1.00 | 0.30 | 91 | 1008.7 |
| 20260507213457 | 62 | 334 | 0.0 | 0.0 | 0.00 | 1.00 | 0.30 | 90 | 1008.7 |
| 20260507213419 | 62 | 355 | 0.0 | 0.0 | 0.00 | 1.00 | 0.30 | 90 | 1008.9 |
| 20260507213256 | 62 | 355 | 0.0 | 0.0 | 0.00 | 1.00 | 0.30 | 90 | 1009.0 |
| 20260507212753 | 62 | 345 | 0.0 | 0.0 | 0.00 | 1.00 | 0.30 | 89 | 1009.1 |
| 20260507212713 | 62 | 355 | 0.0 | 0.0 | 0.00 | 1.00 | 0.30 | 89 | 1009.2 |
| 20260507212555 | 62 | 349 | 0.0 | 0.0 | 0.00 | 1.00 | 0.30 | 89 | 1009.3 |
| 20260507212455 | 62 | 5 | 0.0 | 0.0 | 0.00 | 1.00 | 0.30 | 88 | 1009.2 |
| 20260507212354 | 63 | 5 | 0.0 | 0.0 | 0.00 | 1.00 | 0.30 | 88 | 1009.2 |
| 20260507212252 | 63 | 335 | 0.0 | 0.0 | 0.00 | 1.00 | 0.30 | 87 | 1009.3 |
| 20260507212153 | 63 | 355 | 0.0 | 0.0 | 0.00 | 1.00 | 0.30 | 87 | 1009.3 |
| 20260507212052 | 63 | 333 | 0.0 | 0.0 | 0.00 | 1.00 | 0.30 | 87 | 1009.2 |
| 20260507211956 | 63 | 355 | 0.0 | 0.0 | 0.00 | 1.00 | 0.30 | 87 | 1009.3 |
| 20260507211916 | 63 | 355 | 0.0 | 0.0 | 0.00 | 1.00 | 0.30 | 87 | 1009.5 |
| 20260507211814 | 63 | 15 | 0.0 | 0.0 | 0.00 | 1.00 | 0.30 | 87 | 1009.5 |
| 20260507211652 | 63 | 360 | 0.0 | 0.0 | 0.00 | 1.00 | 0.30 | 87 | 1009.4 |
| 20260507211552 | 63 | 5 | 0.0 | 0.0 | 0.00 | 1.00 | 0.30 | 86 | 1009.2 |
| 20260507211543 | 63 | 355 | 0.0 | 0.0 | 0.00 | 1.00 | 0.30 | 86 | 1008.5 |
| 20260507211451 | 63 | 10 | 0.0 | 0.0 | 0.00 | 1.00 | 0.30 | 86 | 1009.2 |
| 20260507211350 | 64 | 331 | 0.0 | 0.0 | 0.00 | 1.00 | 0.30 | 86 | 1009.2 |
| 20260507211309 | 64 | 355 | 0.0 | 0.0 | 0.00 | 1.00 | 0.30 | 86 | 1009.1 |
| 20260507211151 | 64 | 338 | 0.0 | 0.0 | 0.00 | 1.00 | 0.30 | 85 | 1009.1 |
| 20260507211110 | 64 | 9 | 0.0 | 0.0 | 0.00 | 1.00 | 0.30 | 84 | 1009.2 |
| 20260507210948 | 65 | 346 | 0.0 | 0.0 | 0.00 | 1.00 | 0.30 | 84 | 1009.2 |
| 20260507210847 | 65 | 341 | 0.0 | 0.0 | 0.00 | 1.00 | 0.30 | 84 | 1009.2 |
| 20260507210806 | 65 | 360 | 0.0 | 0.0 | 0.00 | 1.00 | 0.30 | 84 | 1009.4 |
| 20260507210646 | 66 | 334 | 0.0 | 0.0 | 0.00 | 1.00 | 0.30 | 84 | 1009.5 |
| 20260507210604 | 66 | 321 | 0.0 | 0.0 | 0.00 | 1.00 | 0.30 | 84 | 1009.5 |
| 20260507210526 | 66 | 348 | 0.0 | 0.0 | 0.00 | 1.00 | 0.30 | 83 | 1009.4 |
| 20260507210244 | 68 | 343 | 0.0 | 0.0 | 0.00 | 1.00 | 0.30 | 82 | 1009.1 |
| 20260507210214 | 68 | 343 | 0.0 | 0.0 | 0.00 | 1.00 | 0.30 | 82 | 1009.1 |
| 20260507210014 | 68 | 355 | 0.0 | 0.0 | 0.00 | 1.00 | 0.30 | 81 | 1008.3 |
| 20260507210001 | 69 | 333 | 0.0 | 0.0 | 0.00 | 1.00 | 0.30 | 80 | 1009.1 |
| 20260507205859 | 69 | 316 | 0.0 | 0.0 | 0.00 | 1.00 | 0.30 | 79 | 1009.1 |
| 20260507205758 | 70 | 348 | 0.0 | 0.0 | 0.00 | 1.00 | 0.30 | 79 | 1009.1 |
| 20260507205658 | 71 | 321 | 0.0 | 0.0 | 0.00 | 1.00 | 0.30 | 77 | 1009.0 |
| 20260507205617 | 72 | 355 | 0.0 | 0.0 | 0.00 | 1.00 | 0.30 | 76 | 1008.9 |
| 20260507205459 | 73 | 360 | 0.0 | 0.0 | 0.00 | 1.00 | 0.30 | 75 | 1008.9 |
| 20260507205358 | 74 | 351 | 0.0 | 0.0 | 0.00 | 1.00 | 0.30 | 74 | 1008.7 |
| 20260507205257 | 75 | 355 | 0.0 | 0.0 | 0.00 | 1.00 | 0.30 | 73 | 1008.6 |
| 20260507205156 | 75 | 34 | 0.0 | 0.0 | 0.00 | 1.00 | 0.30 | 74 | 1008.4 |
| 20260507205116 | 75 | 53 | 0.0 | 0.0 | 0.00 | 1.00 | 0.30 | 77 | 1008.4 |
| 20260507204954 | 75 | 53 | 0.0 | 0.0 | 0.00 | 1.00 | 0.30 | 76 | 1008.2 |
| 20260507204853 | 75 | 53 | 0.0 | 0.0 | 0.00 | 1.00 | 0.30 | 75 | 1008.2 |
| 20260507204755 | 75 | 53 | 0.0 | 0.0 | 0.00 | 1.00 | 0.30 | 75 | 1008.2 |
| 20260507204655 | 75 | 53 | 0.0 | 0.0 | 0.00 | 1.00 | 0.30 | 75 | 1008.2 |
| 20260507204554 | 75 | 53 | 0.0 | 0.0 | 0.00 | 1.00 | 0.30 | 76 | 1008.2 |
| 20260507204508 | 74 | 53 | 0.0 | 0.0 | 0.00 | 1.00 | 0.30 | 77 | 1007.4 |
| 20260507204453 | 75 | 53 | 0.0 | 0.0 | 0.00 | 1.00 | 0.30 | 77 | 1008.3 |
| 20260507204353 | 75 | 53 | 0.0 | 0.0 | 0.00 | 1.00 | 0.30 | 77 | 1008.3 |
| 20260507204251 | 75 | 54 | 0.0 | 0.0 | 0.00 | 1.00 | 0.30 | 78 | 1008.3 |
| 20260507204150 | 75 | 54 | 0.0 | 0.0 | 0.00 | 1.00 | 0.30 | 78 | 1008.4 |
| 20260507204056 | 75 | 54 | 0.0 | 0.0 | 0.00 | 1.00 | 0.30 | 75 | 1008.3 |
| 20260507204015 | 75 | 54 | 0.0 | 0.0 | 0.00 | 1.00 | 0.30 | 76 | 1008.3 |
| 20260507203851 | 75 | 54 | 0.0 | 0.0 | 0.00 | 1.00 | 0.30 | 77 | 1008.3 |
| 20260507203751 | 75 | 233 | 0.0 | 0.0 | 0.00 | 1.00 | 0.30 | 80 | 1008.3 |
| 20260507203649 | 75 | 233 | 0.0 | 0.0 | 0.00 | 1.00 | 0.30 | 79 | 1008.3 |
| 20260507203547 | 75 | 240 | 0.0 | 0.0 | 0.00 | 1.00 | 0.30 | 81 | 1008.2 |
| 20260507203507 | 75 | 259 | 0.0 | 0.0 | 0.00 | 1.00 | 0.30 | 82 | 1008.3 |
| 20260507203348 | 75 | 281 | 0.0 | 0.0 | 0.00 | 1.00 | 0.30 | 79 | 1008.3 |
| 20260507203249 | 74 | 281 | 0.0 | 0.0 | 0.00 | 1.00 | 0.30 | 77 | 1008.2 |
| 20260507203146 | 74 | 281 | 0.0 | 0.0 | 0.00 | 1.00 | 0.30 | 79 | 1008.3 |
| 20260507203047 | 74 | 136 | 0.0 | 0.0 | 0.00 | 1.00 | 0.30 | 77 | 1008.3 |
| 20260507203023 | 74 | 136 | 0.0 | 0.0 | 0.00 | 1.00 | 0.30 | 77 | 1007.5 |
| 20260507202946 | 74 | 137 | 0.0 | 0.0 | 0.00 | 1.00 | 0.30 | 77 | 1008.3 |
| 20260507202844 | 74 | 137 | 0.0 | 0.0 | 0.00 | 1.00 | 0.30 | 79 | 1008.3 |
| 20260507202745 | 74 | 44 | 0.0 | 0.0 | 0.00 | 1.00 | 0.30 | 80 | 1008.3 |
| 20260507202648 | 74 | 44 | 0.0 | 0.0 | 0.00 | 1.00 | 0.30 | 80 | 1008.3 |
| 20260507202608 | 74 | 145 | 0.0 | 0.0 | 0.00 | 1.00 | 0.30 | 79 | 1008.3 |
| 20260507202447 | 74 | 145 | 0.0 | 0.0 | 0.00 | 1.00 | 0.30 | 81 | 1008.2 |
| 20260507202348 | 75 | 145 | 0.0 | 0.0 | 0.00 | 1.00 | 0.30 | 81 | 1008.3 |
| 20260507202248 | 75 | 92 | 0.0 | 0.0 | 0.00 | 1.00 | 0.30 | 80 | 1008.2 |
| 20260507202148 | 75 | 88 | 0.0 | 0.0 | 0.00 | 1.00 | 0.30 | 81 | 1008.2 |
| 20260507202104 | 75 | 90 | 0.0 | 0.0 | 0.00 | 1.00 | 0.30 | 80 | 1008.1 |
| 20260507201946 | 75 | 89 | 0.0 | 0.0 | 0.00 | 1.00 | 0.30 | 79 | 1008.1 |
| 20260507201842 | 75 | 88 | 0.0 | 0.0 | 0.00 | 1.00 | 0.30 | 80 | 1008.0 |
| 20260507201741 | 75 | 86 | 0.0 | 0.0 | 0.00 | 1.00 | 0.30 | 78 | 1008.0 |
| 20260507201659 | 75 | 86 | 0.0 | 0.0 | 0.00 | 1.00 | 0.30 | 79 | 1008.0 |
| 20260507201557 | 75 | 153 | 0.0 | 0.0 | 0.00 | 1.00 | 0.30 | 79 | 1008.1 |
| 20260507201512 | 74 | 153 | 0.0 | 0.0 | 0.00 | 1.00 | 0.30 | 78 | 1007.2 |
| 20260507201457 | 75 | 153 | 0.0 | 0.0 | 0.00 | 1.00 | 0.30 | 78 | 1008.1 |
| 20260507201357 | 75 | 153 | 0.0 | 0.0 | 0.00 | 1.00 | 0.30 | 78 | 1008.0 |
| 20260507201255 | 75 | 153 | 0.0 | 0.0 | 0.00 | 1.00 | 0.30 | 77 | 1008.0 |
| 20260507201159 | 75 | 140 | 0.0 | 0.0 | 0.00 | 1.00 | 0.30 | 78 | 1008.1 |
| 20260507201117 | 75 | 86 | 0.0 | 0.0 | 0.00 | 1.00 | 0.30 | 78 | 1008.1 |
| 20260507200956 | 75 | 108 | 0.0 | 0.0 | 0.00 | 1.00 | 0.30 | 77 | 1008.1 |
| 20260507200855 | 74 | 130 | 0.0 | 0.0 | 0.00 | 1.00 | 0.30 | 76 | 1008.1 |
| 20260507200749 | 75 | 125 | 0.0 | 0.0 | 0.00 | 1.00 | 0.30 | 80 | 1008.2 |
| 20260507200647 | 75 | 79 | 0.0 | 0.0 | 0.00 | 1.00 | 0.30 | 79 | 1008.1 |
| 20260507200546 | 74 | 308 | 0.0 | 0.0 | 0.00 | 1.00 | 0.30 | 79 | 1008.2 |
| 20260507200450 | 74 | 260 | 0.0 | 0.0 | 0.00 | 1.00 | 0.30 | 78 | 1008.3 |
| 20260507200348 | 74 | 238 | 0.0 | 0.0 | 0.00 | 1.00 | 0.30 | 78 | 1008.3 |
| 20260507200303 | 74 | 238 | 0.0 | 0.0 | 0.00 | 1.00 | 0.30 | 78 | 1008.4 |
| 20260507200230 | 74 | 238 | 0.0 | 0.0 | 0.00 | 1.00 | 0.30 | 78 | 1008.4 |
| 20260507200032 | 74 | 238 | 0.0 | 0.0 | 0.00 | 1.00 | 0.30 | 77 | 1007.6 |
| 20260507200016 | 74 | 129 | 0.0 | 0.0 | 0.00 | 1.00 | 0.30 | 79 | 1008.3 |
| 20260507195914 | 74 | 113 | 0.0 | 0.0 | 0.00 | 1.00 | 0.30 | 78 | 1008.4 |
| 20260507195752 | 74 | 113 | 0.0 | 0.0 | 0.00 | 1.00 | 0.30 | 78 | 1008.4 |
| 20260507195654 | 74 | 109 | 0.0 | 0.0 | 0.00 | 1.00 | 0.30 | 80 | 1008.4 |
| 20260507195552 | 74 | 360 | 0.0 | 0.0 | 0.00 | 1.00 | 0.30 | 80 | 1008.5 |
| 20260507195450 | 74 | 111 | 0.0 | 0.0 | 0.00 | 1.00 | 0.30 | 78 | 1008.5 |
| 20260507195350 | 74 | 111 | 0.0 | 0.0 | 0.00 | 1.00 | 0.30 | 78 | 1008.5 |
| 20260507195250 | 74 | 148 | 0.0 | 0.0 | 0.00 | 1.00 | 0.30 | 79 | 1008.6 |
| 20260507195149 | 74 | 146 | 0.0 | 0.0 | 0.00 | 1.00 | 0.30 | 81 | 1008.6 |
| 20260507195052 | 74 | 142 | 0.0 | 0.0 | 0.00 | 1.00 | 0.30 | 80 | 1008.6 |
| 20260507194952 | 74 | 143 | 0.0 | 0.0 | 0.00 | 1.00 | 0.30 | 82 | 1008.6 |
| 20260507194851 | 74 | 49 | 0.0 | 0.0 | 0.00 | 1.00 | 0.30 | 84 | 1008.7 |
| 20260507194750 | 73 | 186 | 0.0 | 0.0 | 0.00 | 1.00 | 0.30 | 84 | 1008.7 |
| 20260507194650 | 73 | 49 | 0.0 | 0.0 | 0.00 | 1.00 | 0.30 | 84 | 1008.6 |
| 20260507194609 | 73 | 30 | 0.0 | 0.0 | 0.00 | 1.00 | 0.30 | 86 | 1008.7 |
| 20260507194524 | 73 | 30 | 0.0 | 0.0 | 0.00 | 1.00 | 0.30 | 84 | 1007.9 |
| 20260507194508 | 73 | 30 | 0.0 | 0.0 | 0.00 | 1.00 | 0.30 | 84 | 1008.7 |
| 20260507194347 | 73 | 30 | 0.0 | 0.0 | 0.00 | 1.00 | 0.30 | 86 | 1008.7 |
| 20260507194311 | 73 | 162 | 0.0 | 0.0 | 0.00 | 1.00 | 0.30 | 86 | 1008.7 |
| 20260507194148 | 73 | 162 | 0.0 | 0.0 | 0.00 | 1.00 | 0.30 | 85 | 1008.8 |
| 20260507194047 | 73 | 162 | 0.0 | 0.0 | 0.00 | 1.00 | 0.30 | 82 | 1008.7 |
| 20260507194007 | 73 | 126 | 0.0 | 0.0 | 0.00 | 1.00 | 0.30 | 84 | 1008.7 |
| 20260507193844 | 72 | 169 | 0.0 | 0.0 | 0.00 | 1.00 | 0.30 | 86 | 1008.7 |
| 20260507193744 | 72 | 157 | 0.0 | 0.0 | 0.00 | 1.00 | 0.30 | 85 | 1008.7 |
| 20260507193642 | 72 | 152 | 0.0 | 0.0 | 0.00 | 1.00 | 0.30 | 88 | 1008.7 |
| 20260507193544 | 72 | 146 | 0.0 | 0.0 | 0.00 | 1.00 | 0.30 | 89 | 1008.7 |
| 20260507193445 | 72 | 146 | 0.0 | 0.0 | 0.00 | 1.00 | 0.30 | 88 | 1008.7 |
| 20260507193343 | 72 | 146 | 0.0 | 0.0 | 0.00 | 1.00 | 0.30 | 87 | 1008.7 |
| 20260507193303 | 72 | 146 | 0.0 | 0.0 | 0.00 | 1.00 | 0.30 | 85 | 1008.7 |
| 20260507193141 | 72 | 140 | 0.0 | 0.0 | 0.00 | 1.00 | 0.30 | 85 | 1008.8 |
| 20260507193100 | 72 | 257 | 0.0 | 0.0 | 0.00 | 1.00 | 0.30 | 87 | 1008.8 |
| 20260507193044 | 71 | 149 | 0.0 | 0.0 | 0.00 | 1.00 | 0.30 | 87 | 1008.0 |
| 20260507192959 | 72 | 153 | 0.0 | 0.0 | 0.00 | 1.00 | 0.30 | 88 | 1008.8 |
| 20260507192858 | 72 | 153 | 0.0 | 0.0 | 0.00 | 1.00 | 0.30 | 89 | 1008.8 |
| 20260507192816 | 72 | 153 | 0.0 | 0.0 | 0.00 | 1.00 | 0.30 | 88 | 1008.8 |
| 20260507192717 | 72 | 153 | 0.0 | 0.0 | 0.00 | 1.00 | 0.30 | 87 | 1008.9 |
| 20260507192554 | 72 | 153 | 0.0 | 0.0 | 0.00 | 1.00 | 0.30 | 87 | 1008.9 |
| 20260507192452 | 72 | 153 | 0.0 | 0.0 | 0.00 | 1.00 | 0.30 | 86 | 1008.9 |
| 20260507192352 | 72 | 182 | 0.0 | 0.0 | 0.00 | 1.00 | 0.30 | 87 | 1008.9 |
| 20260507192314 | 72 | 182 | 0.0 | 0.0 | 0.00 | 1.00 | 0.30 | 88 | 1008.9 |
| 20260507192234 | 72 | 182 | 0.0 | 0.0 | 0.00 | 1.00 | 0.30 | 87 | 1008.9 |
| 20260507191959 | 72 | 183 | 0.0 | 0.0 | 0.00 | 1.00 | 0.30 | 86 | 1009.0 |
| 20260507191858 | 72 | 184 | 0.0 | 0.0 | 0.00 | 1.02 | 0.30 | 88 | 1009.0 |
| 20260507191740 | 72 | 157 | 0.0 | 0.0 | 0.00 | 1.02 | 0.30 | 88 | 1009.0 |
| 20260507191641 | 72 | 161 | 0.0 | 0.0 | 0.00 | 1.02 | 0.30 | 88 | 1009.0 |
| 20260507191615 | 72 | 162 | 0.0 | 0.0 | 0.00 | 1.02 | 0.30 | 89 | 1008.2 |
| 20260507191601 | 72 | 162 | 0.0 | 0.0 | 0.00 | 1.02 | 0.30 | 89 | 1009.0 |
| 20260507191521 | 72 | 162 | 0.0 | 0.0 | 0.00 | 1.02 | 0.30 | 89 | 1009.0 |
| 20260507191357 | 72 | 162 | 0.0 | 0.0 | 0.00 | 1.02 | 0.30 | 88 | 1009.0 |
| 20260507191257 | 72 | 162 | 0.0 | 0.0 | 0.00 | 1.02 | 0.30 | 88 | 1009.0 |
| 20260507191157 | 72 | 162 | 0.0 | 0.0 | 0.00 | 1.02 | 0.30 | 88 | 1009.1 |
| 20260507191040 | 72 | 162 | 0.0 | 0.0 | 0.00 | 1.02 | 0.30 | 89 | 1009.1 |
| 20260507190958 | 72 | 162 | 0.0 | 0.0 | 0.00 | 1.02 | 0.30 | 89 | 1009.2 |
| 20260507190857 | 72 | 161 | 0.0 | 0.0 | 0.00 | 1.02 | 0.30 | 88 | 1009.2 |
| 20260507190756 | 72 | 115 | 0.0 | 0.0 | 0.00 | 1.02 | 0.30 | 88 | 1009.2 |
| 20260507190718 | 72 | 130 | 0.0 | 0.0 | 0.00 | 1.02 | 0.30 | 88 | 1009.1 |
| 20260507190638 | 72 | 142 | 0.0 | 0.0 | 0.00 | 1.02 | 0.30 | 90 | 1009.1 |
| 20260507190419 | 71 | 348 | 0.0 | 0.0 | 0.00 | 1.02 | 0.30 | 89 | 1009.1 |
| 20260507190232 | 71 | 348 | 0.0 | 0.0 | 0.00 | 1.02 | 0.30 | 89 | 1009.2 |
| 20260507190018 | 71 | 348 | 0.0 | 0.0 | 0.00 | 1.02 | 0.30 | 88 | 1009.3 |
| 20260507185855 | 71 | 5 | 0.0 | 0.0 | 0.01 | 1.02 | 0.30 | 89 | 1009.3 |
| 20260507185813 | 71 | 350 | 0.0 | 0.0 | 0.01 | 1.02 | 0.30 | 90 | 1009.4 |
| 20260507185652 | 71 | 186 | 0.0 | 0.0 | 0.01 | 1.02 | 0.30 | 89 | 1009.3 |
| 20260507185612 | 71 | 70 | 0.0 | 0.0 | 0.01 | 1.02 | 0.30 | 91 | 1009.3 |
| 20260507185450 | 71 | 105 | 0.0 | 0.0 | 0.01 | 1.02 | 0.30 | 90 | 1009.2 |
| 20260507185353 | 71 | 105 | 0.0 | 0.0 | 0.01 | 1.02 | 0.30 | 91 | 1009.2 |
| 20260507185252 | 71 | 105 | 0.0 | 0.0 | 0.01 | 1.02 | 0.30 | 92 | 1009.2 |
| 20260507185152 | 71 | 104 | 0.0 | 0.0 | 0.01 | 1.02 | 0.30 | 92 | 1009.1 |
| 20260507185051 | 70 | 103 | 0.0 | 0.0 | 0.01 | 1.02 | 0.30 | 91 | 1009.1 |
| 20260507184950 | 70 | 93 | 0.0 | 0.0 | 0.01 | 1.02 | 0.30 | 92 | 1009.1 |
| 20260507184848 | 70 | 21 | 0.0 | 0.0 | 0.01 | 1.02 | 0.30 | 92 | 1009.1 |
| 20260507184748 | 70 | 162 | 0.0 | 0.0 | 0.01 | 1.02 | 0.30 | 92 | 1009.2 |
| 20260507184652 | 70 | 164 | 0.0 | 0.0 | 0.01 | 1.02 | 0.30 | 93 | 1009.2 |
| 20260507184606 | 70 | 164 | 0.0 | 0.0 | 0.01 | 1.02 | 0.30 | 93 | 1008.5 |
| 20260507184552 | 70 | 165 | 0.0 | 0.0 | 0.01 | 1.02 | 0.30 | 93 | 1009.2 |
| 20260507184451 | 70 | 165 | 0.0 | 0.0 | 0.01 | 1.02 | 0.30 | 92 | 1009.2 |
| 20260507184351 | 70 | 165 | 0.0 | 0.0 | 0.01 | 1.02 | 0.30 | 92 | 1009.2 |
| 20260507184251 | 70 | 167 | 0.0 | 0.0 | 0.01 | 1.02 | 0.30 | 93 | 1009.2 |
| 20260507184150 | 70 | 355 | 0.0 | 0.0 | 0.01 | 1.02 | 0.30 | 93 | 1009.2 |
| 20260507184053 | 70 | 57 | 0.0 | 0.0 | 0.01 | 1.02 | 0.30 | 92 | 1009.2 |
| 20260507183954 | 70 | 283 | 0.0 | 0.0 | 0.01 | 1.02 | 0.30 | 92 | 1009.3 |
| 20260507183913 | 70 | 283 | 0.0 | 0.0 | 0.01 | 1.02 | 0.30 | 91 | 1009.4 |
| 20260507183751 | 70 | 283 | 0.0 | 0.0 | 0.01 | 1.02 | 0.30 | 91 | 1009.4 |
| 20260507183650 | 70 | 283 | 0.0 | 0.0 | 0.01 | 1.02 | 0.30 | 91 | 1009.4 |
| 20260507183550 | 70 | 302 | 0.0 | 0.0 | 0.01 | 1.02 | 0.30 | 92 | 1009.4 |
| 20260507183447 | 70 | 232 | 0.0 | 0.0 | 0.01 | 1.02 | 0.30 | 93 | 1009.4 |
| 20260507183349 | 70 | 180 | 0.0 | 0.0 | 0.01 | 1.02 | 0.30 | 93 | 1009.4 |
| 20260507183248 | 70 | 125 | 0.0 | 0.0 | 0.01 | 1.02 | 0.30 | 93 | 1009.4 |
| 20260507183207 | 70 | 124 | 0.0 | 0.0 | 0.01 | 1.02 | 0.30 | 93 | 1009.4 |
| 20260507183045 | 70 | 5 | 0.0 | 0.0 | 0.01 | 1.02 | 0.30 | 94 | 1009.4 |
| 20260507183005 | 69 | 5 | 0.0 | 0.0 | 0.01 | 1.02 | 0.30 | 94 | 1008.5 |
| 20260507182940 | 70 | 5 | 0.0 | 0.0 | 0.01 | 1.02 | 0.30 | 94 | 1009.3 |
| 20260507182859 | 69 | 5 | 0.0 | 0.0 | 0.01 | 1.02 | 0.30 | 93 | 1009.4 |
| 20260507182818 | 70 | 348 | 0.0 | 0.0 | 0.01 | 1.02 | 0.30 | 94 | 1009.3 |
| 20260507182656 | 70 | 144 | 0.0 | 0.0 | 0.01 | 1.02 | 0.30 | 94 | 1009.3 |
| 20260507182540 | 69 | 144 | 0.0 | 0.0 | 0.01 | 1.02 | 0.30 | 94 | 1009.4 |
| 20260507182440 | 69 | 143 | 0.0 | 0.0 | 0.01 | 1.02 | 0.30 | 94 | 1009.4 |
| 20260507182339 | 69 | 132 | 0.0 | 0.0 | 0.01 | 1.02 | 0.30 | 94 | 1009.3 |
| 20260507182259 | 69 | 132 | 0.0 | 0.0 | 0.01 | 1.02 | 0.30 | 94 | 1009.4 |
| 20260507182158 | 69 | 81 | 0.0 | 0.0 | 0.01 | 1.02 | 0.30 | 94 | 1009.4 |
| 20260507182056 | 69 | 349 | 0.0 | 0.0 | 0.01 | 1.02 | 0.30 | 94 | 1009.4 |
| 20260507181954 | 69 | 342 | 0.0 | 0.0 | 0.01 | 1.02 | 0.30 | 94 | 1009.4 |
| 20260507181857 | 69 | 162 | 0.0 | 0.0 | 0.01 | 1.37 | 0.30 | 94 | 1009.4 |
| 20260507181757 | 69 | 162 | 0.0 | 0.0 | 0.01 | 1.37 | 0.30 | 94 | 1009.5 |
| 20260507181657 | 69 | 161 | 0.0 | 0.0 | 0.01 | 1.37 | 0.30 | 95 | 1009.5 |
| 20260507181617 | 69 | 171 | 0.0 | 0.0 | 0.01 | 1.37 | 0.30 | 95 | 1009.5 |
| 20260507181521 | 68 | 260 | 0.0 | 0.0 | 0.01 | 1.37 | 0.30 | 95 | 1008.7 |
| 20260507181457 | 68 | 260 | 0.0 | 0.0 | 0.01 | 1.37 | 0.30 | 95 | 1009.5 |
| 20260507181357 | 68 | 143 | 0.0 | 0.0 | 0.01 | 1.37 | 0.30 | 95 | 1009.7 |
| 20260507181241 | 68 | 360 | 0.0 | 0.0 | 0.01 | 1.37 | 0.30 | 95 | 1009.6 |
| 20260507181140 | 68 | 42 | 0.0 | 0.0 | 0.01 | 1.37 | 0.30 | 96 | 1009.7 |
| 20260507181040 | 68 | 105 | 0.0 | 0.0 | 0.01 | 1.37 | 0.30 | 95 | 1009.8 |
| 20260507180940 | 68 | 46 | 0.0 | 0.0 | 0.01 | 1.37 | 0.30 | 95 | 1009.8 |
| 20260507180840 | 68 | 46 | 0.0 | 0.0 | 0.01 | 1.37 | 0.30 | 95 | 1009.8 |
| 20260507180740 | 68 | 46 | 0.0 | 0.0 | 0.01 | 1.37 | 0.30 | 95 | 1009.8 |
| 20260507180639 | 68 | 46 | 0.0 | 0.0 | 0.01 | 1.37 | 0.30 | 95 | 1009.8 |
| 20260507180543 | 67 | 120 | 0.0 | 0.0 | 0.01 | 1.37 | 0.30 | 95 | 1009.9 |
| 20260507180441 | 67 | 120 | 0.0 | 0.0 | 0.01 | 1.37 | 0.30 | 95 | 1010.0 |
| 20260507180341 | 67 | 120 | 0.0 | 0.0 | 0.01 | 1.37 | 0.30 | 95 | 1010.0 |
| 20260507180304 | 68 | 75 | 0.0 | 0.0 | 0.01 | 1.37 | 0.30 | 95 | 1010.1 |
| 20260507180230 | 68 | 75 | 0.0 | 0.0 | 0.01 | 1.37 | 0.30 | 95 | 1010.1 |
| 20260507175941 | 68 | 99 | 0.0 | 0.0 | 0.01 | 1.37 | 0.30 | 96 | 1010.0 |
| 20260507175841 | 68 | 162 | 0.0 | 0.0 | 0.01 | 1.37 | 0.30 | 96 | 1010.0 |
| 20260507175801 | 68 | 173 | 0.0 | 0.0 | 0.00 | 1.36 | 0.29 | 96 | 1010.0 |
| 20260507175700 | 68 | 19 | 0.0 | 0.0 | 0.00 | 1.36 | 0.29 | 96 | 1010.0 |
| 20260507175557 | 68 | 19 | 0.0 | 0.0 | 0.00 | 1.36 | 0.29 | 96 | 1010.0 |
| 20260507175456 | 68 | 17 | 0.0 | 0.0 | 0.00 | 1.36 | 0.29 | 96 | 1010.0 |
| 20260507175355 | 68 | 17 | 0.0 | 0.0 | 0.00 | 1.36 | 0.29 | 96 | 1010.0 |
| 20260507175258 | 68 | 18 | 0.0 | 0.0 | 0.00 | 1.36 | 0.29 | 96 | 1010.1 |
| 20260507175158 | 68 | 59 | 0.0 | 0.0 | 0.00 | 1.36 | 0.29 | 96 | 1010.1 |
| 20260507175058 | 68 | 109 | 0.0 | 0.0 | 0.00 | 1.36 | 0.29 | 96 | 1010.1 |
| 20260507174957 | 68 | 17 | 0.0 | 0.0 | 0.00 | 1.36 | 0.29 | 96 | 1010.1 |
| 20260507174915 | 68 | 45 | 0.0 | 0.0 | 0.00 | 1.36 | 0.29 | 96 | 1010.2 |
| 20260507174754 | 68 | 46 | 0.0 | 0.0 | 0.00 | 1.36 | 0.29 | 96 | 1010.1 |
| 20260507174654 | 68 | 46 | 0.0 | 0.0 | 0.00 | 1.36 | 0.29 | 96 | 1010.1 |
| 20260507174558 | 68 | 46 | 0.0 | 0.0 | 0.00 | 1.36 | 0.29 | 96 | 1010.1 |
| 20260507174514 | 67 | 46 | 0.0 | 0.0 | 0.00 | 1.36 | 0.28 | 96 | 1009.3 |
| 20260507174458 | 68 | 46 | 0.0 | 0.0 | 0.00 | 1.36 | 0.29 | 96 | 1010.1 |
| 20260507174417 | 67 | 46 | 0.0 | 0.0 | 0.00 | 1.36 | 0.29 | 96 | 1010.1 |
| 20260507174255 | 67 | 46 | 0.0 | 0.0 | 0.00 | 1.36 | 0.29 | 96 | 1010.1 |
| 20260507174214 | 67 | 46 | 0.0 | 0.0 | 0.00 | 1.36 | 0.29 | 96 | 1010.1 |
| 20260507174112 | 67 | 46 | 0.0 | 0.0 | 0.00 | 1.36 | 0.29 | 96 | 1010.2 |
| 20260507174011 | 67 | 46 | 0.0 | 0.0 | 0.00 | 1.36 | 0.29 | 96 | 1010.1 |
| 20260507173850 | 67 | 46 | 0.0 | 0.0 | 0.00 | 1.36 | 0.29 | 96 | 1010.1 |
| 20260507173748 | 67 | 46 | 0.0 | 0.0 | 0.00 | 1.36 | 0.29 | 96 | 1010.0 |
| 20260507173710 | 67 | 46 | 0.0 | 0.0 | 0.00 | 1.36 | 0.29 | 96 | 1009.8 |
| 20260507173548 | 67 | 41 | 0.0 | 0.0 | 0.00 | 1.36 | 0.29 | 96 | 1009.7 |
| 20260507173446 | 67 | 41 | 0.0 | 0.0 | 0.00 | 1.36 | 0.29 | 96 | 1009.7 |
| 20260507173346 | 67 | 41 | 0.0 | 0.0 | 0.00 | 1.36 | 0.29 | 96 | 1009.9 |
| 20260507173245 | 67 | 42 | 0.0 | 0.0 | 0.00 | 1.36 | 0.29 | 96 | 1009.9 |
| 20260507173144 | 67 | 15 | 0.0 | 0.0 | 0.00 | 1.36 | 0.29 | 96 | 1009.9 |
| 20260507173043 | 67 | 360 | 0.0 | 0.0 | 0.00 | 1.36 | 0.29 | 96 | 1009.9 |
| 20260507173015 | 66 | 360 | 0.0 | 0.0 | 0.00 | 1.36 | 0.28 | 96 | 1009.0 |
| 20260507172945 | 67 | 360 | 0.0 | 0.0 | 0.00 | 1.36 | 0.29 | 96 | 1009.9 |
| 20260507172905 | 67 | 360 | 0.0 | 0.0 | 0.00 | 1.36 | 0.29 | 96 | 1009.7 |
| 20260507172803 | 67 | 360 | 0.0 | 0.0 | 0.00 | 1.36 | 0.29 | 96 | 1009.7 |
| 20260507172642 | 67 | 360 | 0.0 | 0.0 | 0.00 | 1.36 | 0.29 | 96 | 1009.8 |
| 20260507172541 | 67 | 360 | 0.0 | 0.0 | 0.00 | 1.36 | 0.29 | 96 | 1009.9 |
| 20260507172441 | 67 | 360 | 0.0 | 0.0 | 0.00 | 1.36 | 0.29 | 96 | 1010.1 |
| 20260507172341 | 67 | 355 | 0.0 | 0.0 | 0.00 | 1.36 | 0.29 | 96 | 1010.1 |
| 20260507172244 | 67 | 355 | 0.0 | 0.0 | 0.00 | 1.36 | 0.29 | 96 | 1010.2 |
| 20260507172202 | 67 | 351 | 0.0 | 0.0 | 0.00 | 1.36 | 0.29 | 96 | 1010.3 |
| 20260507172040 | 67 | 351 | 0.0 | 0.0 | 0.00 | 1.36 | 0.29 | 96 | 1010.3 |
| 20260507171941 | 67 | 351 | 0.0 | 0.0 | 0.00 | 1.36 | 0.29 | 96 | 1010.3 |
| 20260507171840 | 67 | 351 | 0.0 | 0.0 | 0.00 | 1.41 | 0.29 | 96 | 1010.4 |
| 20260507171740 | 67 | 355 | 0.0 | 0.0 | 0.00 | 1.41 | 0.29 | 96 | 1010.4 |
| 20260507171639 | 67 | 355 | 0.0 | 0.0 | 0.00 | 1.41 | 0.29 | 96 | 1010.4 |
| 20260507171543 | 67 | 355 | 0.0 | 0.0 | 0.00 | 1.41 | 0.29 | 96 | 1010.3 |
| 20260507171509 | 67 | 355 | 0.0 | 0.0 | 0.00 | 1.41 | 0.28 | 96 | 1009.5 |
| 20260507171443 | 67 | 355 | 0.0 | 0.0 | 0.00 | 1.41 | 0.29 | 96 | 1010.3 |
| 20260507171341 | 67 | 355 | 0.0 | 0.0 | 0.00 | 1.41 | 0.29 | 96 | 1010.4 |
| 20260507171259 | 67 | 355 | 0.0 | 0.0 | 0.00 | 1.41 | 0.29 | 96 | 1010.5 |
| 20260507171157 | 67 | 355 | 0.0 | 0.0 | 0.00 | 1.41 | 0.29 | 96 | 1010.5 |
| 20260507171055 | 67 | 355 | 0.0 | 0.0 | 0.00 | 1.41 | 0.29 | 97 | 1010.5 |
| 20260507170954 | 67 | 355 | 0.0 | 0.0 | 0.00 | 1.41 | 0.29 | 96 | 1010.4 |
| 20260507170858 | 67 | 355 | 0.0 | 0.0 | 0.00 | 1.41 | 0.29 | 97 | 1010.4 |
| 20260507170817 | 67 | 355 | 0.0 | 0.0 | 0.00 | 1.41 | 0.29 | 97 | 1010.2 |
| 20260507170656 | 67 | 355 | 0.0 | 0.0 | 0.00 | 1.41 | 0.29 | 97 | 1010.2 |
| 20260507170556 | 67 | 355 | 0.0 | 0.0 | 0.00 | 1.41 | 0.29 | 97 | 1010.1 |
| 20260507170456 | 68 | 355 | 0.0 | 0.0 | 0.00 | 1.41 | 0.29 | 97 | 1010.1 |
| 20260507170356 | 68 | 355 | 0.0 | 0.0 | 0.00 | 1.41 | 0.29 | 97 | 1010.1 |
| 20260507170230 | 68 | 12 | 0.0 | 0.0 | 0.00 | 1.41 | 0.29 | 97 | 1010.1 |
| 20260507170026 | 67 | 12 | 0.0 | 0.0 | 0.00 | 1.41 | 0.28 | 97 | 1009.3 |
| 20260507165957 | 67 | 144 | 0.0 | 0.0 | 0.00 | 1.41 | 0.29 | 97 | 1010.1 |
| 20260507165855 | 67 | 144 | 0.0 | 0.0 | 0.00 | 1.41 | 0.29 | 97 | 1010.0 |
| 20260507165754 | 67 | 144 | 0.0 | 0.0 | 0.00 | 1.41 | 0.29 | 97 | 1010.0 |
| 20260507165654 | 67 | 144 | 0.0 | 0.0 | 0.00 | 1.41 | 0.29 | 97 | 1010.0 |
| 20260507165539 | 67 | 143 | 0.0 | 0.0 | 0.00 | 1.41 | 0.29 | 97 | 1009.9 |
| 20260507165459 | 67 | 143 | 0.0 | 0.0 | 0.00 | 1.41 | 0.29 | 97 | 1009.9 |
| 20260507165358 | 67 | 144 | 0.0 | 0.0 | 0.00 | 1.41 | 0.29 | 97 | 1010.0 |
| 20260507165258 | 67 | 144 | 0.0 | 0.0 | 0.00 | 1.41 | 0.29 | 97 | 1010.1 |
| 20260507165158 | 67 | 144 | 0.0 | 0.0 | 0.00 | 1.41 | 0.29 | 97 | 1010.1 |
| 20260507165057 | 67 | 144 | 0.0 | 0.0 | 0.00 | 1.41 | 0.29 | 97 | 1010.2 |
| 20260507164941 | 67 | 144 | 0.0 | 0.0 | 0.00 | 1.41 | 0.29 | 97 | 1010.1 |
| 20260507164840 | 67 | 144 | 0.0 | 0.0 | 0.00 | 1.41 | 0.29 | 97 | 1010.2 |
| 20260507164741 | 67 | 144 | 0.0 | 0.0 | 0.00 | 1.41 | 0.29 | 97 | 1010.2 |
| 20260507164700 | 67 | 144 | 0.0 | 0.0 | 0.00 | 1.41 | 0.29 | 97 | 1010.2 |
| 20260507164539 | 67 | 144 | 0.0 | 0.0 | 0.00 | 1.41 | 0.29 | 97 | 1010.2 |
| 20260507164511 | 66 | 144 | 0.0 | 0.0 | 0.00 | 1.41 | 0.28 | 97 | 1009.3 |
| 20260507164458 | 66 | 144 | 0.0 | 0.0 | 0.00 | 1.41 | 0.29 | 97 | 1010.2 |
| 20260507164358 | 66 | 144 | 0.0 | 0.0 | 0.00 | 1.41 | 0.29 | 97 | 1010.2 |
| 20260507164257 | 67 | 144 | 0.0 | 0.0 | 0.00 | 1.41 | 0.29 | 97 | 1010.1 |
| 20260507164158 | 67 | 145 | 0.0 | 0.0 | 0.00 | 1.41 | 0.29 | 97 | 1010.2 |
| 20260507164117 | 67 | 149 | 0.0 | 0.0 | 0.00 | 1.41 | 0.29 | 97 | 1010.3 |
| 20260507164015 | 67 | 150 | 0.0 | 0.0 | 0.00 | 1.41 | 0.29 | 97 | 1010.4 |
| 20260507163914 | 67 | 44 | 0.0 | 0.0 | 0.00 | 1.41 | 0.29 | 97 | 1010.5 |
| 20260507163753 | 67 | 44 | 0.0 | 0.0 | 0.00 | 1.41 | 0.29 | 97 | 1010.5 |
| 20260507163652 | 67 | 44 | 0.0 | 0.0 | 0.00 | 1.41 | 0.29 | 97 | 1010.6 |
| 20260507163612 | 67 | 44 | 0.0 | 0.0 | 0.00 | 1.41 | 0.29 | 97 | 1010.6 |
| 20260507163510 | 67 | 44 | 0.0 | 0.0 | 0.00 | 1.41 | 0.29 | 97 | 1010.6 |
| 20260507163349 | 67 | 32 | 0.0 | 0.0 | 0.00 | 1.41 | 0.29 | 97 | 1010.8 |
| 20260507163253 | 67 | 32 | 0.0 | 0.0 | 0.00 | 1.41 | 0.29 | 97 | 1010.8 |
| 20260507163153 | 67 | 33 | 0.0 | 0.0 | 0.00 | 1.41 | 0.29 | 97 | 1010.8 |
| 20260507163112 | 67 | 33 | 0.0 | 0.0 | 0.00 | 1.41 | 0.29 | 97 | 1010.8 |
| 20260507163024 | 66 | 34 | 0.0 | 0.0 | 0.00 | 1.41 | 0.28 | 97 | 1010.0 |
| 20260507162951 | 67 | 34 | 0.0 | 0.0 | 0.00 | 1.41 | 0.29 | 97 | 1010.9 |
| 20260507162851 | 67 | 33 | 0.0 | 0.0 | 0.00 | 1.41 | 0.29 | 97 | 1010.9 |
| 20260507162751 | 67 | 34 | 0.0 | 0.0 | 0.00 | 1.41 | 0.29 | 97 | 1010.9 |
| 20260507162651 | 67 | 156 | 0.0 | 0.0 | 0.00 | 1.41 | 0.29 | 97 | 1010.9 |
| 20260507162555 | 67 | 156 | 0.0 | 0.0 | 0.00 | 1.41 | 0.29 | 97 | 1010.9 |
| 20260507162514 | 67 | 224 | 0.0 | 0.0 | 0.00 | 1.41 | 0.29 | 97 | 1010.8 |
| 20260507162352 | 67 | 224 | 0.0 | 0.0 | 0.00 | 1.41 | 0.29 | 97 | 1010.9 |
| 20260507162250 | 67 | 224 | 0.0 | 0.0 | 0.00 | 1.41 | 0.29 | 97 | 1010.8 |
| 20260507162210 | 67 | 224 | 0.0 | 0.0 | 0.00 | 1.41 | 0.29 | 97 | 1010.7 |
| 20260507162048 | 67 | 224 | 0.0 | 0.0 | 0.00 | 1.41 | 0.29 | 97 | 1010.6 |
| 20260507161948 | 67 | 224 | 0.0 | 0.0 | 0.00 | 1.41 | 0.29 | 97 | 1010.5 |
| 20260507161847 | 67 | 224 | 0.0 | 0.0 | 0.00 | 1.41 | 0.29 | 97 | 1010.5 |
| 20260507161750 | 67 | 224 | 0.0 | 0.0 | 0.00 | 1.41 | 0.29 | 97 | 1010.4 |
| 20260507161709 | 67 | 224 | 0.0 | 0.0 | 0.00 | 1.41 | 0.29 | 97 | 1010.4 |
| 20260507161547 | 67 | 224 | 0.0 | 0.0 | 0.00 | 1.41 | 0.29 | 97 | 1010.3 |
| 20260507161513 | 66 | 224 | 0.0 | 0.0 | 0.01 | 1.41 | 0.28 | 97 | 1009.5 |
| 20260507161447 | 67 | 224 | 0.0 | 0.0 | 0.01 | 1.41 | 0.29 | 97 | 1010.3 |
| 20260507161347 | 67 | 224 | 0.0 | 0.0 | 0.01 | 1.41 | 0.29 | 97 | 1010.2 |
| 20260507161246 | 67 | 224 | 0.0 | 0.0 | 0.01 | 1.41 | 0.29 | 97 | 1010.1 |
| 20260507161146 | 67 | 224 | 0.0 | 0.0 | 0.01 | 1.41 | 0.29 | 97 | 1010.0 |
| 20260507161110 | 67 | 224 | 0.0 | 0.0 | 0.01 | 1.41 | 0.29 | 97 | 1009.9 |
| 20260507160655 | 67 | 225 | 0.0 | 0.0 | 0.01 | 1.41 | 0.29 | 97 | 1010.1 |
| 20260507160555 | 67 | 162 | 0.0 | 0.0 | 0.01 | 1.41 | 0.29 | 97 | 1010.0 |
| 20260507160515 | 67 | 323 | 0.0 | 0.0 | 0.01 | 1.41 | 0.29 | 97 | 1010.1 |
| 20260507160353 | 66 | 322 | 0.0 | 0.0 | 0.01 | 1.41 | 0.29 | 97 | 1010.0 |
| 20260507160256 | 66 | 322 | 0.0 | 0.0 | 0.01 | 1.41 | 0.29 | 97 | 1010.0 |
| 20260507160227 | 66 | 322 | 0.0 | 0.0 | 0.01 | 1.41 | 0.29 | 97 | 1010.0 |
| 20260507160037 | 66 | 322 | 0.0 | 0.0 | 0.01 | 1.41 | 0.28 | 97 | 1009.0 |
| 20260507155954 | 66 | 322 | 0.0 | 0.0 | 0.01 | 1.41 | 0.29 | 97 | 1009.9 |
| 20260507155853 | 66 | 322 | 0.0 | 0.0 | 0.02 | 1.41 | 0.29 | 97 | 1009.9 |
| 20260507155752 | 66 | 322 | 0.0 | 0.0 | 0.02 | 1.41 | 0.29 | 97 | 1009.9 |
| 20260507155651 | 66 | 322 | 0.0 | 0.0 | 0.02 | 1.41 | 0.29 | 97 | 1009.8 |
| 20260507155554 | 66 | 322 | 0.0 | 0.0 | 0.02 | 1.41 | 0.29 | 97 | 1009.7 |
| 20260507155454 | 66 | 322 | 0.0 | 0.0 | 0.02 | 1.41 | 0.29 | 97 | 1009.6 |
| 20260507155353 | 66 | 322 | 0.0 | 0.0 | 0.02 | 1.41 | 0.29 | 97 | 1009.5 |
| 20260507155252 | 66 | 322 | 0.0 | 0.0 | 0.02 | 1.41 | 0.29 | 97 | 1009.5 |
| 20260507155151 | 66 | 322 | 0.0 | 0.0 | 0.02 | 1.41 | 0.29 | 97 | 1009.4 |
| 20260507155052 | 66 | 322 | 0.0 | 0.0 | 0.02 | 1.41 | 0.29 | 97 | 1009.4 |
| 20260507155011 | 66 | 322 | 0.0 | 0.0 | 0.02 | 1.41 | 0.29 | 97 | 1009.3 |
| 20260507154853 | 66 | 322 | 0.0 | 0.0 | 0.02 | 1.41 | 0.29 | 97 | 1009.2 |
| 20260507154752 | 66 | 322 | 0.0 | 0.0 | 0.02 | 1.41 | 0.29 | 97 | 1009.2 |
| 20260507154653 | 66 | 322 | 0.0 | 0.0 | 0.02 | 1.41 | 0.29 | 97 | 1009.2 |
| 20260507154614 | 66 | 323 | 0.0 | 0.0 | 0.02 | 1.41 | 0.29 | 97 | 1009.2 |
| 20260507154541 | 66 | 323 | 0.0 | 0.0 | 0.02 | 1.41 | 0.28 | 97 | 1008.5 |
| 20260507154454 | 66 | 323 | 0.0 | 0.0 | 0.02 | 1.41 | 0.29 | 97 | 1009.3 |
| 20260507154415 | 66 | 323 | 0.0 | 0.0 | 0.02 | 1.41 | 0.29 | 97 | 1009.4 |
| 20260507154255 | 66 | 321 | 0.0 | 0.0 | 0.02 | 1.41 | 0.29 | 97 | 1009.4 |
| 20260507154140 | 66 | 317 | 0.0 | 0.0 | 0.02 | 1.41 | 0.29 | 97 | 1009.4 |
| 20260507154040 | 66 | 312 | 0.0 | 0.0 | 0.03 | 1.41 | 0.29 | 97 | 1009.4 |
| 20260507153940 | 66 | 19 | 0.0 | 0.0 | 0.03 | 1.41 | 0.29 | 97 | 1009.4 |
| 20260507153840 | 66 | 19 | 0.0 | 0.0 | 0.03 | 1.41 | 0.29 | 97 | 1009.5 |
| 20260507153740 | 66 | 19 | 0.0 | 0.0 | 0.03 | 1.41 | 0.29 | 97 | 1009.5 |
| 20260507153640 | 66 | 19 | 0.0 | 0.0 | 0.03 | 1.41 | 0.29 | 97 | 1009.7 |
| 20260507153601 | 66 | 19 | 0.0 | 0.0 | 0.03 | 1.41 | 0.29 | 97 | 1009.8 |
| 20260507153443 | 66 | 19 | 0.0 | 0.0 | 0.03 | 1.41 | 0.29 | 97 | 1009.8 |
| 20260507153343 | 66 | 19 | 0.0 | 0.0 | 0.03 | 1.41 | 0.29 | 97 | 1009.9 |
| 20260507153244 | 66 | 19 | 0.0 | 0.0 | 0.03 | 1.41 | 0.29 | 97 | 1009.9 |
| 20260507153144 | 66 | 19 | 0.0 | 0.0 | 0.03 | 1.41 | 0.29 | 97 | 1009.9 |
| 20260507153044 | 66 | 19 | 0.0 | 0.0 | 0.03 | 1.41 | 0.29 | 97 | 1009.9 |
| 20260507153006 | 65 | 19 | 0.0 | 0.0 | 0.03 | 1.41 | 0.28 | 97 | 1009.0 |
| 20260507152944 | 66 | 19 | 0.0 | 0.0 | 0.03 | 1.41 | 0.29 | 97 | 1009.9 |
| 20260507152843 | 66 | 19 | 0.0 | 0.0 | 0.03 | 1.41 | 0.29 | 97 | 1009.8 |
| 20260507152748 | 66 | 19 | 0.0 | 0.0 | 0.03 | 1.41 | 0.29 | 97 | 1009.9 |
| 20260507152647 | 66 | 19 | 0.0 | 0.0 | 0.03 | 1.41 | 0.29 | 97 | 1010.0 |
| 20260507152608 | 66 | 19 | 0.0 | 0.0 | 0.03 | 1.41 | 0.29 | 97 | 1010.1 |
| 20260507152447 | 66 | 19 | 0.0 | 0.0 | 0.03 | 1.41 | 0.29 | 97 | 1010.1 |
| 20260507152347 | 66 | 19 | 0.0 | 0.0 | 0.03 | 1.41 | 0.29 | 97 | 1010.2 |
| 20260507152248 | 66 | 19 | 0.0 | 0.0 | 0.03 | 1.41 | 0.29 | 97 | 1010.2 |
| 20260507152149 | 66 | 19 | 0.0 | 0.0 | 0.03 | 1.41 | 0.29 | 97 | 1010.2 |
| 20260507152053 | 66 | 19 | 0.0 | 0.0 | 0.03 | 1.41 | 0.29 | 97 | 1010.2 |
| 20260507151953 | 66 | 19 | 0.0 | 0.0 | 0.03 | 1.41 | 0.29 | 97 | 1010.3 |
| 20260507151912 | 66 | 19 | 0.0 | 0.0 | 0.03 | 1.41 | 0.29 | 97 | 1010.4 |
| 20260507151753 | 66 | 19 | 0.0 | 0.0 | 0.03 | 1.41 | 0.29 | 97 | 1010.5 |
| 20260507151712 | 66 | 19 | 0.0 | 0.0 | 0.03 | 1.41 | 0.29 | 97 | 1010.6 |
| 20260507151610 | 66 | 19 | 0.0 | 0.0 | 0.03 | 1.41 | 0.29 | 97 | 1010.6 |
| 20260507151517 | 65 | 19 | 0.0 | 0.0 | 0.03 | 1.41 | 0.28 | 97 | 1009.8 |
| 20260507151449 | 66 | 19 | 0.0 | 0.0 | 0.03 | 1.41 | 0.29 | 97 | 1010.6 |
| 20260507151410 | 66 | 18 | 0.0 | 0.0 | 0.02 | 1.40 | 0.28 | 97 | 1010.7 |
| 20260507151310 | 66 | 18 | 0.0 | 0.0 | 0.02 | 1.40 | 0.28 | 97 | 1010.7 |
| 20260507151154 | 66 | 18 | 0.0 | 0.0 | 0.02 | 1.40 | 0.28 | 97 | 1010.8 |
| 20260507151055 | 66 | 18 | 0.0 | 0.0 | 0.02 | 1.40 | 0.28 | 97 | 1010.8 |
| 20260507150955 | 66 | 18 | 0.0 | 0.0 | 0.02 | 1.40 | 0.28 | 97 | 1010.9 |
| 20260507150856 | 66 | 18 | 0.0 | 0.0 | 0.02 | 1.40 | 0.28 | 97 | 1010.9 |
| 20260507150817 | 66 | 18 | 0.0 | 0.0 | 0.02 | 1.40 | 0.28 | 97 | 1011.0 |
| 20260507150654 | 66 | 18 | 0.0 | 0.0 | 0.02 | 1.40 | 0.28 | 97 | 1011.0 |
| 20260507150555 | 66 | 18 | 0.0 | 0.0 | 0.02 | 1.40 | 0.28 | 97 | 1011.0 |
| 20260507150452 | 66 | 18 | 0.0 | 0.0 | 0.02 | 1.40 | 0.28 | 97 | 1011.1 |
| 20260507150356 | 66 | 18 | 0.0 | 0.0 | 0.02 | 1.40 | 0.28 | 97 | 1011.2 |
| 20260507150300 | 66 | 18 | 0.0 | 0.0 | 0.02 | 1.40 | 0.28 | 97 | 1011.1 |
| 20260507150227 | 66 | 18 | 0.0 | 0.0 | 0.02 | 1.40 | 0.28 | 97 | 1011.1 |
| 20260507150030 | 65 | 18 | 0.0 | 0.0 | 0.02 | 1.40 | 0.28 | 97 | 1010.4 |
| 20260507145955 | 66 | 28 | 0.0 | 0.0 | 0.02 | 1.40 | 0.28 | 97 | 1011.2 |
| 20260507145915 | 66 | 175 | 0.0 | 0.0 | 0.01 | 1.39 | 0.27 | 97 | 1011.2 |
| 20260507145814 | 66 | 123 | 0.0 | 0.0 | 0.01 | 1.39 | 0.27 | 97 | 1011.3 |
| 20260507145658 | 66 | 192 | 0.0 | 0.0 | 0.01 | 1.39 | 0.27 | 97 | 1011.2 |
| 20260507145540 | 66 | 167 | 0.0 | 0.0 | 0.01 | 1.39 | 0.27 | 97 | 1011.3 |
| 20260507145441 | 66 | 167 | 0.0 | 0.0 | 0.01 | 1.39 | 0.27 | 97 | 1011.3 |
| 20260507145401 | 66 | 167 | 0.0 | 0.0 | 0.01 | 1.39 | 0.27 | 97 | 1011.3 |
| 20260507145241 | 66 | 167 | 0.0 | 0.0 | 0.01 | 1.39 | 0.27 | 97 | 1011.4 |
| 20260507145202 | 66 | 169 | 0.0 | 0.0 | 0.01 | 1.39 | 0.27 | 97 | 1011.4 |
| 20260507145102 | 66 | 167 | 0.0 | 0.0 | 0.01 | 1.39 | 0.27 | 97 | 1011.5 |
| 20260507145003 | 66 | 167 | 0.0 | 0.0 | 0.01 | 1.39 | 0.27 | 97 | 1011.5 |
| 20260507144846 | 66 | 167 | 0.0 | 0.0 | 0.01 | 1.39 | 0.27 | 97 | 1011.5 |
| 20260507144747 | 66 | 167 | 0.0 | 0.0 | 0.01 | 1.39 | 0.27 | 97 | 1011.5 |
| 20260507144708 | 66 | 167 | 0.0 | 0.0 | 0.01 | 1.39 | 0.27 | 97 | 1011.4 |
| 20260507144548 | 66 | 167 | 0.0 | 0.0 | 0.01 | 1.39 | 0.27 | 97 | 1011.5 |
| 20260507144504 | 65 | 167 | 0.0 | 0.0 | 0.02 | 1.39 | 0.27 | 97 | 1010.6 |
| 20260507144449 | 66 | 167 | 0.0 | 0.0 | 0.02 | 1.39 | 0.27 | 97 | 1011.4 |
| 20260507144350 | 66 | 167 | 0.0 | 0.0 | 0.02 | 1.39 | 0.27 | 97 | 1011.6 |
| 20260507144311 | 66 | 167 | 0.0 | 0.0 | 0.02 | 1.39 | 0.27 | 97 | 1011.6 |
| 20260507144154 | 66 | 167 | 0.0 | 0.0 | 0.02 | 1.39 | 0.27 | 97 | 1011.7 |
| 20260507144054 | 66 | 167 | 0.0 | 0.0 | 0.01 | 1.38 | 0.26 | 97 | 1011.6 |
| 20260507144016 | 66 | 15 | 0.0 | 0.0 | 0.01 | 1.38 | 0.26 | 97 | 1011.6 |
| 20260507143856 | 66 | 105 | 0.0 | 0.0 | 0.01 | 1.38 | 0.26 | 97 | 1011.6 |
| 20260507143817 | 66 | 221 | 0.0 | 0.0 | 0.01 | 1.38 | 0.26 | 97 | 1011.6 |
| 20260507143657 | 66 | 92 | 0.0 | 0.0 | 0.01 | 1.38 | 0.26 | 97 | 1011.5 |
| 20260507143558 | 66 | 146 | 0.0 | 0.0 | 0.01 | 1.38 | 0.26 | 97 | 1011.5 |
| 20260507143441 | 66 | 146 | 0.0 | 0.0 | 0.01 | 1.38 | 0.26 | 97 | 1011.4 |
| 20260507143341 | 66 | 146 | 0.0 | 0.0 | 0.01 | 1.38 | 0.26 | 97 | 1011.4 |
| 20260507143302 | 66 | 146 | 0.0 | 0.0 | 0.01 | 1.38 | 0.26 | 97 | 1011.3 |
| 20260507143141 | 66 | 146 | 0.0 | 0.0 | 0.01 | 1.38 | 0.26 | 97 | 1011.2 |
| 20260507143041 | 66 | 145 | 0.0 | 0.0 | 0.01 | 1.38 | 0.26 | 97 | 1011.2 |
| 20260507143020 | 65 | 145 | 0.0 | 0.0 | 0.01 | 1.38 | 0.26 | 97 | 1010.4 |
| 20260507142940 | 66 | 189 | 0.0 | 0.0 | 0.01 | 1.38 | 0.26 | 97 | 1011.1 |
| 20260507142841 | 66 | 189 | 0.0 | 0.0 | 0.01 | 1.38 | 0.26 | 97 | 1011.2 |
| 20260507142741 | 66 | 189 | 0.0 | 0.0 | 0.01 | 1.38 | 0.26 | 97 | 1011.1 |
| 20260507142646 | 66 | 190 | 0.0 | 0.0 | 0.01 | 1.38 | 0.26 | 97 | 1011.2 |
| 20260507142546 | 66 | 190 | 0.0 | 0.0 | 0.01 | 1.38 | 0.26 | 97 | 1011.2 |
| 20260507142445 | 66 | 190 | 0.0 | 0.0 | 0.01 | 1.38 | 0.26 | 97 | 1011.1 |
| 20260507142346 | 66 | 188 | 0.0 | 0.0 | 0.01 | 1.38 | 0.26 | 97 | 1011.0 |
| 20260507142248 | 66 | 188 | 0.0 | 0.0 | 0.01 | 1.38 | 0.26 | 97 | 1011.0 |
| 20260507142149 | 66 | 188 | 0.0 | 0.0 | 0.01 | 1.38 | 0.26 | 97 | 1011.0 |
| 20260507142050 | 66 | 188 | 0.0 | 0.0 | 0.01 | 1.38 | 0.26 | 97 | 1010.9 |
| 20260507141952 | 66 | 188 | 0.0 | 0.0 | 0.01 | 1.38 | 0.26 | 97 | 1010.9 |
| 20260507141853 | 66 | 188 | 0.0 | 0.0 | 0.01 | 1.38 | 0.26 | 97 | 1010.8 |
| 20260507141754 | 66 | 188 | 0.0 | 0.0 | 0.01 | 1.38 | 0.26 | 97 | 1010.7 |
| 20260507141714 | 66 | 188 | 0.0 | 0.0 | 0.01 | 1.38 | 0.26 | 97 | 1010.6 |
| 20260507141554 | 66 | 188 | 0.0 | 0.0 | 0.01 | 1.38 | 0.26 | 97 | 1010.7 |
| 20260507141536 | 65 | 188 | 0.0 | 0.0 | 0.01 | 1.38 | 0.26 | 97 | 1009.9 |
| 20260507141515 | 66 | 188 | 0.0 | 0.0 | 0.01 | 1.38 | 0.26 | 97 | 1010.7 |
| 20260507141354 | 66 | 188 | 0.0 | 0.0 | 0.01 | 1.38 | 0.26 | 97 | 1010.8 |
| 20260507141259 | 66 | 188 | 0.0 | 0.0 | 0.01 | 1.38 | 0.26 | 97 | 1010.9 |
| 20260507141139 | 66 | 188 | 0.0 | 0.0 | 0.01 | 1.38 | 0.26 | 97 | 1010.9 |
| 20260507141041 | 66 | 188 | 0.0 | 0.0 | 0.01 | 1.38 | 0.26 | 97 | 1010.8 |
| 20260507140942 | 66 | 188 | 0.0 | 0.0 | 0.01 | 1.38 | 0.26 | 97 | 1010.8 |
| 20260507140843 | 66 | 189 | 0.0 | 0.0 | 0.01 | 1.38 | 0.26 | 97 | 1010.8 |
| 20260507140745 | 66 | 189 | 0.0 | 0.0 | 0.01 | 1.38 | 0.26 | 97 | 1010.8 |
| 20260507140650 | 66 | 189 | 0.0 | 0.0 | 0.01 | 1.38 | 0.26 | 97 | 1010.9 |
| 20260507140551 | 66 | 189 | 0.0 | 0.0 | 0.01 | 1.38 | 0.26 | 97 | 1010.8 |
| 20260507140451 | 66 | 189 | 0.0 | 0.0 | 0.01 | 1.38 | 0.26 | 97 | 1010.8 |
| 20260507140352 | 66 | 189 | 0.0 | 0.0 | 0.01 | 1.38 | 0.26 | 97 | 1010.8 |
| 20260507140253 | 66 | 188 | 0.0 | 0.0 | 0.01 | 1.38 | 0.26 | 97 | 1010.7 |
| 20260507140224 | 66 | 215 | 0.0 | 0.0 | 0.01 | 1.38 | 0.26 | 97 | 1010.6 |
| 20260507135951 | 66 | 214 | 0.0 | 0.0 | 0.01 | 1.38 | 0.26 | 97 | 1010.6 |
| 20260507135852 | 66 | 214 | 0.0 | 0.0 | 0.01 | 1.38 | 0.26 | 97 | 1010.6 |
| 20260507135749 | 65 | 195 | 0.0 | 0.0 | 0.01 | 1.38 | 0.26 | 97 | 1010.6 |
| 20260507135650 | 65 | 195 | 0.0 | 0.0 | 0.02 | 1.38 | 0.26 | 97 | 1010.6 |
| 20260507135551 | 65 | 195 | 0.0 | 0.0 | 0.02 | 1.38 | 0.26 | 97 | 1010.6 |
| 20260507135452 | 65 | 159 | 0.0 | 0.0 | 0.02 | 1.38 | 0.26 | 97 | 1010.5 |
| 20260507135358 | 65 | 159 | 0.0 | 0.0 | 0.02 | 1.38 | 0.26 | 97 | 1010.6 |
| 20260507135258 | 65 | 101 | 0.0 | 0.0 | 0.02 | 1.38 | 0.26 | 97 | 1010.7 |
| 20260507135200 | 65 | 98 | 0.0 | 0.0 | 0.02 | 1.38 | 0.26 | 97 | 1010.7 |
| 20260507135059 | 65 | 98 | 0.0 | 0.0 | 0.02 | 1.38 | 0.26 | 97 | 1010.7 |
| 20260507135019 | 65 | 292 | 0.0 | 0.0 | 0.02 | 1.38 | 0.26 | 97 | 1010.7 |
| 20260507134855 | 65 | 327 | 0.0 | 0.0 | 0.02 | 1.38 | 0.26 | 97 | 1010.7 |
| 20260507134756 | 65 | 327 | 0.0 | 0.0 | 0.02 | 1.38 | 0.26 | 97 | 1010.7 |
| 20260507134641 | 65 | 327 | 0.0 | 0.0 | 0.03 | 1.38 | 0.26 | 97 | 1010.7 |
| 20260507134600 | 65 | 327 | 0.0 | 0.0 | 0.02 | 1.37 | 0.25 | 97 | 1009.9 |
| 20260507134542 | 65 | 327 | 0.0 | 0.0 | 0.02 | 1.37 | 0.25 | 97 | 1010.7 |
| 20260507134501 | 65 | 329 | 0.0 | 0.0 | 0.02 | 1.37 | 0.25 | 97 | 1010.7 |
| 20260507134342 | 65 | 329 | 0.0 | 0.0 | 0.03 | 1.37 | 0.25 | 97 | 1010.8 |
| 20260507134243 | 65 | 329 | 0.0 | 0.0 | 0.03 | 1.37 | 0.25 | 97 | 1010.8 |
| 20260507134144 | 65 | 329 | 0.0 | 0.0 | 0.03 | 1.37 | 0.25 | 97 | 1010.9 |
| 20260507134045 | 65 | 329 | 0.0 | 0.0 | 0.04 | 1.37 | 0.25 | 97 | 1010.9 |
| 20260507134004 | 65 | 329 | 0.0 | 0.0 | 0.04 | 1.37 | 0.25 | 97 | 1010.9 |
| 20260507133847 | 65 | 329 | 0.0 | 0.0 | 0.05 | 1.37 | 0.25 | 97 | 1010.9 |
| 20260507133808 | 65 | 329 | 0.0 | 0.0 | 0.05 | 1.37 | 0.25 | 97 | 1011.0 |
| 20260507133648 | 65 | 329 | 0.0 | 0.0 | 0.05 | 1.37 | 0.25 | 97 | 1011.1 |
| 20260507133549 | 65 | 329 | 0.0 | 0.0 | 0.06 | 1.37 | 0.25 | 97 | 1011.1 |
| 20260507133509 | 65 | 329 | 0.0 | 0.0 | 0.06 | 1.37 | 0.25 | 97 | 1011.2 |
| 20260507133349 | 65 | 329 | 0.0 | 0.0 | 0.07 | 1.37 | 0.25 | 97 | 1011.2 |
| 20260507133250 | 65 | 329 | 0.0 | 0.0 | 0.07 | 1.37 | 0.25 | 97 | 1011.3 |
| 20260507133154 | 65 | 329 | 0.0 | 0.0 | 0.07 | 1.37 | 0.25 | 97 | 1011.3 |
| 20260507133115 | 65 | 329 | 0.0 | 0.0 | 0.08 | 1.37 | 0.25 | 97 | 1011.2 |
| 20260507133042 | 65 | 329 | 0.0 | 0.0 | 0.08 | 1.37 | 0.25 | 97 | 1010.5 |
| 20260507133014 | 65 | 329 | 0.0 | 0.0 | 0.08 | 1.37 | 0.25 | 97 | 1011.2 |
| 20260507132853 | 65 | 329 | 0.0 | 0.0 | 0.09 | 1.37 | 0.25 | 97 | 1011.1 |
| 20260507132754 | 65 | 329 | 0.0 | 0.0 | 0.09 | 1.37 | 0.25 | 97 | 1011.0 |
| 20260507132655 | 65 | 329 | 0.0 | 0.0 | 0.10 | 1.37 | 0.25 | 97 | 1011.0 |
| 20260507132556 | 65 | 329 | 0.0 | 0.0 | 0.11 | 1.37 | 0.25 | 97 | 1011.0 |
| 20260507132439 | 65 | 329 | 0.0 | 0.0 | 0.11 | 1.37 | 0.25 | 97 | 1010.9 |
| 20260507132341 | 65 | 329 | 0.0 | 0.0 | 0.12 | 1.37 | 0.25 | 97 | 1010.9 |
| 20260507132242 | 65 | 329 | 0.0 | 0.0 | 0.12 | 1.37 | 0.25 | 97 | 1010.9 |
| 20260507132143 | 65 | 329 | 0.0 | 0.0 | 0.12 | 1.37 | 0.25 | 97 | 1010.9 |
| 20260507132044 | 65 | 329 | 0.0 | 0.0 | 0.12 | 1.37 | 0.25 | 97 | 1010.9 |
| 20260507131945 | 65 | 329 | 0.0 | 0.0 | 0.13 | 1.37 | 0.25 | 97 | 1010.9 |
| 20260507131906 | 65 | 329 | 0.0 | 0.0 | 0.13 | 1.37 | 0.25 | 97 | 1010.9 |
| 20260507131748 | 65 | 329 | 0.0 | 0.0 | 0.13 | 1.37 | 0.25 | 97 | 1010.9 |
| 20260507131649 | 65 | 329 | 0.0 | 0.0 | 0.13 | 1.37 | 0.25 | 97 | 1010.9 |
| 20260507131609 | 65 | 329 | 0.0 | 0.0 | 0.14 | 1.37 | 0.25 | 97 | 1010.9 |
| 20260507131542 | 64 | 329 | 0.0 | 0.0 | 0.14 | 1.37 | 0.25 | 97 | 1010.2 |
| 20260507131448 | 65 | 329 | 0.0 | 0.0 | 0.14 | 1.37 | 0.25 | 97 | 1010.9 |
| 20260507131349 | 65 | 329 | 0.0 | 0.0 | 0.14 | 1.37 | 0.25 | 97 | 1010.9 |
| 20260507131309 | 65 | 329 | 0.0 | 0.0 | 0.14 | 1.37 | 0.25 | 97 | 1011.0 |
| 20260507131147 | 65 | 329 | 0.0 | 0.0 | 0.14 | 1.37 | 0.25 | 97 | 1010.9 |
| 20260507131048 | 65 | 329 | 0.0 | 0.0 | 0.14 | 1.37 | 0.25 | 97 | 1010.9 |
| 20260507130953 | 65 | 329 | 0.0 | 0.0 | 0.14 | 1.37 | 0.25 | 97 | 1011.0 |
| 20260507130914 | 65 | 329 | 0.0 | 0.0 | 0.15 | 1.37 | 0.25 | 97 | 1011.0 |
| 20260507130754 | 65 | 329 | 0.0 | 0.0 | 0.15 | 1.37 | 0.25 | 97 | 1011.0 |
| 20260507130714 | 65 | 329 | 0.0 | 0.0 | 0.15 | 1.37 | 0.25 | 97 | 1011.0 |
| 20260507130554 | 65 | 329 | 0.0 | 0.0 | 0.15 | 1.37 | 0.25 | 97 | 1011.1 |
| 20260507130455 | 65 | 329 | 0.0 | 0.0 | 0.15 | 1.37 | 0.25 | 97 | 1011.1 |
| 20260507130415 | 65 | 329 | 0.0 | 0.0 | 0.15 | 1.37 | 0.25 | 97 | 1011.1 |
| 20260507130230 | 65 | 329 | 0.0 | 0.0 | 0.15 | 1.37 | 0.25 | 97 | 1011.1 |
| 20260507130016 | 64 | 329 | 0.0 | 0.0 | 0.15 | 1.37 | 0.25 | 97 | 1010.5 |
| 20260507125957 | 65 | 329 | 0.0 | 0.0 | 0.15 | 1.37 | 0.25 | 97 | 1011.3 |
| 20260507125857 | 65 | 329 | 0.0 | 0.0 | 0.15 | 1.37 | 0.25 | 97 | 1011.4 |
| 20260507125817 | 65 | 329 | 0.0 | 0.0 | 0.15 | 1.37 | 0.25 | 97 | 1011.4 |
| 20260507125716 | 65 | 329 | 0.0 | 0.0 | 0.15 | 1.37 | 0.25 | 97 | 1011.4 |
| 20260507125556 | 65 | 329 | 0.0 | 0.0 | 0.14 | 1.36 | 0.24 | 97 | 1011.4 |
| 20260507125441 | 65 | 329 | 0.0 | 0.0 | 0.14 | 1.36 | 0.24 | 97 | 1011.3 |
| 20260507125342 | 65 | 332 | 0.0 | 0.0 | 0.14 | 1.36 | 0.24 | 97 | 1011.4 |
| 20260507125306 | 65 | 332 | 0.0 | 0.0 | 0.14 | 1.36 | 0.24 | 97 | 1011.5 |
| 20260507125204 | 65 | 332 | 0.0 | 0.0 | 0.14 | 1.36 | 0.24 | 97 | 1011.7 |
| 20260507125044 | 65 | 332 | 0.0 | 0.0 | 0.14 | 1.36 | 0.24 | 97 | 1011.7 |
| 20260507124945 | 65 | 339 | 0.0 | 0.0 | 0.14 | 1.36 | 0.24 | 97 | 1011.7 |
| 20260507124846 | 65 | 339 | 0.0 | 0.0 | 0.14 | 1.36 | 0.24 | 97 | 1011.7 |
| 20260507124751 | 65 | 338 | 0.0 | 0.0 | 0.14 | 1.36 | 0.24 | 97 | 1011.7 |
| 20260507124650 | 65 | 338 | 0.0 | 0.0 | 0.14 | 1.36 | 0.24 | 97 | 1011.7 |
| 20260507124612 | 65 | 338 | 0.0 | 0.0 | 0.13 | 1.35 | 0.23 | 97 | 1011.7 |
| 20260507124510 | 65 | 338 | 0.0 | 0.0 | 0.13 | 1.35 | 0.23 | 97 | 1011.7 |
| 20260507124350 | 65 | 338 | 0.0 | 0.0 | 0.12 | 1.34 | 0.22 | 97 | 1011.7 |
| 20260507124251 | 65 | 338 | 0.0 | 0.0 | 0.12 | 1.34 | 0.22 | 97 | 1011.7 |
| 20260507124152 | 65 | 338 | 0.0 | 0.0 | 0.13 | 1.34 | 0.22 | 97 | 1011.7 |
| 20260507124053 | 65 | 339 | 0.0 | 0.0 | 0.13 | 1.34 | 0.22 | 97 | 1011.8 |
| 20260507123958 | 65 | 340 | 0.0 | 0.0 | 0.12 | 1.33 | 0.21 | 97 | 1011.8 |
| 20260507123857 | 65 | 339 | 0.0 | 0.0 | 0.12 | 1.33 | 0.21 | 97 | 1011.9 |
| 20260507123757 | 65 | 338 | 0.0 | 0.0 | 0.11 | 1.32 | 0.20 | 97 | 1011.8 |
| 20260507123657 | 65 | 342 | 0.0 | 0.0 | 0.11 | 1.32 | 0.20 | 97 | 1011.8 |
| 20260507123558 | 65 | 344 | 0.0 | 0.0 | 0.11 | 1.32 | 0.20 | 97 | 1011.8 |
| 20260507123439 | 65 | 344 | 0.0 | 0.0 | 0.10 | 1.31 | 0.19 | 97 | 1011.9 |
| 20260507123344 | 65 | 343 | 0.0 | 0.0 | 0.10 | 1.31 | 0.19 | 97 | 1011.9 |
| 20260507123305 | 65 | 339 | 0.0 | 0.0 | 0.09 | 1.30 | 0.18 | 97 | 1012.0 |
| 20260507123145 | 65 | 336 | 0.0 | 0.0 | 0.10 | 1.30 | 0.18 | 97 | 1012.1 |
| 20260507123046 | 65 | 338 | 0.0 | 0.0 | 0.10 | 1.30 | 0.18 | 97 | 1012.1 |
| 20260507123030 | 65 | 333 | 0.0 | 0.0 | 0.09 | 1.29 | 0.18 | 97 | 1011.3 |
| 20260507122947 | 65 | 333 | 0.0 | 0.0 | 0.09 | 1.29 | 0.17 | 97 | 1012.2 |
| 20260507122848 | 65 | 333 | 0.0 | 0.0 | 0.08 | 1.28 | 0.16 | 97 | 1012.2 |
| 20260507122749 | 65 | 336 | 0.0 | 0.0 | 0.08 | 1.28 | 0.16 | 97 | 1012.2 |
| 20260507122651 | 65 | 336 | 0.0 | 0.0 | 0.07 | 1.27 | 0.15 | 97 | 1012.3 |
| 20260507122552 | 65 | 336 | 0.0 | 0.0 | 0.07 | 1.27 | 0.15 | 97 | 1012.3 |
| 20260507122453 | 65 | 90 | 0.0 | 0.0 | 0.06 | 1.26 | 0.14 | 97 | 1012.3 |
| 20260507122353 | 65 | 90 | 0.0 | 0.0 | 0.06 | 1.26 | 0.14 | 97 | 1012.4 |
| 20260507122254 | 65 | 14 | 0.0 | 0.0 | 0.05 | 1.25 | 0.13 | 97 | 1012.3 |
| 20260507122154 | 65 | 5 | 0.0 | 0.0 | 0.05 | 1.25 | 0.13 | 97 | 1012.2 |
| 20260507122039 | 65 | 5 | 0.0 | 0.0 | 0.05 | 1.25 | 0.13 | 97 | 1012.2 |
| 20260507122000 | 65 | 5 | 0.0 | 0.0 | 0.05 | 1.25 | 0.13 | 97 | 1012.2 |
| 20260507121920 | 65 | 5 | 0.0 | 0.0 | 0.04 | 1.24 | 0.12 | 97 | 1012.1 |
| 20260507121819 | 65 | 5 | 0.0 | 0.0 | 0.04 | 1.24 | 0.12 | 97 | 1012.1 |
| 20260507121639 | 65 | 21 | 0.0 | 0.0 | 0.04 | 1.24 | 0.12 | 97 | 1012.0 |
| 20260507121558 | 64 | 21 | 0.0 | 0.0 | 0.04 | 1.24 | 0.12 | 97 | 1011.1 |
| 20260507121540 | 65 | 20 | 0.0 | 0.0 | 0.03 | 1.23 | 0.11 | 97 | 1011.9 |
| 20260507121441 | 65 | 20 | 0.0 | 0.0 | 0.03 | 1.23 | 0.11 | 97 | 1011.8 |
| 20260507121401 | 65 | 20 | 0.0 | 0.0 | 0.03 | 1.23 | 0.11 | 97 | 1011.7 |
| 20260507121246 | 65 | 20 | 0.0 | 0.0 | 0.03 | 1.23 | 0.11 | 97 | 1011.7 |
| 20260507121207 | 65 | 21 | 0.0 | 0.0 | 0.03 | 1.23 | 0.11 | 97 | 1011.6 |
| 20260507121047 | 65 | 20 | 0.0 | 0.0 | 0.03 | 1.23 | 0.11 | 97 | 1011.6 |
| 20260507120948 | 65 | 20 | 0.0 | 0.0 | 0.03 | 1.23 | 0.11 | 97 | 1011.5 |
| 20260507120849 | 65 | 20 | 0.0 | 0.0 | 0.02 | 1.22 | 0.10 | 97 | 1011.4 |
| 20260507120749 | 65 | 20 | 0.0 | 0.0 | 0.02 | 1.22 | 0.10 | 97 | 1011.4 |
| 20260507120650 | 65 | 20 | 0.0 | 0.0 | 0.02 | 1.22 | 0.10 | 97 | 1011.3 |
| 20260507120553 | 65 | 20 | 0.0 | 0.0 | 0.02 | 1.22 | 0.10 | 97 | 1011.2 |
| 20260507120453 | 65 | 20 | 0.0 | 0.0 | 0.02 | 1.22 | 0.10 | 97 | 1011.1 |
| 20260507120417 | 65 | 20 | 0.0 | 0.0 | 0.02 | 1.22 | 0.10 | 97 | 1011.2 |
| 20260507120338 | 65 | 20 | 0.0 | 0.0 | 0.02 | 1.22 | 0.10 | 97 | 1011.2 |
| 20260507120241 | 65 | 20 | 0.0 | 0.0 | 0.02 | 1.22 | 0.10 | 97 | 1011.1 |
| 20260507115948 | 65 | 20 | 0.0 | 0.0 | 0.02 | 1.22 | 0.10 | 97 | 1011.2 |
| 20260507115853 | 65 | 20 | 0.0 | 0.0 | 0.02 | 1.22 | 0.10 | 97 | 1011.1 |
| 20260507115814 | 65 | 20 | 0.0 | 0.0 | 0.02 | 1.22 | 0.10 | 97 | 1011.2 |
| 20260507115654 | 65 | 20 | 0.0 | 0.0 | 0.02 | 1.22 | 0.10 | 97 | 1011.2 |